GFSNE_sfc_wetblb_000.txt.gz
Wetbulb
29.02 28.78 28.61 29.94 30.18 30.72 30.83 30.58 28.17 24.19 25.63 29.48 30.01 32.36 32.32 33.44 35.51 34.95 34.62 38.18 39.79 40.62 40.99 41.06 41.22 41.94 42.59 43.28 43.81 44.22 44.30 44.24 44.81 45.55 45.78 46.63 47.34 48.09
30.63 27.78 27.71 29.30 29.90 30.72 30.37 30.46 30.07 27.82 24.39 29.94 30.67 31.60 32.38 33.67 34.92 34.89 34.22 37.51 38.66 39.57 39.77 39.62 39.69 40.30 41.40 41.50 42.07 42.62 42.64 42.16 43.32 44.49 45.50 46.07 46.49 47.21
27.72 28.24 28.32 29.10 29.69 29.79 30.23 30.13 29.32 29.05 26.02 28.90 30.95 31.78 30.84 30.88 32.61 33.18 34.02 33.66 34.12 37.67 38.46 38.76 39.14 39.46 39.94 39.98 39.94 40.40 40.93 41.71 42.59 43.55 44.26 44.96 45.41 45.86
27.36 27.79 28.34 31.03 28.50 28.98 29.23 28.64 28.94 29.19 27.47 25.62 29.21 30.04 30.33 31.42 32.20 31.66 32.40 33.01 31.55 34.91 36.71 37.72 37.81 37.96 38.04 38.34 38.74 39.40 40.11 40.16 40.34 41.12 42.10 43.18 44.06 44.85
27.28 27.19 27.68 28.09 27.19 28.05 28.41 28.52 29.45 30.88 30.34 28.84 27.45 29.74 29.99 31.63 28.83 28.78 28.38 28.63 30.24 33.56 35.58 36.18 36.68 37.01 37.53 38.20 38.99 38.08 37.51 38.34 38.99 39.66 40.29 40.93 41.94 43.02
28.37 28.35 27.82 27.71 27.59 28.15 29.24 29.98 29.85 27.90 27.94 27.37 27.83 28.25 30.61 28.41 26.82 24.88 24.28 26.56 26.29 30.02 32.55 33.93 35.35 35.78 36.48 36.15 36.05 35.96 36.15 36.92 38.08 39.07 39.59 39.79 40.62 41.75
27.23 27.71 28.59 30.74 33.83 33.06 31.16 29.18 29.09 28.39 29.49 28.58 26.40 27.67 25.65 24.39 23.23 24.54 23.54 24.83 26.53 29.34 27.36 27.70 29.10 29.07 29.44 32.66 33.12 34.33 35.23 36.56 37.73 38.99 39.04 39.34 39.76 40.73
25.59 26.86 27.81 31.38 30.84 34.25 34.16 34.35 33.42 29.93 27.60 27.65 27.51 24.57 23.60 23.71 24.20 23.73 24.54 25.03 20.25 27.19 25.75 25.51 28.00 26.72 27.93 28.97 33.22 34.47 35.16 35.87 36.83 36.83 37.68 38.56 39.04 39.97
26.55 26.97 27.84 30.19 30.74 28.36 31.55 33.83 33.26 34.08 33.68 28.49 24.35 23.70 23.59 24.69 26.74 25.55 23.54 23.13 22.79 25.46 25.11 22.96 26.15 24.62 27.07 28.69 32.46 33.35 34.31 35.08 35.77 36.39 37.30 37.63 38.16 38.70
26.58 26.54 26.29 26.73 28.28 30.17 29.49 28.86 30.43 27.99 26.96 27.08 26.30 27.38 28.54 27.63 26.21 25.76 25.63 25.33 25.41 25.12 25.62 20.56 24.05 22.78 25.37 26.41 31.61 32.92 33.76 34.60 35.40 36.52 37.73 38.53 38.61 39.21
26.47 26.69 27.65 28.07 31.75 33.92 30.78 29.35 25.16 24.58 28.86 31.38 31.84 30.89 30.43 30.59 29.60 26.57 23.35 21.52 19.51 20.84 23.97 21.86 22.13 22.34 23.81 24.55 26.75 31.89 33.37 34.45 35.01 35.52 36.73 36.93 36.94 37.62
26.09 27.51 31.50 30.82 33.56 34.79 28.70 25.02 21.69 22.63 26.28 25.33 23.29 24.61 26.39 25.98 29.49 26.21 24.67 20.20 19.51 18.61 22.96 21.44 21.84 22.87 21.41 25.32 25.61 26.91 27.69 31.93 33.48 34.45 35.01 36.15 36.91 34.27
27.32 27.78 28.02 32.85 32.68 31.74 30.58 23.64 24.66 27.83 25.64 22.15 22.23 22.98 24.23 24.78 24.77 25.21 25.46 23.69 20.88 20.14 24.42 25.25 23.57 22.89 22.46 21.84 24.76 25.43 25.89 27.76 27.29 28.19 32.07 34.33 35.76 35.96
28.09 27.13 29.28 31.18 30.19 29.44 27.20 29.25 29.49 27.92 22.47 21.95 22.04 22.36 22.01 22.20 23.46 24.24 25.13 25.17 25.49 24.54 26.00 25.97 23.74 24.12 23.09 21.79 20.37 23.29 23.05 24.55 26.15 27.04 28.58 31.97 35.05 36.89
28.50 30.71 29.69 29.04 28.14 25.90 27.22 27.97 27.58 22.15 22.05 21.87 21.43 21.23 22.31 23.36 23.99 24.06 24.99 25.38 25.70 26.30 27.68 27.69 25.59 24.43 24.02 21.92 20.87 19.87 20.60 23.72 26.56 28.15 29.96 30.67 31.67 32.54
29.69 24.28 26.49 26.43 26.50 25.52 24.21 23.92 22.68 22.96 22.86 22.17 21.60 22.41 23.29 22.82 22.65 23.79 22.65 22.85 22.64 23.52 26.82 27.59 27.09 25.97 22.52 21.02 20.54 19.24 21.33 21.56 27.02 29.40 31.24 32.03 32.89 34.03
27.51 22.96 21.63 21.10 20.18 21.01 21.40 21.99 22.45 22.45 21.95 21.74 21.54 21.21 21.58 21.82 21.94 22.94 22.91 23.04 21.26 22.36 23.26 25.31 26.63 26.14 23.75 20.27 19.53 22.19 23.18 25.24 29.55 30.89 31.64 31.69 32.66 33.92
23.22 20.19 19.12 19.23 19.32 19.69 19.80 20.36 21.17 21.78 21.22 21.19 20.43 20.12 20.41 20.71 20.25 22.51 22.57 22.30 22.05 22.81 23.14 24.08 23.59 22.86 21.29 23.31 25.92 21.80 27.86 27.88 29.64 31.87 32.13 31.22 30.73 32.67
20.45 19.50 19.11 19.26 18.87 19.35 19.68 19.72 19.22 20.29 20.85 19.88 19.47 20.53 20.64 19.37 20.62 20.29 21.21 22.39 21.77 23.82 23.38 23.53 22.71 21.14 18.52 18.47 24.13 30.54 28.54 30.04 30.03 30.58 31.99 31.62 31.20 31.94
20.55 19.39 18.58 19.02 19.31 19.45 19.64 19.62 19.55 19.52 19.18 19.38 20.73 19.37 19.66 19.80 19.26 19.65 20.91 21.26 22.86 23.01 22.17 23.45 23.02 23.42 20.40 20.74 20.06 24.45 32.71 31.11 30.67 30.69 30.60 33.44 34.63 36.64
19.54 19.00 19.44 19.64 19.79 19.81 19.82 19.64 19.35 19.11 20.70 19.43 18.73 19.58 20.19 20.35 19.69 20.38 21.75 24.75 24.88 21.98 21.16 22.42 24.48 31.43 27.53 27.46 25.01 26.49 29.73 34.16 34.42 31.86 31.69 29.23 31.27 31.96
19.58 19.16 19.66 19.76 19.46 19.37 19.22 18.97 18.58 18.77 18.35 18.32 18.76 19.77 20.40 21.30 21.10 21.41 23.17 21.55 21.75 21.48 22.16 23.76 25.50 26.23 25.97 25.26 23.98 25.15 27.59 31.48 34.53 35.58 35.96 34.48 31.74 29.07
19.28 19.58 19.23 18.99 18.94 18.95 18.81 18.12 17.97 17.84 18.26 18.58 19.20 19.81 20.78 21.12 21.83 24.48 23.90 22.81 22.43 21.06 20.27 22.18 23.71 24.30 25.41 24.61 24.97 25.40 27.18 29.31 30.13 30.60 32.00 36.09 35.85 35.55

GFSNE_sfc_wetblb_003.txt.gz
Wetbulb
27.75 27.38 26.91 28.22 28.64 28.44 28.49 28.21 25.42 21.80 23.13 26.96 27.12 31.16 31.07 31.98 34.42 34.63 34.06 37.79 39.54 40.46 41.11 41.08 41.00 41.49 42.00 42.50 42.95 43.38 44.10 45.01 45.22 45.48 46.13 46.48 46.53 47.46
29.41 26.89 26.47 27.67 27.89 28.59 28.56 28.57 28.24 26.04 23.00 28.38 29.48 30.98 30.69 32.98 34.33 34.37 33.83 37.46 38.41 39.17 39.25 39.18 39.11 39.28 39.98 40.68 41.43 42.56 43.08 43.30 43.90 44.66 45.26 45.78 45.64 46.09
27.16 26.87 27.28 27.95 27.48 28.21 28.23 28.37 27.80 27.65 24.77 27.62 30.12 31.17 30.72 30.75 31.86 32.73 33.99 34.10 33.50 37.15 37.41 37.54 37.56 37.96 39.06 39.81 40.07 40.80 41.14 41.96 42.21 43.21 43.65 44.27 44.93 45.29
26.72 26.64 27.24 30.34 26.91 26.93 27.30 27.06 27.59 28.16 27.12 25.89 28.77 28.72 28.76 30.04 30.57 31.14 31.68 32.12 30.29 33.36 35.43 36.09 37.05 37.52 38.08 38.52 38.90 39.24 39.78 40.28 41.04 41.81 41.97 42.50 43.36 44.36
26.55 25.97 26.57 26.67 25.65 26.26 26.76 27.12 28.11 30.58 28.77 26.33 25.64 28.68 29.38 30.03 29.81 28.87 27.72 27.81 29.33 32.56 34.33 34.80 35.87 36.79 37.10 37.39 37.73 38.27 38.51 38.03 38.14 38.75 39.45 40.47 41.23 42.02
27.47 27.16 26.88 26.71 26.17 26.59 27.97 28.17 29.77 27.57 27.59 26.92 27.73 28.31 27.48 29.85 28.39 24.94 24.16 26.17 25.71 28.66 31.23 33.13 33.99 34.32 35.04 35.61 35.85 35.56 35.37 35.92 36.87 37.71 38.21 38.61 39.19 40.63
25.71 26.02 27.57 29.73 33.36 32.66 30.66 29.48 28.35 27.50 27.75 28.58 25.91 27.12 25.17 24.31 22.99 24.49 23.66 24.76 25.81 28.16 25.46 26.19 26.90 27.74 28.52 31.86 32.37 33.50 33.97 34.91 35.99 37.31 38.08 38.71 39.24 40.02
24.39 25.79 26.35 30.11 29.84 33.51 33.46 33.80 32.83 29.44 27.68 27.60 25.49 23.69 22.60 23.05 24.05 24.23 25.05 22.50 19.78 26.85 24.56 24.72 26.56 25.35 26.66 27.76 32.19 33.55 34.54 35.11 35.45 36.12 36.86 37.64 38.26 39.09
26.07 25.94 26.55 29.09 30.12 27.66 30.94 33.32 33.34 34.85 32.19 28.21 23.52 22.72 22.47 24.66 26.81 24.49 23.57 23.61 22.83 25.20 25.12 22.67 24.89 23.37 26.01 27.63 31.81 32.77 33.80 34.47 35.05 35.60 36.39 37.29 37.89 38.28
25.70 25.32 25.15 25.77 27.25 29.74 30.46 30.03 27.33 26.28 26.24 26.44 25.75 26.84 27.67 27.17 26.28 25.76 25.01 25.22 25.38 25.06 25.17 19.69 23.15 21.99 24.53 25.52 30.87 32.27 33.22 33.92 34.65 35.32 36.14 36.73 37.40 38.31
25.48 25.80 26.08 27.90 31.63 34.33 29.53 25.59 24.35 24.28 28.20 30.92 31.73 30.83 30.47 30.61 29.55 26.46 23.01 21.10 19.21 21.09 24.10 21.70 21.97 21.90 23.49 24.07 26.32 31.61 32.82 33.64 33.82 34.14 34.81 35.27 35.97 36.61
25.92 26.30 31.56 30.35 33.22 33.25 27.67 24.76 20.69 22.20 26.09 25.63 23.15 24.23 26.36 25.95 29.51 26.10 24.27 20.19 19.65 18.47 22.84 21.26 21.87 23.27 20.99 24.87 25.05 26.23 26.53 31.07 32.24 32.93 33.37 34.73 35.70 33.44
27.00 26.60 26.84 32.10 32.06 31.50 30.61 23.72 24.30 28.25 25.52 21.60 21.94 22.95 24.11 24.59 24.64 25.12 25.34 23.48 20.68 19.98 23.97 24.49 22.80 22.03 21.49 21.60 24.28 25.31 25.58 25.72 25.33 26.66 30.23 32.30 34.06 34.68
26.46 26.79 28.35 31.07 30.23 29.35 27.35 28.92 29.66 27.84 21.98 21.62 21.59 21.98 21.60 21.76 23.08 24.08 24.97 25.15 25.59 24.36 25.67 25.45 22.84 22.75 22.05 20.87 19.80 23.78 24.55 25.23 25.08 23.94 25.23 29.66 33.64 35.59
27.77 29.50 29.74 28.94 27.88 25.59 27.06 28.12 27.34 21.47 21.49 21.31 21.02 20.17 21.33 22.62 23.29 23.62 24.70 25.14 25.08 25.57 26.71 26.28 25.30 24.58 23.99 21.71 21.05 21.42 22.59 23.35 24.73 24.74 27.61 28.85 30.05 30.38
28.92 22.28 26.15 25.97 26.04 25.17 23.68 23.34 22.09 22.25 22.23 21.22 20.53 21.23 22.11 21.64 21.57 22.93 21.94 22.04 22.19 22.62 26.31 27.71 27.71 26.10 23.15 23.33 23.09 20.90 22.95 21.83 25.33 26.75 29.27 31.95 33.27 32.85
27.33 22.36 20.80 20.34 19.72 20.17 20.43 20.92 21.41 21.54 20.55 20.17 20.05 19.80 20.27 20.36 20.80 22.03 21.89 22.21 20.48 21.29 22.75 25.66 26.42 26.13 25.70 24.74 21.59 23.76 25.11 25.61 29.24 30.80 31.74 31.60 32.69 33.06
23.07 19.55 18.66 18.64 18.44 18.86 18.89 19.34 20.06 20.62 19.89 19.76 19.12 18.87 18.59 19.45 19.44 21.23 21.24 21.01 20.65 21.73 23.03 24.22 23.59 22.83 23.62 25.51 27.52 23.30 26.97 29.75 31.61 32.18 32.25 31.13 31.18 33.33
19.98 18.73 18.04 18.08 18.26 18.58 18.80 18.81 18.11 19.19 19.96 19.05 18.25 18.79 20.16 18.45 19.29 18.99 19.89 20.45 20.73 22.65 23.78 24.14 23.01 21.62 19.97 20.74 26.04 31.75 27.48 31.31 31.64 31.67 31.91 31.45 30.89 31.62
19.63 18.57 17.84 18.34 18.39 18.62 18.69 18.46 18.36 18.50 18.50 18.41 19.66 18.95 18.44 18.77 18.53 18.76 19.66 19.77 22.31 22.99 22.18 23.98 23.86 23.58 22.73 21.55 22.26 25.99 31.93 31.10 31.40 31.16 31.31 32.14 33.49 35.23
18.82 18.37 18.77 18.61 18.78 18.86 18.72 18.26 18.05 18.02 19.76 18.73 17.68 18.46 18.85 19.04 18.46 19.45 20.36 24.39 25.31 21.61 20.73 22.44 24.92 31.63 27.78 27.96 25.24 26.33 30.86 33.94 33.46 31.46 31.56 31.03 30.69 30.51
19.01 18.35 18.63 18.73 18.44 18.05 17.66 17.87 17.65 17.79 17.09 17.24 17.65 18.53 19.08 19.64 19.35 20.24 20.93 21.83 21.86 21.55 21.57 24.07 26.06 26.38 23.96 22.39 23.68 25.97 28.07 30.47 34.03 35.14 34.84 33.77 30.17 26.89
18.36 18.33 18.10 17.89 17.75 17.63 17.43 17.58 17.41 17.16 17.48 17.73 18.02 18.79 19.65 19.41 21.00 21.79 22.52 23.96 22.38 22.01 20.57 21.64 24.06 24.32 24.62 23.57 24.61 24.12 25.19 26.56 28.37 30.13 31.42 35.64 35.08 35.06

GFSNE_sfc_wetblb_006.txt.gz
Wetbulb
26.98 26.64 26.28 27.26 27.82 27.73 27.32 26.60 24.12 20.59 21.94 24.56 25.23 30.69 30.52 31.73 33.33 33.97 33.48 37.26 39.22 39.84 40.67 40.85 40.65 40.76 41.07 41.72 41.77 42.09 42.69 43.17 44.03 45.00 45.65 46.27 47.02 47.90
28.66 26.42 25.79 26.71 27.10 27.54 27.11 27.25 26.53 24.60 22.11 26.83 27.89 29.66 30.67 32.38 33.79 33.34 33.03 36.86 37.72 38.75 39.41 39.09 38.87 38.80 39.00 39.43 39.88 40.65 41.37 42.15 43.12 43.98 45.10 45.58 46.38 46.75
26.81 26.68 26.47 26.84 26.69 26.96 26.80 26.69 26.26 26.26 23.63 26.10 28.65 30.27 29.65 29.07 30.04 30.89 32.04 31.48 33.27 37.65 37.47 37.37 37.29 37.27 37.80 38.41 39.11 40.04 40.76 41.05 41.83 42.64 43.41 44.31 44.82 45.26
26.31 25.99 26.08 29.36 26.32 26.32 26.13 25.42 26.03 26.78 25.35 23.70 27.53 27.86 27.72 29.16 29.73 29.66 30.51 33.07 31.70 33.59 35.37 35.86 36.31 36.39 36.75 37.44 38.00 38.48 38.75 39.19 39.67 40.50 41.23 42.31 42.58 43.22
25.68 25.00 25.35 25.34 24.85 25.57 25.34 25.46 26.59 28.26 28.16 27.02 25.33 27.90 28.41 29.68 28.68 29.35 29.07 28.45 29.11 32.40 34.05 34.33 34.92 35.43 36.05 36.50 36.60 37.00 37.11 37.64 37.96 38.48 39.12 39.57 40.35 41.30
25.84 25.36 25.13 25.18 25.08 25.48 26.06 26.57 28.16 26.52 26.35 25.64 25.84 27.34 28.04 28.63 27.31 24.31 23.56 25.83 25.71 28.53 30.93 32.23 33.52 33.90 34.36 34.64 34.72 34.58 34.52 34.99 35.88 36.53 37.04 37.39 38.01 39.22
24.55 25.03 26.01 28.35 32.45 31.72 29.70 27.57 27.27 26.59 26.91 27.64 27.46 26.46 24.38 23.37 22.16 23.75 23.34 24.85 25.94 26.88 25.63 26.11 26.50 26.82 27.59 31.01 31.37 32.44 32.88 33.93 34.92 35.97 36.86 37.52 37.89 38.46
23.43 24.67 25.08 29.25 28.51 33.34 33.36 33.79 32.99 31.19 27.12 24.76 23.84 22.35 21.78 22.30 23.33 23.83 24.81 22.49 20.14 27.26 25.03 24.83 26.80 25.47 26.22 26.47 30.70 32.34 33.51 34.32 34.79 35.28 35.93 36.73 37.11 37.62
25.56 25.81 26.20 28.45 29.32 26.57 30.56 33.35 32.88 32.44 31.24 26.25 22.31 21.55 22.09 24.40 26.62 24.32 23.57 23.31 22.46 25.16 25.38 22.73 25.01 23.28 25.73 26.65 30.92 31.89 32.93 33.58 34.26 34.77 35.56 36.14 36.50 37.17
25.67 24.81 24.36 25.08 26.44 29.57 30.06 29.82 25.96 25.03 25.74 26.15 24.91 26.16 27.86 27.13 26.01 25.57 25.01 25.13 25.08 24.80 25.20 19.75 23.23 22.00 24.53 25.66 30.45 31.62 32.47 33.21 33.72 34.59 35.44 35.98 36.40 37.18
25.75 25.31 25.30 26.68 31.40 33.70 29.85 25.80 24.67 23.95 28.02 30.60 31.74 30.68 30.37 30.58 29.59 26.49 22.92 20.92 19.25 20.91 23.83 21.39 21.64 21.45 22.91 23.91 26.04 31.13 32.21 32.94 33.21 33.73 34.32 34.59 34.96 35.69
26.25 26.59 30.84 30.20 32.81 33.49 28.02 25.07 21.28 22.33 25.54 26.01 22.97 23.98 25.74 25.15 29.24 25.45 23.76 19.97 19.55 18.38 22.70 20.99 21.46 22.55 20.06 24.24 24.07 25.48 25.68 30.44 31.88 32.89 33.75 34.40 34.75 32.15
26.06 26.78 27.30 31.52 32.23 31.50 30.57 23.72 24.06 28.16 25.56 21.41 21.54 22.20 23.20 23.41 23.25 23.69 23.93 22.59 20.28 19.83 24.02 24.52 22.41 21.31 20.92 20.57 23.93 25.34 25.94 25.96 26.25 27.53 31.16 32.43 33.66 33.85
27.06 26.81 26.96 31.09 30.17 29.14 27.21 28.73 29.60 27.81 21.59 21.15 21.10 21.29 20.43 20.08 21.53 22.56 23.18 23.82 24.93 24.08 25.39 25.04 22.53 22.07 21.04 20.39 20.33 24.93 26.16 26.98 27.02 26.25 26.91 29.50 32.60 34.39
27.28 29.43 29.79 29.02 27.64 25.27 26.71 27.75 26.90 20.88 20.98 20.66 20.40 19.19 19.87 20.80 21.48 21.79 22.85 23.85 24.27 24.88 26.02 25.21 24.59 24.29 23.82 22.21 21.87 22.45 24.61 25.91 27.13 26.07 26.92 27.46 27.64 28.78
28.76 22.86 26.27 25.67 25.56 24.72 23.00 22.61 21.48 21.62 21.76 20.56 19.57 20.25 20.94 20.17 20.00 21.36 20.81 21.10 21.23 21.76 25.52 25.62 26.60 26.05 23.59 23.81 23.74 22.78 25.39 23.40 26.64 28.21 29.66 30.80 32.21 33.73
27.06 22.18 20.18 19.74 18.98 19.30 19.76 20.37 20.82 20.93 19.92 19.39 19.25 18.78 19.20 19.36 19.28 21.24 20.85 21.14 19.07 19.71 21.40 24.69 26.81 26.86 26.37 25.16 23.10 25.77 26.36 27.15 31.15 31.94 32.00 31.75 32.94 33.71
22.70 18.86 17.95 18.12 17.74 18.09 18.21 18.66 19.47 19.95 18.97 19.04 18.34 18.37 18.05 18.22 19.23 20.14 20.19 19.58 19.22 20.10 21.82 24.00 23.88 23.64 25.00 26.45 29.41 25.21 28.58 28.98 31.64 32.34 32.48 30.98 30.71 32.98
19.24 17.95 17.49 17.51 17.55 17.97 18.09 18.06 17.35 18.45 19.13 18.36 18.09 17.78 19.40 18.21 18.38 17.92 18.56 19.12 19.10 21.17 23.65 23.29 23.19 23.21 20.94 20.15 26.46 31.36 27.98 30.10 30.89 30.92 31.47 31.07 30.54 31.51
18.74 17.94 17.27 17.67 17.72 17.85 18.06 17.78 17.61 17.49 17.56 17.46 18.80 18.78 17.43 17.49 16.98 17.09 18.04 18.37 20.42 23.22 21.37 22.97 23.16 23.28 24.18 22.52 23.11 26.64 31.73 30.31 30.18 29.98 30.33 31.74 32.40 35.48
18.00 17.73 17.88 17.61 17.75 18.20 17.89 17.45 17.25 17.40 19.30 18.89 17.06 17.55 17.87 17.88 16.87 17.82 18.45 23.22 24.60 21.56 20.00 21.08 24.13 30.66 26.75 25.11 23.18 25.87 29.11 32.90 32.50 30.88 31.32 30.04 29.18 29.84
18.09 17.48 17.41 17.60 17.81 17.49 17.23 17.18 17.00 17.40 17.32 17.17 17.32 17.79 18.24 18.56 18.09 18.47 19.58 20.08 21.08 22.12 21.57 22.59 24.65 24.40 14.82 19.82 22.93 23.45 26.48 29.63 32.27 33.68 34.60 34.00 29.81 26.29
17.34 17.16 16.85 17.03 17.06 16.99 16.94 16.86 16.87 16.80 17.15 17.22 17.19 17.91 18.63 18.40 19.61 20.37 21.52 22.09 23.98 22.37 21.40 20.98 23.08 20.26 16.01 16.46 24.19 23.13 25.34 27.82 28.79 29.01 31.13 35.22 35.39 35.32

GFSNE_sfc_wetblb_009.txt.gz
Wetbulb
34.27 33.96 33.14 33.75 33.80 33.72 33.29 32.11 28.84 24.86 26.63 30.87 31.29 34.62 34.82 35.30 36.14 36.09 35.67 37.35 38.68 39.29 39.79 40.10 40.04 40.80 41.47 41.63 41.62 41.87 42.23 42.44 43.02 43.85 44.60 45.29 46.14 47.32
34.26 33.11 32.95 33.11 33.12 33.46 33.06 32.51 31.43 28.49 25.84 30.61 31.63 33.35 34.15 34.29 35.92 35.12 34.99 36.52 37.47 38.44 38.83 38.66 38.94 39.12 39.44 39.77 39.82 40.23 40.68 41.11 41.97 43.21 44.36 44.99 45.55 46.13
33.11 32.32 31.67 32.25 31.95 32.29 32.61 32.18 30.90 30.26 27.48 30.12 32.63 33.77 32.73 33.01 33.54 34.68 34.97 34.47 35.39 36.95 37.55 37.75 37.83 37.40 37.83 38.23 38.61 38.98 39.39 40.30 40.98 42.01 43.07 43.80 44.48 44.79
31.36 31.05 30.66 31.19 30.59 31.14 31.03 30.32 30.33 30.98 29.53 27.30 29.99 31.55 31.57 32.94 32.99 33.05 33.66 33.81 33.81 34.70 35.66 36.00 36.52 36.71 36.86 37.15 37.26 37.95 38.18 38.76 39.03 39.60 40.58 41.36 42.11 42.94
30.80 30.09 29.62 29.52 29.01 29.81 30.30 30.11 30.48 30.48 30.57 29.44 28.69 31.55 32.12 32.84 32.12 32.01 31.12 30.94 31.63 32.99 34.36 34.67 35.30 35.77 36.14 36.53 36.69 36.91 36.83 36.97 37.15 37.47 38.11 39.03 39.82 40.87
30.65 30.26 29.76 29.29 28.92 29.84 30.25 30.31 30.50 30.00 30.21 29.77 29.47 29.57 29.98 30.76 30.36 28.32 27.41 29.82 29.61 31.02 32.71 33.24 34.28 34.41 34.83 35.09 35.02 34.66 34.62 34.96 35.59 36.20 36.58 36.81 37.36 38.51
30.48 30.24 30.48 31.15 32.85 32.98 31.76 31.20 30.68 30.45 30.87 29.73 28.45 27.86 27.42 26.98 25.79 27.56 26.83 28.31 29.29 30.08 30.12 30.59 31.10 31.22 31.67 32.86 32.57 32.92 33.09 33.77 34.50 35.42 36.22 36.91 37.10 37.59
29.43 30.26 30.44 30.98 31.06 33.10 33.25 33.71 33.53 31.85 30.04 28.24 27.24 25.51 25.09 26.03 27.53 27.09 26.91 24.84 23.09 30.14 27.77 27.41 30.64 29.55 30.61 31.04 31.86 32.56 33.34 34.15 34.63 35.05 35.55 36.19 36.59 36.94
30.18 30.10 29.88 30.51 31.71 30.18 31.87 33.51 34.51 33.27 32.18 29.66 25.84 25.20 25.36 27.16 28.59 26.69 26.40 25.80 24.97 28.37 27.33 24.70 28.89 27.40 30.02 30.00 31.65 32.13 32.96 33.62 34.09 34.49 35.19 35.82 36.17 36.60
30.46 30.14 29.44 29.57 30.41 30.95 31.49 32.22 30.31 29.73 29.15 28.76 28.18 28.93 30.11 29.99 28.89 28.01 27.45 27.36 27.52 28.20 28.18 22.63 27.42 26.21 28.63 29.37 31.47 32.14 32.61 33.19 33.79 34.46 35.09 35.53 35.65 36.31
30.42 30.36 29.90 30.10 31.88 33.50 31.34 28.87 27.73 27.47 29.70 30.82 31.99 31.57 30.77 30.77 30.00 27.90 25.63 23.58 21.78 23.61 27.23 24.74 25.21 25.40 26.89 27.89 30.24 31.58 32.38 33.09 33.67 34.12 34.74 35.05 35.28 35.55
30.21 30.38 31.10 31.04 32.59 33.43 29.72 27.66 24.79 25.32 27.42 28.61 26.42 26.63 27.43 27.35 29.25 27.10 25.77 21.74 21.50 20.69 26.00 23.70 24.63 24.99 22.27 27.57 29.14 29.47 30.07 31.78 32.57 33.61 34.34 34.87 35.26 33.13
28.77 29.08 29.60 31.49 32.34 31.58 30.60 26.74 25.69 29.12 27.85 24.45 24.16 24.84 25.83 26.30 26.08 26.09 25.70 24.33 21.78 21.61 25.97 25.84 24.89 24.67 23.80 24.22 27.08 29.19 29.83 30.41 31.05 31.69 33.13 33.96 35.11 35.09
28.78 28.81 29.41 31.36 30.32 29.26 27.94 28.52 29.62 28.64 23.97 23.12 22.75 23.12 23.66 23.65 24.83 25.38 25.46 25.54 26.01 24.45 26.32 26.51 24.38 24.20 23.73 23.18 23.48 28.27 29.34 30.60 31.53 31.34 32.02 32.99 34.27 35.41
29.37 30.12 30.04 29.08 27.73 26.15 26.68 27.83 27.03 23.24 22.54 21.66 21.86 22.60 23.28 24.32 24.32 24.65 25.67 25.87 26.08 26.69 27.46 27.16 26.45 26.29 26.07 24.84 25.03 26.23 27.20 29.44 31.09 30.96 31.86 32.01 32.10 32.42
29.48 27.92 27.06 26.02 25.63 25.27 23.92 24.03 23.49 23.16 22.75 22.11 21.39 22.16 23.15 23.39 23.30 24.29 23.07 23.89 22.76 24.06 27.72 28.60 28.88 28.62 26.91 27.36 27.32 26.61 28.28 26.79 31.41 32.38 32.92 32.95 33.97 34.44
27.99 24.52 22.32 21.56 21.01 21.25 21.74 22.13 22.56 22.43 21.70 21.45 20.71 20.65 20.73 21.95 22.09 23.66 23.23 23.09 21.02 22.00 23.31 26.81 30.01 29.96 29.57 28.35 26.52 28.49 29.54 29.79 31.64 31.82 32.01 32.08 34.18 34.62
23.97 20.57 19.78 20.11 19.46 19.59 19.48 20.17 21.05 21.69 20.93 21.09 20.62 20.42 20.27 20.44 21.29 22.58 22.70 21.81 21.08 22.12 22.88 26.43 27.32 26.60 28.29 31.10 33.00 29.26 30.40 30.61 31.14 32.03 32.62 31.53 31.63 33.36
20.43 19.53 19.08 19.04 18.94 19.37 19.88 20.14 19.62 20.66 20.77 20.34 19.82 19.74 20.64 21.35 20.25 20.29 21.03 21.48 21.41 22.67 25.23 26.98 26.14 25.62 22.93 23.73 30.22 32.37 29.56 30.11 31.17 30.96 32.03 31.49 31.25 32.01
19.56 18.78 18.53 19.02 18.99 19.12 19.67 19.82 19.99 19.97 19.78 19.71 20.65 21.21 19.99 19.94 19.60 19.89 20.65 20.42 21.70 24.59 24.81 26.19 26.62 26.52 25.30 25.46 25.70 29.17 31.82 30.77 30.32 29.95 30.66 32.31 33.45 35.36
18.65 18.63 19.03 18.89 19.01 19.40 19.61 19.62 19.41 19.05 20.48 20.57 19.39 19.75 20.16 20.29 19.46 20.33 21.04 23.32 24.76 23.91 23.31 24.76 27.30 30.41 28.83 28.61 27.01 28.21 30.89 33.20 32.99 31.07 31.29 30.27 30.07 31.04
18.55 18.43 18.73 19.08 18.77 18.84 19.04 18.94 18.56 18.82 19.11 19.50 19.83 20.22 20.57 20.79 20.29 20.75 21.67 22.40 23.39 24.35 24.98 27.04 28.38 28.65 27.64 26.70 25.24 26.79 28.63 31.26 33.59 33.91 34.37 33.82 30.26 27.20
18.48 18.37 18.37 18.05 18.17 18.63 18.75 18.41 18.13 18.53 19.22 19.59 19.81 20.40 20.89 20.71 22.15 22.53 23.16 24.29 25.19 26.00 25.76 25.82 27.37 28.07 26.70 26.17 26.25 26.20 27.25 29.44 30.54 30.25 31.90 34.47 35.20 35.20

GFSNE_sfc_wetblb_012.txt.gz
Wetbulb
38.49 38.47 37.67 37.77 37.73 37.45 36.76 35.71 32.64 28.70 30.32 34.63 34.74 38.00 37.71 37.72 37.71 37.40 37.21 38.40 39.07 39.65 40.11 40.16 40.13 40.32 40.83 41.35 41.77 42.46 42.80 42.85 43.09 43.54 44.05 44.43 45.06 46.05
38.01 37.31 36.95 37.11 36.72 36.66 36.11 35.57 34.78 32.07 29.08 34.15 34.66 35.97 36.77 36.36 37.32 37.11 37.07 37.84 38.35 39.12 39.12 38.90 39.07 39.16 39.47 39.76 40.19 40.44 40.71 41.13 41.84 42.59 43.26 43.79 44.44 45.11
37.26 36.17 35.40 35.85 35.02 35.13 35.10 34.64 33.76 33.33 30.31 32.69 34.48 35.66 34.91 35.03 36.01 37.08 36.99 36.15 36.91 37.88 38.07 37.82 37.68 37.83 38.21 38.62 39.14 39.56 39.89 40.32 40.82 41.44 42.10 42.79 43.51 44.15
35.78 35.16 34.41 34.23 33.48 33.97 33.73 32.92 32.89 33.46 31.36 29.67 32.41 33.22 33.63 35.30 35.22 34.41 34.83 35.27 35.11 35.64 36.51 36.77 37.18 37.39 37.46 37.72 38.04 38.42 38.64 39.04 39.45 40.20 40.53 41.15 41.84 42.34
35.42 34.44 33.80 33.09 32.30 32.88 32.71 32.69 33.13 33.05 32.85 31.82 31.32 34.07 34.63 34.35 34.04 33.91 32.97 33.14 33.76 34.96 36.06 36.30 36.72 36.91 37.07 37.39 37.64 37.70 37.56 37.70 37.73 38.03 38.41 38.87 39.54 40.36
35.31 34.50 33.75 32.70 32.28 32.42 32.68 32.93 32.89 32.37 32.22 31.66 31.98 32.62 32.54 33.43 32.93 31.01 29.56 32.10 31.85 33.02 34.69 34.86 35.76 35.88 36.34 36.52 36.35 35.95 35.75 35.95 36.44 36.89 37.14 37.23 37.47 38.34
34.86 34.37 33.92 33.51 33.32 33.82 32.87 32.28 32.07 31.09 31.81 31.41 31.56 30.91 30.57 30.12 28.58 30.21 29.25 30.27 31.37 31.99 32.53 32.93 33.51 33.57 34.00 35.01 34.56 34.69 34.75 35.07 35.40 35.84 36.52 36.90 37.12 37.59
33.12 33.46 33.84 33.65 33.37 34.11 34.06 33.87 33.15 31.26 31.37 31.21 30.05 28.09 27.89 28.74 29.51 29.21 28.81 27.26 25.36 32.32 30.45 29.80 32.89 31.66 33.02 33.85 34.26 34.58 34.73 34.98 35.18 35.26 35.73 36.39 36.82 37.13
32.92 32.75 32.54 33.02 33.52 32.26 32.56 33.79 34.33 35.30 34.39 31.33 28.28 27.72 27.59 28.95 29.61 29.56 28.32 27.38 26.91 30.18 29.90 27.37 31.31 30.30 33.09 33.22 33.88 34.11 34.49 34.79 35.18 35.42 35.55 35.92 36.17 36.63
33.08 32.84 32.30 32.24 32.30 31.86 31.72 32.47 32.23 31.97 31.65 30.99 29.75 29.74 30.68 31.61 30.77 29.23 28.63 28.34 29.25 30.27 30.44 25.26 30.03 28.92 32.00 32.69 33.60 34.23 34.47 34.76 35.05 35.41 35.92 36.17 36.09 36.31
32.81 32.98 32.52 31.66 32.55 33.50 31.87 30.79 29.64 29.90 31.89 31.96 32.65 33.35 32.96 32.23 31.27 28.84 27.16 25.83 24.23 25.85 29.01 26.99 27.80 27.73 29.15 30.27 32.78 33.93 34.30 34.75 34.92 35.71 36.24 36.27 36.32 36.64
32.25 32.56 32.86 32.16 32.94 33.49 30.91 29.01 27.36 27.52 28.58 29.94 30.06 29.66 30.18 29.99 31.17 29.69 28.74 24.93 24.23 22.78 28.04 25.67 25.87 25.95 23.99 29.65 31.74 31.91 32.81 34.09 35.05 35.56 36.32 36.68 36.66 34.46
30.53 30.34 31.30 32.31 32.63 32.04 31.32 28.45 27.18 29.37 29.17 28.15 27.24 27.85 28.58 29.35 29.56 29.42 28.65 27.02 24.43 23.94 28.05 27.07 25.66 25.69 25.25 25.64 28.70 31.29 32.09 33.27 33.86 34.30 35.67 36.14 36.31 36.48
29.45 30.36 31.06 31.82 30.87 30.26 29.10 28.96 29.94 29.62 27.14 25.96 25.40 25.57 26.81 27.20 28.19 28.83 28.25 27.81 27.98 26.49 28.20 27.62 25.13 25.39 24.91 24.58 24.45 30.17 32.01 32.88 33.74 33.55 34.16 35.48 36.49 37.01
30.38 31.00 31.39 30.19 29.09 27.79 27.97 28.51 27.98 26.53 25.40 23.64 23.27 25.13 26.51 27.74 27.84 27.93 28.98 29.02 28.62 29.02 29.32 28.94 27.91 27.53 27.06 25.22 25.60 28.13 29.40 31.57 33.50 32.84 33.73 33.79 33.59 34.24
30.41 30.30 29.28 28.05 27.51 27.12 26.77 27.00 26.73 26.24 24.98 23.82 23.42 24.53 26.02 26.90 26.64 27.62 26.00 26.50 25.33 26.53 29.71 30.28 30.11 29.31 27.42 28.61 28.05 26.30 30.18 28.88 33.25 33.38 33.56 33.41 34.65 35.26
28.97 27.46 25.68 24.99 24.42 24.69 25.16 25.57 26.04 25.77 24.09 24.00 23.06 22.84 23.05 24.62 25.01 26.48 26.06 25.70 23.73 24.22 25.76 29.11 30.58 31.21 31.29 29.65 27.18 29.74 31.07 31.64 32.70 32.59 32.07 32.16 34.33 34.96
25.74 23.92 23.33 23.52 22.81 22.89 22.63 23.05 23.94 24.57 23.81 23.49 22.92 23.41 23.03 23.05 23.62 25.41 25.42 24.69 23.75 23.75 24.65 27.30 28.68 28.44 29.52 31.53 34.01 31.40 31.20 30.73 32.16 32.34 32.83 31.61 31.80 33.87
23.27 22.66 22.18 22.33 22.10 22.29 22.41 22.65 22.92 23.93 24.18 23.48 23.32 23.38 23.72 24.32 22.89 23.27 24.01 24.55 24.31 25.29 26.08 28.61 28.08 27.59 25.33 23.60 29.87 34.13 29.87 30.42 31.13 31.79 32.13 32.20 30.64 32.55
22.26 21.50 21.62 21.92 21.91 21.75 22.20 22.61 23.14 23.34 22.97 23.01 23.69 23.85 23.07 22.97 22.76 22.98 23.59 23.28 24.35 25.65 25.78 27.54 28.50 28.78 26.31 25.08 25.48 28.58 31.56 31.24 31.35 30.63 31.01 31.94 33.54 35.76
21.47 21.49 22.12 21.94 21.71 21.98 22.60 22.86 22.55 22.18 23.08 23.05 22.56 23.05 23.52 23.49 22.75 23.26 23.68 25.30 26.13 25.51 24.91 25.25 28.85 32.31 31.15 30.02 27.89 28.56 31.29 33.28 33.44 31.72 31.56 30.32 29.88 31.44
21.26 21.38 21.78 21.97 21.97 21.84 22.21 22.31 22.25 22.12 22.10 22.37 22.82 23.26 23.86 24.22 23.39 23.74 24.59 24.97 25.68 26.38 26.59 29.34 30.64 31.21 28.89 27.01 26.34 27.49 29.67 31.83 34.05 34.07 34.47 33.96 30.43 27.36
21.14 21.28 21.36 21.44 21.66 21.81 21.79 21.73 21.48 21.71 21.80 22.24 22.39 23.18 23.91 23.34 24.87 25.80 26.58 27.27 27.68 27.85 27.78 27.70 28.50 30.91 29.02 29.50 28.35 28.58 28.58 29.65 30.18 30.16 32.38 35.43 35.83 35.59

GFSNE_sfc_wetblb_015.txt.gz
Wetbulb
39.50 39.62 38.79 38.97 38.88 38.27 37.38 36.05 32.68 28.30 29.60 34.09 34.43 38.37 37.98 37.68 38.25 37.32 36.63 39.20 40.61 41.11 41.27 41.15 40.91 41.03 41.55 41.95 42.31 42.54 42.82 42.66 43.14 43.81 44.32 44.75 45.26 46.20
39.26 37.96 37.72 37.86 37.45 37.28 36.46 35.85 34.71 31.77 28.17 33.40 34.33 35.69 36.55 36.92 37.49 36.68 36.89 38.98 39.40 40.07 39.95 39.65 39.77 39.84 39.95 40.21 40.56 40.99 41.37 41.70 42.43 43.38 43.97 44.31 44.53 44.82
38.37 37.66 36.36 36.62 35.69 35.28 35.07 34.54 33.40 32.89 29.22 31.68 34.09 35.42 34.54 34.32 35.24 36.28 36.61 35.57 35.77 38.50 38.80 38.69 38.71 38.83 39.27 39.57 39.80 40.20 40.64 41.15 41.67 42.38 43.17 43.34 43.78 43.84
36.82 36.95 35.78 35.76 34.34 34.29 33.82 32.99 32.58 32.95 31.13 28.87 32.16 32.59 33.27 34.05 34.64 34.22 34.88 35.48 34.02 36.36 37.88 38.22 38.48 38.60 38.75 38.91 39.05 39.26 39.60 39.85 40.39 40.70 41.61 42.18 42.60 42.76
36.65 35.62 34.85 34.22 32.88 33.02 32.86 32.35 32.86 33.60 32.84 30.90 29.94 32.43 32.70 34.23 33.67 33.42 32.76 33.13 33.90 35.77 36.85 37.23 37.69 37.84 38.10 38.52 38.70 38.85 38.80 38.78 38.71 38.80 39.14 39.70 40.34 40.88
36.72 36.04 34.86 33.87 32.67 32.33 31.83 31.93 32.53 31.37 31.35 29.90 29.47 29.91 31.56 33.24 31.94 29.90 28.79 30.77 30.33 32.92 34.66 35.28 36.48 36.91 37.46 37.73 37.42 37.04 37.03 37.27 37.77 38.02 38.09 37.90 38.17 38.88
35.68 35.30 34.99 35.22 34.76 34.43 32.75 32.15 31.55 30.20 29.71 29.17 28.73 30.02 28.82 28.27 27.45 28.65 27.56 28.53 29.15 31.12 29.84 30.46 31.59 31.21 31.88 34.90 34.94 35.57 36.05 36.76 37.11 37.41 37.74 38.04 38.00 38.46
33.44 33.70 34.07 34.62 34.42 35.10 35.31 34.98 33.52 30.26 29.58 29.50 29.97 27.21 27.35 27.84 27.93 27.36 26.45 26.23 24.17 30.29 28.59 27.73 30.17 29.39 30.78 31.51 35.18 35.98 36.30 36.58 36.80 37.09 37.50 37.79 37.72 37.52
33.13 32.85 32.72 33.51 33.85 32.66 33.40 34.18 33.84 34.82 34.97 30.77 28.11 27.54 26.52 27.42 27.53 26.67 27.59 26.25 24.81 27.65 27.51 25.33 29.24 27.71 30.33 31.56 34.71 35.60 35.83 36.22 36.83 37.26 37.34 37.62 37.87 37.97
33.26 32.99 32.21 32.08 32.48 32.39 31.47 30.93 31.70 31.52 31.27 31.28 29.78 28.96 29.22 30.21 31.01 30.49 27.74 26.81 27.27 28.17 29.33 23.47 27.36 25.90 29.17 30.24 33.77 34.68 35.64 36.24 36.56 36.99 37.52 37.89 38.25 38.30
33.00 32.88 32.65 32.03 33.54 34.28 31.30 29.54 29.22 29.08 32.35 33.00 32.80 33.50 34.23 34.03 32.46 28.97 25.49 24.75 23.48 24.79 27.71 24.90 25.51 25.83 26.56 26.93 29.52 34.38 35.68 36.05 35.89 36.82 37.31 37.77 38.01 38.78
31.48 31.92 33.69 32.62 33.90 33.85 30.80 28.51 26.17 26.73 27.51 28.27 29.15 29.71 30.41 29.87 32.26 29.67 28.10 24.82 23.62 22.11 26.14 24.48 24.46 24.64 22.06 26.55 28.04 28.72 29.57 33.58 35.50 36.00 37.17 37.70 37.92 36.01
29.54 29.73 30.93 33.20 33.10 33.35 32.51 28.35 26.98 29.03 28.98 27.45 26.86 26.93 27.53 27.90 28.63 28.54 28.41 27.18 24.53 22.65 26.35 26.08 24.40 23.74 23.30 22.60 25.48 27.29 28.09 29.28 30.82 32.05 35.48 36.82 37.39 37.28
28.99 29.99 30.35 32.37 32.46 31.82 30.15 30.13 30.63 30.40 26.77 25.67 24.86 24.35 24.52 25.09 26.31 27.30 27.40 27.29 27.65 26.35 27.83 27.52 24.38 24.05 23.23 22.06 21.67 25.92 27.48 28.84 30.08 30.67 31.70 35.07 37.00 37.60
30.57 31.09 31.94 31.40 30.99 28.85 29.07 29.88 29.79 26.39 25.40 23.94 23.68 23.90 24.97 25.52 25.59 26.00 27.66 28.32 28.01 27.96 28.40 27.69 26.67 26.36 25.81 23.74 23.05 24.46 26.33 28.44 29.94 29.72 32.33 33.52 33.55 33.82
30.29 29.25 29.42 29.75 29.23 28.34 27.17 27.00 26.40 26.23 25.69 24.62 23.64 24.35 25.00 24.09 23.65 25.05 24.60 24.94 24.61 24.48 27.25 28.13 28.79 28.34 26.39 26.29 26.30 25.93 27.78 25.57 29.15 31.06 32.33 32.63 33.40 33.75
29.17 26.63 25.47 24.91 24.22 24.36 24.73 24.94 25.25 25.42 24.41 24.53 23.92 23.07 22.67 23.25 23.40 24.20 24.29 24.53 23.12 22.77 23.89 26.34 28.01 28.11 28.69 28.15 26.46 26.77 27.53 28.59 30.75 30.81 30.75 30.28 31.80 33.30
25.90 23.36 23.00 23.04 22.61 22.69 22.49 22.59 23.42 24.22 23.94 23.92 22.92 22.72 22.61 22.38 22.48 23.68 24.15 23.14 22.46 23.11 23.90 25.65 26.39 26.86 26.58 28.11 32.42 28.14 28.40 27.81 29.72 30.00 30.55 29.74 29.73 32.15
22.83 22.20 21.60 22.02 22.00 22.35 22.63 22.61 21.88 23.12 23.51 23.13 22.87 22.29 22.57 22.85 22.60 21.63 22.48 22.72 22.36 23.20 23.83 25.64 26.35 25.04 22.61 21.25 27.02 33.21 27.83 28.18 28.25 29.22 30.48 30.37 29.93 30.77
22.39 21.55 21.20 21.78 21.79 22.03 22.37 22.07 22.05 22.25 22.15 22.12 22.48 22.98 22.57 21.99 21.60 21.58 21.98 21.99 22.17 23.20 24.50 25.35 26.31 25.93 24.52 24.25 25.12 27.98 32.03 29.21 29.29 28.74 29.07 30.95 32.14 35.28
21.58 21.31 21.86 21.84 21.79 22.38 22.26 22.02 21.67 21.26 22.63 22.81 21.79 22.27 22.56 22.65 21.83 22.29 22.52 25.57 26.22 24.57 23.20 24.28 27.06 32.60 30.19 30.14 26.58 26.63 29.55 32.85 32.80 30.60 30.74 29.23 29.41 30.36
21.39 21.10 21.59 21.75 21.62 21.78 21.69 21.48 21.02 21.08 21.17 21.53 21.82 22.26 22.55 22.97 22.64 23.11 23.64 23.80 24.20 25.00 25.94 28.31 29.61 29.82 28.89 27.32 25.61 26.53 27.83 30.13 32.95 33.95 34.35 34.05 30.61 27.35
20.81 20.87 20.91 20.95 21.21 21.51 21.41 20.92 20.37 20.22 20.82 21.16 21.41 22.01 22.85 22.30 23.53 24.23 25.04 25.93 26.67 27.78 27.98 27.11 28.16 29.22 28.01 27.73 28.32 27.45 27.55 28.28 29.59 29.74 31.20 35.50 35.99 35.95

GFSNE_sfc_wetblb_018.txt.gz
Wetbulb
33.88 33.58 33.37 33.87 33.60 32.91 32.29 30.98 27.47 25.02 26.05 27.18 28.03 32.89 32.39 32.75 34.51 35.31 33.90 38.32 40.54 41.47 41.89 41.66 41.30 41.38 41.71 42.31 42.71 42.88 43.05 42.98 43.34 44.11 44.61 45.15 45.53 46.26
34.62 32.91 32.44 32.64 32.03 31.76 31.06 30.63 29.30 26.51 24.63 28.54 29.81 29.56 31.21 34.38 35.81 35.20 33.67 38.32 39.14 40.33 40.20 40.03 39.92 40.14 40.55 41.12 41.41 41.73 42.15 42.33 42.94 43.86 44.48 44.96 45.15 45.49
33.24 32.99 32.49 32.33 31.00 30.26 29.67 29.33 28.25 27.48 25.68 28.29 30.13 30.99 29.63 30.12 32.15 32.14 34.02 33.19 34.24 38.69 39.03 39.28 39.25 39.65 40.00 40.31 40.47 40.97 41.29 41.79 42.20 42.98 43.71 44.13 44.49 44.53
32.41 32.14 32.02 34.43 29.53 29.24 28.33 27.56 27.16 27.34 26.98 25.95 29.01 29.41 28.43 29.79 31.17 30.61 33.93 35.01 33.06 36.27 38.10 38.28 38.55 38.65 38.99 39.30 39.60 39.82 40.11 40.58 40.86 41.31 41.94 42.53 42.66 43.04
32.14 31.17 30.83 30.24 28.24 27.75 27.30 26.82 27.71 30.66 28.25 27.31 26.79 29.15 29.30 30.21 30.38 32.29 30.74 30.49 32.04 35.15 36.38 36.86 37.39 38.08 38.22 38.65 39.07 39.25 39.00 39.08 39.22 39.40 39.65 40.16 40.88 41.57
33.16 32.16 30.93 30.03 28.79 27.37 28.27 27.43 29.29 27.44 27.73 26.81 26.62 27.24 28.33 30.29 29.81 26.94 26.54 27.39 27.82 31.10 32.87 34.69 36.36 36.18 36.99 37.29 37.07 36.77 36.81 37.40 38.05 38.62 38.91 39.02 39.04 39.79
30.73 31.22 31.14 33.01 35.73 34.38 31.98 28.27 28.46 27.44 26.15 25.50 27.47 27.33 28.62 26.25 25.54 26.31 24.96 26.03 26.74 28.19 28.50 28.49 28.90 29.31 29.82 33.32 33.83 35.07 35.85 37.23 37.82 38.34 38.91 39.32 39.27 39.67
28.21 29.01 29.99 33.30 32.65 35.51 35.42 35.45 33.77 29.51 26.98 26.91 28.62 25.32 25.37 25.61 23.60 24.68 24.53 23.41 22.79 29.14 24.52 25.90 27.94 26.95 28.46 29.63 34.00 35.55 36.15 36.74 37.32 37.97 38.31 38.93 39.31 39.64
27.90 28.48 29.44 32.26 32.20 29.29 32.35 34.12 33.19 34.42 34.13 30.08 26.04 25.75 24.74 25.21 24.66 24.52 25.89 27.13 25.43 26.66 25.97 23.76 27.31 26.19 28.30 29.78 33.42 34.78 35.78 35.95 36.78 37.52 37.99 38.58 38.91 39.36
27.74 28.05 27.29 27.24 28.46 30.73 29.13 26.79 27.82 28.56 29.26 29.51 27.92 27.11 27.01 29.14 30.02 30.22 28.16 26.04 26.23 26.87 26.69 22.91 26.50 25.06 27.02 27.90 33.12 33.81 34.60 35.68 36.75 37.49 37.84 37.84 38.25 38.70
28.17 27.95 28.39 27.65 32.86 34.61 30.18 24.64 26.79 26.53 31.12 32.43 32.56 33.29 33.78 33.45 32.36 28.51 24.82 22.98 22.55 24.16 26.66 24.72 24.25 24.11 25.26 25.54 27.31 32.59 33.78 34.90 34.70 35.71 36.34 37.26 37.64 38.36
26.24 27.31 32.38 31.23 33.72 34.20 29.76 27.75 24.46 24.72 25.22 26.19 27.30 27.38 28.54 26.85 31.30 27.06 25.56 22.33 21.91 21.07 24.67 23.79 23.40 24.00 20.78 24.84 25.15 26.80 26.88 31.35 33.09 34.19 35.23 36.11 36.65 34.23
25.61 25.76 26.98 32.57 33.29 33.64 33.40 26.50 25.79 28.57 28.62 25.73 24.34 24.57 25.03 25.09 25.38 25.82 25.86 24.62 23.31 22.17 25.99 26.03 23.96 23.57 23.19 21.54 23.97 25.88 26.35 26.83 27.30 28.75 32.66 34.34 35.68 35.99
25.57 26.17 26.33 32.34 32.53 32.18 30.45 30.63 31.14 30.90 24.38 23.62 23.18 22.90 23.05 23.16 24.13 24.82 25.29 24.95 25.72 25.32 26.74 27.42 24.84 24.08 22.87 21.70 20.97 25.00 26.15 26.98 27.30 27.49 28.93 32.49 34.86 36.12
27.07 29.97 31.58 31.46 30.74 28.39 29.35 30.32 29.62 22.90 23.08 22.32 22.87 22.57 22.79 23.59 23.99 23.61 24.14 24.68 25.15 26.17 27.33 26.49 25.66 25.37 24.85 22.93 22.52 23.84 24.99 26.44 28.37 27.95 28.67 29.75 30.23 32.10
29.29 24.98 28.74 28.87 29.07 27.55 25.61 24.63 23.13 23.47 23.76 22.80 22.23 23.34 24.32 23.72 22.38 23.10 22.81 22.87 22.28 22.60 25.95 26.39 25.73 26.18 24.84 24.94 25.01 24.24 25.72 24.64 28.61 29.05 30.06 31.01 31.79 32.41
28.75 23.80 22.14 20.93 20.76 21.64 21.95 22.11 22.50 22.73 22.29 22.62 22.51 22.57 22.54 22.30 22.47 23.24 22.63 22.77 21.58 20.86 21.86 24.45 25.89 25.84 25.95 25.18 24.02 25.43 25.87 26.81 29.04 29.23 28.48 28.53 29.94 30.89
24.82 20.19 18.51 19.01 19.71 20.45 20.60 20.82 21.59 22.29 21.64 22.23 21.92 21.60 21.38 20.88 21.03 22.52 23.22 21.15 20.34 21.08 21.56 22.79 23.16 23.28 24.56 25.78 30.32 26.38 27.42 26.88 28.16 28.94 28.88 27.20 27.82 30.67
20.08 18.12 17.77 18.72 19.18 19.63 19.53 20.04 19.71 20.84 21.81 21.40 21.15 20.73 21.02 21.34 22.08 20.36 20.80 21.23 20.70 21.04 21.38 22.59 23.97 23.85 21.22 20.25 26.35 32.99 27.58 27.70 27.69 27.24 28.30 28.73 28.17 30.02
20.21 19.02 17.30 18.54 19.08 18.87 19.25 19.74 20.49 20.70 20.51 20.12 20.51 21.72 21.18 20.74 20.34 20.40 20.85 20.73 21.34 22.48 23.86 24.61 23.95 24.66 23.93 24.37 25.35 27.85 32.09 29.10 29.13 28.35 28.16 29.87 31.67 34.46
19.52 18.30 18.33 18.56 18.69 19.13 19.62 20.11 20.31 20.04 21.39 21.31 19.75 20.47 20.83 21.17 20.55 21.22 21.47 24.84 25.58 23.40 22.46 23.76 26.50 32.41 30.21 29.36 26.24 25.88 28.99 32.84 32.45 30.14 30.12 29.13 28.32 29.82
19.33 17.97 18.52 18.31 18.68 19.20 19.49 19.84 19.59 19.57 19.31 19.46 19.72 20.56 21.06 21.34 21.13 21.76 22.32 22.14 22.64 24.39 25.08 27.19 29.46 29.08 28.26 26.55 24.93 25.60 27.63 29.77 32.40 33.52 34.10 33.17 29.97 27.57
17.08 17.92 17.80 18.18 18.90 19.01 19.25 19.16 18.76 18.82 19.10 19.42 19.40 20.08 21.06 20.94 21.94 22.23 22.80 23.87 25.10 26.00 27.61 26.83 28.07 28.53 27.40 27.60 27.84 26.94 26.96 27.16 28.33 28.83 30.40 34.91 35.34 35.42

GFSNE_sfc_wetblb_021.txt.gz
Wetbulb
32.89 32.88 32.61 32.88 32.42 31.57 31.00 29.91 26.59 22.85 24.34 25.41 26.40 29.74 30.32 31.00 33.33 34.62 33.21 37.58 40.03 40.57 41.10 41.44 41.38 41.12 41.55 42.07 42.68 43.05 43.22 43.74 44.04 44.48 45.09 45.44 45.89 46.55
33.42 32.07 31.42 31.62 31.06 30.71 29.92 29.26 27.91 25.17 22.46 25.71 26.99 27.42 29.27 32.65 34.29 33.82 32.08 37.20 37.96 39.63 40.40 40.05 39.76 40.19 40.73 41.03 41.43 41.91 42.33 42.46 43.33 44.16 44.92 45.22 45.62 45.97
32.29 32.09 31.78 31.46 30.44 29.66 28.51 27.91 26.80 25.59 23.42 25.78 27.07 28.24 27.25 28.18 29.91 30.85 32.45 32.00 33.18 38.27 38.62 38.77 39.14 39.29 39.65 39.92 40.33 40.91 41.23 41.81 42.45 43.01 43.93 44.25 44.58 44.84
31.97 31.38 31.24 33.63 28.92 28.36 27.42 26.34 25.53 25.80 24.39 24.53 26.66 27.56 27.26 27.72 29.27 29.12 31.37 33.98 33.00 35.28 37.13 37.63 37.87 38.07 38.33 38.79 39.57 39.70 40.05 40.42 40.94 41.55 41.99 42.51 42.76 43.34
31.29 30.33 30.19 29.40 27.82 27.07 26.43 25.74 26.45 29.25 26.64 25.85 26.13 28.37 27.94 29.10 28.78 29.72 30.61 29.57 31.14 34.33 35.57 35.99 36.79 37.23 37.94 38.30 38.38 38.52 38.52 38.54 38.78 39.05 39.45 40.25 41.03 41.77
31.29 30.85 29.93 28.91 27.65 26.71 26.84 26.65 27.81 26.07 25.76 25.92 25.83 25.92 27.27 28.89 29.20 26.47 25.95 27.12 26.78 29.95 31.95 33.61 35.47 36.23 36.25 36.50 36.57 36.10 36.03 36.68 37.55 38.29 38.77 39.26 39.75 40.65
30.30 29.79 29.80 32.05 35.28 33.93 31.29 27.66 26.77 26.12 25.58 24.19 24.90 25.95 27.08 25.49 24.51 26.05 24.47 25.58 26.42 27.61 27.35 27.65 28.15 28.47 28.90 32.34 32.85 34.01 34.99 36.64 37.51 38.06 38.55 39.12 39.48 40.12
27.28 27.92 28.40 32.78 32.16 35.32 35.25 35.14 33.58 27.56 23.24 26.37 26.19 25.48 24.51 24.59 22.82 24.68 24.12 23.36 22.83 28.88 24.61 26.26 27.80 26.62 27.53 28.32 33.08 34.94 35.59 35.95 36.71 37.40 37.70 38.16 38.84 39.47
26.90 27.14 28.20 31.11 31.43 27.69 31.65 34.26 33.62 34.45 33.88 29.67 25.59 24.68 24.06 25.18 24.56 23.66 25.77 26.58 25.74 27.05 26.14 24.09 26.82 25.39 27.69 29.25 33.17 34.01 34.88 35.65 36.03 36.56 37.26 38.17 38.88 39.31
26.64 26.25 25.55 25.44 27.12 30.00 28.09 27.44 28.20 27.79 28.05 28.83 26.71 26.20 26.35 28.56 29.81 28.79 26.68 25.55 25.71 26.31 26.31 22.16 25.93 24.82 26.91 27.17 32.17 33.31 34.06 34.70 35.42 36.06 36.75 36.77 37.05 37.92
26.67 26.69 27.46 26.60 32.15 34.04 29.75 24.45 25.36 25.81 30.43 32.40 32.75 33.30 33.54 32.93 31.50 27.53 22.96 21.49 20.67 22.53 25.25 22.82 23.53 23.53 24.90 25.11 26.83 32.03 33.16 33.81 33.99 34.41 35.02 35.64 36.18 36.77
25.68 26.72 31.26 30.56 33.26 33.84 29.55 26.06 23.70 23.75 24.83 25.39 26.08 26.83 27.67 26.16 30.40 25.95 23.73 20.98 20.77 19.90 23.54 22.68 23.02 23.52 21.09 24.43 24.79 26.07 26.04 30.43 32.28 33.39 34.10 34.54 35.03 32.55
25.31 25.48 26.46 32.14 33.03 33.48 32.93 26.56 25.81 28.69 27.99 23.22 23.46 23.85 24.46 24.66 25.08 25.31 25.00 23.18 21.66 20.78 24.65 25.06 23.35 22.82 22.97 21.75 24.21 25.45 25.84 26.30 26.43 27.80 31.78 33.05 33.87 33.80
25.34 25.43 25.83 31.91 32.04 31.65 29.74 30.58 31.18 29.53 23.62 22.83 22.46 22.49 22.86 22.66 23.21 23.91 24.62 24.06 24.16 23.09 24.34 24.49 22.74 22.82 21.95 20.68 20.07 24.08 25.06 26.09 26.47 26.25 27.05 30.58 33.57 34.93
25.81 28.88 31.47 30.88 29.67 26.96 28.63 29.46 28.57 22.41 22.19 21.29 21.59 21.37 21.83 22.83 23.37 23.29 23.56 23.82 23.47 24.77 26.04 24.80 23.74 23.47 23.26 21.43 20.86 22.05 23.73 25.21 26.74 26.29 26.21 28.35 28.89 29.33
28.49 25.76 27.90 27.21 26.93 26.16 24.47 23.92 22.70 22.50 22.34 21.73 21.22 22.17 22.92 22.17 21.75 22.62 21.77 22.35 21.48 21.56 25.15 25.27 24.03 24.03 22.88 23.42 23.30 22.69 24.52 22.90 25.65 27.09 27.48 29.20 30.14 31.23
28.31 23.08 20.69 20.12 19.67 20.65 21.24 21.51 21.72 21.93 21.15 20.94 21.07 21.05 21.17 21.37 21.29 21.99 21.60 21.55 20.69 20.37 20.74 23.29 24.92 24.65 24.19 23.90 22.09 22.93 23.48 24.11 25.72 26.39 27.56 27.55 28.84 29.97
22.47 19.05 17.89 18.19 18.57 19.16 19.47 19.59 20.21 21.11 20.25 20.71 20.32 19.98 19.75 19.65 19.89 21.32 22.59 20.89 19.43 19.99 20.91 21.94 22.24 22.15 22.53 24.72 28.38 23.97 24.99 25.72 26.88 27.24 28.31 26.84 27.01 29.67
19.43 17.20 16.64 17.35 17.89 18.41 18.29 18.03 17.75 19.29 19.97 19.99 19.23 18.81 18.94 19.42 21.24 19.60 20.24 20.42 19.90 20.34 21.03 22.42 23.47 23.56 20.63 18.96 25.91 32.64 27.98 28.03 28.09 27.89 27.77 27.85 27.50 29.52
19.21 17.93 16.13 17.41 17.78 17.49 17.45 17.47 18.23 19.08 19.35 19.21 19.50 20.20 19.87 19.33 19.21 19.35 19.87 19.84 20.37 21.62 23.30 24.48 24.21 24.72 23.69 23.63 25.18 27.76 31.72 28.72 28.50 27.64 28.21 29.61 31.00 33.81
18.39 16.97 17.34 17.15 17.10 17.12 17.20 17.11 17.63 18.38 20.43 19.72 18.02 18.86 19.28 19.74 18.98 19.66 20.25 23.92 24.82 22.66 21.32 22.65 25.83 31.78 30.14 29.42 25.67 25.76 28.44 32.14 31.93 29.64 29.52 28.20 27.53 28.83
18.15 16.85 17.33 17.23 16.51 15.75 16.32 17.49 17.72 18.09 17.85 17.93 18.15 18.91 19.48 19.65 19.34 19.86 20.78 20.96 21.55 22.64 23.56 25.66 28.61 29.13 28.24 26.25 24.06 24.53 26.22 28.55 31.39 32.63 33.31 32.37 29.46 26.51
16.30 17.36 17.22 16.61 15.93 15.99 17.33 17.52 17.55 17.35 17.73 18.17 18.58 19.07 19.39 19.15 20.51 21.31 21.78 22.64 23.39 24.44 26.72 25.79 27.08 27.66 26.22 25.39 26.17 24.98 25.08 25.70 26.90 27.74 29.18 33.82 34.71 34.91

GFSNE_sfc_wetblb_027.txt.gz
Wetbulb
34.44 34.39 31.80 31.78 31.71 31.20 30.73 29.59 27.08 23.28 23.02 24.92 25.45 27.06 27.81 28.51 31.05 32.01 29.92 35.77 38.56 39.30 39.86 40.37 40.62 40.83 41.42 42.03 42.52 43.20 43.85 43.58 44.28 44.56 45.46 45.85 46.21 47.10
34.33 33.47 31.95 30.89 30.35 30.05 29.48 28.93 27.86 25.95 22.54 24.55 25.05 25.42 27.13 30.59 31.47 31.97 30.41 35.75 36.30 37.83 38.34 38.64 39.27 39.86 40.30 40.82 41.49 41.75 42.09 42.74 43.06 44.03 44.98 45.36 46.14 46.26
33.69 32.29 32.49 30.66 29.77 29.37 28.77 28.58 26.74 25.27 22.84 23.94 24.66 25.90 25.57 26.71 28.54 28.78 29.83 28.60 29.62 35.98 37.27 38.11 38.56 39.04 39.52 39.72 40.06 40.67 40.96 41.59 42.36 43.31 43.96 44.41 44.85 44.97
33.04 32.91 32.48 32.55 29.24 29.56 28.81 26.49 25.81 24.96 23.88 21.92 23.51 24.90 25.15 26.42 26.73 26.17 29.23 31.33 30.25 33.98 36.51 37.28 37.83 37.90 38.28 38.77 39.08 39.46 39.88 40.42 40.63 41.01 41.51 42.11 42.76 43.18
32.45 31.54 31.04 29.66 28.57 27.81 26.76 25.73 25.20 27.38 24.43 23.86 24.20 25.17 25.41 25.58 25.67 26.51 26.53 27.80 29.57 33.16 34.93 35.40 36.14 36.85 37.51 38.17 38.45 38.53 38.41 38.52 38.80 38.95 39.34 39.95 40.73 41.46
32.14 31.57 31.07 30.66 28.50 27.46 26.30 25.36 25.90 24.76 24.54 24.33 24.43 23.17 23.93 25.82 25.42 24.84 24.71 26.23 26.08 28.77 31.33 33.10 35.01 35.73 36.11 36.62 36.58 36.37 36.26 36.70 37.54 38.14 38.30 38.57 39.10 39.94
31.09 30.77 30.20 30.44 33.80 32.41 29.37 26.85 26.14 25.46 24.69 21.72 23.50 21.60 23.36 25.08 24.40 25.26 23.70 24.79 25.26 26.66 26.60 26.44 26.43 27.53 28.38 32.21 32.76 33.98 34.46 35.65 36.74 37.69 38.41 38.82 38.96 39.26
29.03 28.43 27.68 30.30 30.35 33.98 34.73 35.17 32.51 25.10 20.46 19.50 17.44 22.96 24.23 24.03 24.37 24.04 23.71 22.84 22.24 26.84 24.25 25.36 27.04 26.00 26.93 27.35 32.22 34.18 35.46 36.34 36.86 37.29 37.33 37.92 38.36 38.53
28.19 27.30 27.50 29.07 29.02 26.78 30.72 33.39 32.83 34.40 34.06 28.81 25.05 24.27 23.94 25.19 25.18 24.06 24.66 24.26 24.62 25.91 25.20 22.70 25.41 24.03 26.23 27.65 32.67 33.98 35.03 35.57 36.13 36.58 36.82 37.19 37.60 37.92
26.82 24.85 24.66 25.46 26.66 28.92 27.83 26.34 27.05 27.33 27.54 27.53 25.96 26.43 26.54 27.47 27.75 28.10 27.07 24.55 24.96 25.37 24.36 19.70 24.23 23.16 25.42 25.99 31.55 33.22 34.17 34.92 35.51 36.09 36.62 36.83 36.93 37.10
26.12 25.49 26.32 25.78 30.72 33.32 28.55 24.21 25.80 26.03 30.18 32.69 32.90 33.28 33.61 33.40 31.80 26.85 22.13 21.01 19.65 21.59 24.24 21.82 21.73 22.13 24.09 24.55 26.22 31.72 33.24 34.16 34.80 35.17 35.48 35.68 35.77 36.06
24.94 25.89 29.76 29.06 32.27 33.32 27.97 25.18 22.62 22.88 24.16 24.32 24.36 24.62 26.60 25.03 29.97 25.41 20.56 18.29 20.00 19.33 22.10 20.20 21.90 22.62 19.56 22.89 23.67 24.22 25.81 30.44 32.17 33.22 33.96 34.50 34.80 31.90
25.18 25.20 26.00 30.91 32.52 33.14 32.26 23.82 24.42 26.96 25.37 21.45 21.92 22.20 23.12 23.30 23.69 24.07 24.14 19.03 20.54 20.30 24.24 24.79 21.13 21.72 21.48 19.80 22.49 24.05 24.39 24.85 25.03 26.52 30.63 31.93 32.73 32.54
25.29 25.37 24.93 31.37 32.04 31.05 28.29 29.05 29.94 28.75 21.88 21.18 20.93 20.87 21.18 20.98 21.59 22.29 23.18 22.81 23.33 22.66 23.78 24.07 21.26 19.14 19.47 18.61 18.24 22.55 23.68 24.42 24.68 24.44 25.05 28.47 31.40 32.95
26.18 28.58 31.53 30.28 28.63 25.56 27.13 28.22 27.51 20.61 20.67 19.60 19.89 20.13 20.41 20.65 21.04 21.07 21.76 22.52 22.26 22.94 24.80 24.30 23.55 23.07 22.40 20.10 19.43 20.52 21.87 23.37 24.57 23.93 24.29 24.25 24.32 25.31
28.15 24.15 26.15 25.57 25.35 24.67 22.91 22.41 21.41 20.97 21.02 20.56 19.68 20.61 21.42 20.43 20.15 21.01 19.68 20.34 20.12 20.28 23.12 24.26 23.66 23.16 21.63 22.08 21.82 20.47 21.72 20.69 23.45 24.33 24.57 24.86 25.55 26.19
25.46 20.65 18.76 18.25 17.86 18.49 19.23 19.76 19.87 20.02 19.24 19.21 18.80 19.36 19.77 19.70 19.48 20.07 19.52 19.41 18.71 18.80 19.10 21.88 23.68 24.11 23.91 23.03 20.89 21.93 22.45 22.56 23.90 23.85 23.72 23.42 25.16 26.16
20.91 17.28 16.01 16.32 16.46 16.95 17.29 17.56 18.10 18.89 17.80 17.82 17.70 17.61 17.48 17.47 17.82 19.60 20.49 18.33 17.53 18.22 18.82 20.45 21.21 21.36 22.69 24.91 28.08 23.02 23.61 23.50 24.69 25.57 26.44 24.71 25.30 28.75
17.64 15.45 14.88 15.40 15.92 16.20 16.24 15.54 15.26 16.47 15.74 16.21 16.38 15.88 16.66 17.53 19.64 17.19 17.67 18.09 18.11 18.76 19.38 20.52 21.92 22.31 19.16 17.72 24.95 31.18 26.58 27.85 28.16 27.51 28.11 27.79 26.75 28.27
17.29 16.05 14.26 15.63 15.84 15.52 15.34 15.05 15.69 15.86 15.87 15.88 15.95 17.79 17.58 16.47 16.68 17.25 17.92 18.07 18.11 19.77 21.66 22.92 22.36 23.33 22.19 21.98 23.42 26.24 30.92 28.10 27.79 26.48 26.07 27.35 28.65 32.41
16.38 15.08 15.53 15.57 15.45 15.65 15.46 14.61 13.98 14.29 17.15 18.16 15.92 16.31 18.04 17.85 17.53 18.15 18.64 23.07 23.94 21.57 20.86 22.01 24.26 30.36 28.56 28.05 23.81 24.02 27.18 31.20 30.96 28.20 27.98 26.67 25.43 26.14
16.45 15.20 16.06 16.05 15.56 14.97 14.55 14.60 14.24 14.85 15.04 15.56 16.25 18.29 19.42 20.30 20.14 20.62 20.43 20.36 20.77 21.60 22.16 24.08 27.33 27.49 26.56 25.13 22.98 23.20 24.75 27.02 29.89 31.53 32.14 30.77 27.16 24.19
14.98 15.80 15.81 15.85 15.35 14.59 14.71 14.44 14.99 14.73 15.12 15.55 17.57 19.12 19.96 20.37 22.15 22.59 22.15 22.23 22.44 23.10 26.45 26.40 27.74 27.75 26.68 25.78 25.58 24.43 24.17 25.13 26.16 25.91 28.01 32.85 33.60 33.68

GFSNE_sfc_wetblb_030.txt.gz
Wetbulb
36.07 35.28 34.89 34.48 32.96 34.09 32.74 30.35 27.95 23.84 23.72 26.91 26.47 27.35 27.45 28.11 30.76 31.60 29.97 35.42 38.33 38.77 39.45 39.95 39.95 40.32 41.10 42.01 42.68 43.18 43.46 44.00 44.58 44.87 45.52 45.76 46.61 47.31
35.77 34.48 34.15 33.06 33.30 33.07 32.17 30.36 28.64 26.61 23.95 25.37 25.92 25.61 26.81 30.01 30.86 31.53 29.98 35.88 36.11 37.38 38.02 38.31 38.71 39.45 40.25 40.89 41.54 41.94 42.42 42.78 43.50 44.05 45.13 45.27 46.09 46.46
34.85 34.51 33.51 33.22 32.35 30.55 30.13 28.76 27.92 26.82 23.86 24.47 24.82 25.26 25.06 26.12 28.09 28.05 29.35 27.81 28.43 35.59 37.03 37.70 38.22 38.88 39.56 40.01 40.27 40.65 41.25 41.75 42.42 43.40 44.22 44.95 45.23 45.20
34.12 33.93 33.23 33.51 31.74 31.33 30.42 27.41 26.31 25.07 24.56 22.18 23.23 24.10 24.74 26.12 26.18 25.79 28.89 30.82 29.16 33.48 36.20 37.19 37.72 37.87 38.17 38.67 39.14 39.59 39.95 40.61 41.00 41.50 42.04 42.54 43.17 43.34
34.73 33.70 32.71 32.04 30.41 29.76 29.41 27.68 25.98 27.73 24.06 23.57 23.26 24.69 24.88 25.24 25.03 25.39 25.67 26.39 29.07 32.82 34.83 35.17 35.80 36.59 37.43 38.11 38.66 38.65 38.66 38.93 39.09 39.32 39.94 40.46 41.05 41.64
33.06 32.38 31.84 31.51 30.82 30.08 28.99 27.14 26.37 24.96 24.12 23.84 23.81 23.07 23.81 25.42 24.82 24.76 24.14 25.26 25.59 28.46 31.10 32.51 34.67 35.37 36.12 36.80 36.82 36.57 36.63 37.02 37.75 38.47 38.89 39.05 39.29 39.99
31.72 31.24 31.06 31.80 33.12 32.27 30.17 27.93 26.83 25.31 24.89 21.26 22.91 22.07 22.18 24.13 24.31 25.24 23.72 24.51 24.94 26.31 26.01 25.92 26.28 26.81 28.23 32.03 32.69 33.87 34.25 35.60 36.95 37.91 38.44 38.93 39.11 39.55
29.77 28.92 28.91 30.60 31.29 33.41 34.16 34.77 31.51 25.14 21.15 19.18 17.48 22.48 23.58 23.99 22.57 23.49 23.37 22.54 22.72 25.98 23.38 25.47 26.88 26.11 27.04 27.19 31.88 33.97 35.50 36.45 36.91 37.41 37.91 38.09 38.36 38.65
28.70 28.24 28.76 29.61 29.30 26.74 30.09 33.20 32.77 34.28 33.82 27.35 24.73 23.79 23.51 23.99 23.26 22.06 24.08 24.67 23.97 26.11 25.36 22.86 25.41 24.17 26.32 27.32 32.40 33.83 35.06 35.73 36.26 36.80 37.18 37.59 37.73 38.12
28.59 26.92 26.41 26.56 27.65 28.43 27.72 27.04 27.42 27.21 27.60 27.81 26.02 26.03 25.60 26.25 26.84 27.76 26.29 24.55 24.62 25.35 24.55 19.84 24.40 23.41 25.41 25.75 31.37 33.02 34.18 35.13 35.74 36.29 36.79 37.07 37.12 37.20
27.15 26.48 26.89 26.23 30.03 32.58 28.67 24.28 25.81 25.86 29.82 32.30 32.43 32.76 32.89 32.83 31.37 26.06 21.29 19.95 19.50 21.21 23.79 21.68 21.77 21.77 23.98 24.60 26.20 31.74 33.22 34.01 34.65 35.07 35.37 35.56 35.86 36.28
25.02 26.38 29.48 28.43 31.78 32.78 28.47 25.97 22.41 22.59 23.81 23.91 23.54 24.06 25.61 24.15 29.62 24.78 18.57 16.50 19.20 18.15 21.57 19.88 20.99 21.75 18.86 22.87 23.97 23.72 25.29 29.91 31.69 32.77 33.72 34.22 34.43 31.81
24.87 24.84 25.85 30.21 32.12 32.75 32.38 23.64 24.10 26.62 24.45 20.75 20.98 21.45 22.41 22.42 22.93 23.34 23.58 16.49 19.71 19.44 23.56 24.48 18.10 21.33 21.25 19.98 22.46 23.90 24.19 24.52 24.56 26.03 30.04 31.39 32.20 32.11
25.35 25.44 25.02 30.95 31.41 30.63 27.80 28.94 29.58 27.51 20.99 20.39 20.19 20.11 20.51 20.23 20.90 21.67 22.66 22.08 22.37 21.87 23.06 23.10 20.37 18.05 19.04 18.12 18.03 22.58 23.55 24.41 24.51 24.22 24.75 27.90 30.85 32.41
26.12 28.51 30.53 29.25 27.57 24.33 26.38 27.39 26.17 19.55 19.86 18.88 19.22 19.31 18.63 19.32 19.89 20.22 20.79 21.61 21.15 21.96 23.94 22.83 22.37 21.60 21.08 19.36 18.85 20.16 21.58 23.43 24.52 23.77 24.07 23.91 24.11 24.94
27.88 23.31 25.52 24.65 24.33 23.61 21.86 21.36 20.34 20.04 20.44 19.93 18.83 19.79 20.48 16.99 19.39 20.35 18.83 19.56 18.89 19.54 21.81 21.87 20.80 21.27 19.96 20.81 21.24 20.13 21.85 20.67 23.28 24.08 24.21 24.63 25.43 25.99
24.05 19.76 17.89 17.36 16.79 17.50 18.12 18.69 18.83 19.14 18.36 18.32 17.74 17.90 18.66 18.89 18.78 19.41 18.76 18.55 17.68 18.23 18.69 21.48 21.81 22.09 22.71 22.13 20.27 21.30 21.66 22.20 23.78 23.85 24.01 23.60 25.45 26.64
19.85 16.30 15.04 15.26 15.46 16.02 16.50 16.86 17.28 18.02 16.98 16.77 16.27 15.73 16.07 16.35 16.74 18.69 20.27 18.37 16.86 17.59 18.13 19.83 20.38 20.23 21.54 24.44 27.87 22.63 23.14 23.29 24.90 25.82 26.87 25.21 25.52 28.69
16.69 14.49 13.88 14.42 15.06 15.45 15.27 14.16 14.26 15.53 12.64 13.94 13.85 14.24 15.81 15.54 18.82 17.44 18.02 18.42 18.09 18.73 19.17 19.92 20.33 21.69 19.15 17.23 24.72 31.15 26.21 27.07 27.12 26.65 27.05 26.79 26.35 28.18
16.45 15.23 13.40 14.64 15.11 14.96 14.89 14.65 14.99 14.91 14.57 14.21 13.42 14.51 17.39 16.96 15.67 17.88 19.88 19.58 18.12 19.24 21.28 22.51 21.32 21.56 21.26 21.37 23.24 26.28 30.69 27.21 27.00 26.16 25.67 27.18 28.51 32.12
15.64 14.23 14.74 14.49 15.02 15.76 15.69 14.12 12.55 13.02 15.57 16.66 15.01 15.64 17.31 18.01 18.24 20.31 21.38 25.18 25.50 22.63 21.19 21.85 23.97 30.30 27.87 27.40 24.16 24.38 27.69 31.28 30.54 27.84 27.78 26.52 25.03 25.78
15.71 14.49 15.20 14.62 14.61 14.83 14.45 13.83 13.43 13.83 13.83 13.58 14.44 16.75 18.27 18.84 19.58 20.69 21.91 22.35 22.11 22.24 22.64 23.75 26.10 28.64 28.19 26.80 24.91 25.32 26.18 28.36 30.78 31.60 32.12 31.06 27.22 23.25
14.25 14.72 13.96 13.33 11.75 11.53 14.11 13.76 14.14 13.99 14.85 14.52 15.00 16.08 17.46 17.52 20.10 21.60 22.74 23.76 24.01 23.27 23.64 26.60 27.84 28.47 27.45 27.52 27.68 26.69 26.19 26.33 27.47 26.94 28.64 32.98 33.74 33.78

GFSNE_sfc_wetblb_033.txt.gz
Wetbulb
41.54 39.84 39.36 36.82 37.06 35.95 35.90 36.52 36.34 33.36 32.48 32.18 34.20 34.95 36.02 36.24 36.11 37.50 37.05 36.27 38.77 39.23 39.51 39.80 39.94 40.31 41.06 41.76 42.57 43.31 43.85 44.11 44.73 45.47 46.01 46.51 46.79 47.62
38.67 36.63 35.94 35.94 35.53 35.36 35.73 34.03 34.30 33.32 31.92 33.87 33.82 33.97 34.56 34.78 35.63 36.95 36.17 36.38 37.15 37.90 38.20 38.37 38.74 39.34 40.08 40.88 41.61 42.32 42.85 43.23 43.84 44.67 45.22 46.14 46.39 47.11
36.75 35.65 35.02 34.52 34.54 33.79 33.50 32.22 32.17 32.40 31.47 32.98 32.93 33.46 32.97 34.09 34.88 35.84 35.54 35.34 35.34 36.33 37.23 37.66 38.32 39.07 39.71 40.22 40.61 41.04 41.58 42.21 42.75 43.27 44.19 44.94 45.66 45.86
36.03 35.45 34.47 35.38 33.91 33.55 32.95 31.66 31.32 30.60 30.33 30.34 31.29 31.94 31.57 33.37 33.66 33.10 33.72 34.42 34.39 34.82 36.10 37.19 37.98 38.12 38.34 38.83 39.31 39.87 40.28 40.72 41.20 41.71 42.14 42.89 43.29 44.00
35.87 35.27 34.07 33.72 32.55 32.13 31.56 31.30 30.47 30.67 29.51 29.61 30.10 30.82 31.68 32.50 32.60 32.96 32.58 33.04 32.64 33.76 34.97 35.64 36.17 36.77 37.60 38.36 38.78 39.09 39.21 39.38 39.61 39.81 40.31 40.81 41.43 42.15
34.57 34.07 33.59 33.27 32.74 32.13 31.68 31.24 30.94 29.54 29.74 29.16 29.42 30.49 30.90 32.33 31.58 30.15 29.55 31.64 30.89 32.23 33.32 33.96 35.22 35.73 36.55 36.99 37.06 36.83 36.75 37.05 37.84 38.61 39.03 39.19 39.55 40.41
33.26 32.91 32.27 32.38 33.34 32.87 32.08 30.88 30.54 29.87 29.85 30.55 29.72 29.58 29.60 29.96 29.39 30.32 28.33 29.25 30.21 31.56 31.12 31.71 31.96 32.27 32.89 34.14 34.04 34.45 34.81 35.84 36.96 37.93 38.83 39.43 39.55 40.09
30.43 30.92 31.38 32.92 33.28 34.81 35.32 35.19 33.59 31.31 30.72 29.54 29.81 28.41 29.23 29.39 29.65 28.40 27.94 26.86 24.70 32.54 29.73 29.42 31.73 30.64 31.71 32.49 33.66 34.42 35.52 36.47 37.08 37.52 38.16 38.67 38.81 39.06
30.92 30.27 30.28 31.72 31.51 30.06 30.83 32.37 33.05 34.00 34.28 32.51 29.49 29.07 28.38 29.62 29.71 27.79 28.33 27.78 25.98 29.88 29.83 26.83 30.33 28.93 31.51 31.56 33.34 34.07 35.09 35.75 36.43 36.99 37.47 38.02 38.34 38.53
29.95 29.54 29.85 29.77 29.95 30.51 31.16 31.09 31.32 31.04 31.01 30.75 31.16 30.93 31.13 31.29 30.56 30.10 29.40 28.85 28.86 29.41 29.68 23.81 29.70 28.70 30.83 31.28 32.90 33.54 34.25 35.09 35.72 36.36 36.91 37.17 37.33 37.60
29.10 29.34 29.23 29.22 30.08 31.77 31.46 30.11 29.56 29.68 30.70 31.90 32.07 32.54 32.84 32.73 32.11 29.60 27.13 25.45 23.36 25.51 28.72 25.72 27.06 27.37 28.48 28.95 30.92 32.62 33.45 34.24 34.80 35.19 35.56 35.77 35.91 36.34
28.71 28.82 29.75 30.37 31.17 32.34 31.68 29.94 26.52 27.04 27.94 28.24 28.27 28.15 28.42 27.70 29.47 28.39 26.87 23.41 22.69 22.40 27.63 24.69 26.05 25.77 23.46 29.12 30.09 30.66 30.15 31.61 32.43 33.06 33.75 34.31 34.48 32.75
27.82 27.72 28.75 30.15 31.78 32.63 31.92 27.29 27.00 29.49 27.02 25.58 25.56 25.77 26.34 26.59 27.08 27.17 26.74 25.31 22.51 22.54 26.95 26.03 25.29 24.80 23.50 23.12 26.52 28.71 29.19 29.37 29.60 30.20 31.33 31.94 32.40 32.35
27.67 28.64 28.87 30.85 30.79 29.72 28.41 28.40 29.17 28.27 25.00 23.82 23.62 24.08 24.67 24.86 25.67 25.93 25.88 25.83 26.13 24.60 26.50 26.03 22.92 22.84 21.98 21.27 21.33 26.74 28.72 29.74 29.73 29.01 30.06 30.79 31.79 32.69
29.06 29.69 29.53 28.16 27.06 25.04 25.74 26.80 26.01 23.42 22.80 22.17 22.53 23.57 24.27 24.46 24.26 24.59 25.44 25.71 25.11 25.47 26.40 25.76 24.16 23.95 23.06 21.70 21.76 23.52 24.57 27.13 28.44 28.15 29.38 28.91 29.17 29.71
28.67 26.95 26.24 24.81 23.70 23.76 22.84 22.83 22.95 23.03 23.18 23.00 22.11 22.83 23.40 23.45 23.54 24.68 23.31 24.16 23.11 24.63 27.76 26.83 25.68 24.68 22.72 23.69 23.44 22.56 25.38 23.29 27.54 28.62 29.35 29.08 29.93 30.38
25.46 23.13 21.63 20.79 20.40 20.48 20.99 21.54 22.08 22.14 21.76 21.74 20.69 20.56 20.97 22.00 22.53 23.71 22.84 22.99 21.80 22.69 23.79 26.21 28.09 26.97 26.13 24.49 21.85 23.75 23.75 25.52 27.89 28.41 28.04 27.03 29.04 30.39
22.42 19.83 19.24 19.17 18.74 18.98 19.23 19.87 20.49 20.74 20.59 20.12 19.94 19.55 19.22 19.85 20.55 22.40 24.05 23.17 22.24 22.86 23.21 24.99 25.52 24.68 25.29 27.08 28.45 24.59 27.14 27.76 29.60 30.39 29.79 27.23 27.90 31.38
19.69 18.89 18.18 18.32 18.58 19.07 19.25 19.16 18.80 19.75 18.75 18.71 18.35 18.14 18.63 19.08 20.59 21.11 21.87 22.36 23.46 24.75 25.30 25.68 24.30 24.05 21.62 20.26 27.33 31.62 27.81 29.32 29.71 29.12 29.76 29.08 27.88 29.70
18.70 18.12 18.15 18.56 18.91 18.99 19.08 18.84 19.02 18.87 18.60 18.27 18.26 18.18 18.14 20.01 20.33 20.64 21.60 22.56 23.54 24.94 26.38 27.91 26.91 25.93 23.60 22.86 24.81 28.62 31.35 29.06 29.39 28.85 29.15 30.82 31.53 32.81
17.89 18.24 18.58 18.65 18.74 18.93 18.96 18.42 17.66 17.19 18.63 19.83 18.97 17.87 18.90 19.74 19.94 21.00 22.48 24.86 25.92 25.31 24.51 25.31 27.88 30.90 29.24 28.78 25.85 27.70 30.79 32.92 32.47 30.61 30.43 29.28 28.04 28.69
17.91 18.04 18.45 18.68 18.48 18.04 17.81 17.66 17.76 18.13 18.34 18.13 18.24 18.48 18.91 19.85 19.96 20.56 21.73 22.19 23.31 24.88 25.52 27.36 29.04 28.70 29.41 27.80 26.17 27.25 28.68 31.04 32.76 33.16 33.25 32.09 29.50 26.37
18.03 17.97 18.22 17.94 17.61 16.79 16.23 16.60 17.07 17.81 17.97 17.97 19.28 19.12 18.91 18.77 20.70 21.38 22.35 23.10 24.22 25.01 26.14 26.73 29.79 30.28 29.25 28.24 27.47 27.65 27.54 28.22 29.60 29.26 30.48 33.60 33.76 33.62

GFSNE_sfc_wetblb_036.txt.gz
Wetbulb
50.37 47.23 43.17 41.17 41.16 39.93 39.26 41.37 39.60 35.42 35.39 38.30 38.43 39.84 39.57 39.22 38.94 39.36 39.83 39.67 39.42 40.27 40.78 40.54 40.33 40.62 41.30 42.00 42.62 43.40 44.03 44.33 44.72 45.49 46.19 46.49 47.02 47.75
47.45 42.84 39.89 38.44 38.00 37.88 36.68 35.63 36.76 35.33 32.27 33.80 35.38 34.99 36.92 37.19 38.75 38.05 39.17 38.12 38.63 39.35 39.57 39.26 39.26 39.64 40.28 40.97 41.72 42.47 43.04 43.56 44.26 44.91 45.75 46.13 46.55 46.98
41.35 39.24 36.82 37.30 35.76 35.57 35.14 34.40 33.61 34.25 32.46 31.84 32.91 33.27 33.28 33.97 36.55 37.91 38.49 37.86 38.03 38.53 38.73 38.64 38.61 39.05 39.91 40.56 40.95 41.41 41.84 42.46 42.99 43.90 44.62 45.02 45.50 45.62
40.78 39.21 37.88 36.56 35.06 34.99 34.96 33.69 33.16 32.41 31.91 30.32 31.54 31.68 31.83 33.81 34.64 34.84 35.69 36.50 36.75 37.43 37.83 37.78 38.35 38.85 39.10 39.43 39.65 40.11 40.53 41.04 41.59 42.26 42.94 43.18 43.57 44.20
37.08 37.47 36.19 35.07 33.69 33.72 32.92 32.45 32.03 32.80 31.51 30.93 31.54 32.65 32.37 33.19 32.52 34.31 35.45 35.94 35.99 36.25 36.93 36.96 37.42 37.87 38.34 38.68 39.12 39.52 39.62 39.73 40.04 40.36 40.77 41.28 41.95 42.69
36.71 36.56 36.83 34.67 33.47 33.09 33.08 32.40 32.67 32.77 32.33 31.20 31.18 31.81 32.47 33.18 33.20 31.89 32.15 34.72 33.62 34.61 35.70 36.57 36.59 36.80 37.40 37.69 37.86 37.69 37.72 38.05 38.48 38.98 39.36 39.51 39.77 40.57
34.82 34.31 34.14 34.96 36.23 34.56 34.15 32.60 32.46 31.36 31.82 31.97 31.11 31.38 31.01 31.22 31.52 33.33 30.99 31.79 32.66 34.06 33.64 34.64 34.84 35.12 35.68 36.79 36.59 36.54 36.68 37.01 37.48 38.25 39.01 39.52 39.71 40.24
31.97 32.26 32.89 34.14 34.84 36.08 36.63 35.76 34.28 33.37 32.38 31.22 31.06 30.11 31.16 32.21 32.65 31.43 30.26 28.83 26.84 34.23 32.44 31.88 34.54 33.56 34.81 35.57 36.64 36.67 36.73 37.18 37.54 37.92 38.30 38.90 39.14 39.45
31.78 31.50 32.42 33.61 32.78 31.75 32.79 33.73 34.55 35.77 36.04 33.90 31.24 31.48 31.32 32.10 31.89 29.92 29.48 28.78 27.97 31.54 32.21 29.36 33.06 31.80 34.61 35.39 36.50 36.36 36.49 36.59 36.82 37.19 37.61 38.09 38.52 38.87
31.73 32.08 31.67 31.12 31.68 31.22 31.37 31.57 32.03 32.72 33.51 33.43 33.07 33.00 33.10 33.20 32.54 32.12 31.02 30.31 31.34 32.41 33.25 27.78 31.86 31.05 33.81 34.74 36.00 35.99 35.93 36.15 36.41 36.74 37.14 37.35 37.53 37.87
31.36 31.77 31.37 30.85 30.73 32.09 32.10 31.75 31.59 32.33 33.74 32.80 32.75 32.74 33.11 33.41 33.15 31.37 28.61 28.19 26.71 28.55 31.97 29.09 30.15 30.37 31.91 32.93 34.08 35.14 34.92 35.10 35.36 35.90 36.18 36.21 36.38 36.73
30.89 31.08 30.23 30.94 30.95 32.15 32.67 31.92 29.83 30.23 30.77 30.53 31.20 31.35 31.38 30.83 30.71 30.47 29.95 26.44 25.61 24.58 31.57 27.45 28.34 28.44 25.88 31.56 32.67 33.32 33.29 34.54 34.57 34.80 34.92 35.04 35.16 33.53
29.79 29.75 30.74 30.32 31.64 32.62 32.01 31.17 29.36 30.62 30.22 29.06 29.05 29.01 29.56 30.07 30.54 30.96 30.43 28.61 25.21 24.85 29.93 29.30 27.61 27.43 26.62 26.27 29.60 31.71 32.04 32.73 33.16 33.50 34.07 34.24 34.09 33.71
29.37 30.62 31.10 30.82 30.89 30.04 29.48 29.04 29.46 29.61 28.83 27.07 26.57 27.24 28.26 29.17 30.14 30.17 29.79 29.63 29.56 28.06 29.87 29.56 25.47 25.76 24.69 23.03 23.92 29.18 31.31 32.21 32.28 31.48 33.04 33.20 33.74 34.22
30.83 30.68 29.61 28.37 27.64 27.18 26.49 27.27 27.19 26.77 25.90 25.29 26.03 27.49 28.90 29.21 28.72 28.31 29.85 29.57 29.04 28.84 28.97 28.68 26.36 25.29 24.08 23.10 23.55 25.37 26.21 29.09 30.63 30.33 31.10 31.60 31.97 32.02
29.73 30.24 27.49 25.72 24.46 25.12 25.01 25.62 25.95 26.29 26.01 26.30 26.43 27.04 27.59 27.32 27.20 28.76 27.54 28.09 27.38 28.34 33.00 31.36 29.88 28.01 24.46 24.95 24.99 24.30 26.54 24.36 29.20 30.31 31.11 31.22 31.76 31.12
28.75 27.07 25.31 24.69 24.38 24.56 24.85 25.26 25.96 26.08 25.34 26.23 25.23 24.89 24.87 25.57 26.19 27.99 27.08 26.33 24.88 26.17 28.89 30.61 32.31 31.11 29.48 27.49 24.42 25.77 25.45 26.28 29.24 29.46 29.23 28.76 31.03 31.99
25.80 23.82 23.55 23.66 22.98 23.16 23.26 24.13 25.09 24.85 25.31 24.95 24.52 24.30 23.66 23.79 24.29 25.88 26.65 26.08 25.40 26.54 26.54 28.06 28.47 27.87 28.77 29.88 30.93 27.31 28.58 28.71 30.74 31.62 31.28 29.12 29.68 32.78
23.17 23.11 22.30 22.50 22.81 23.30 23.91 24.02 23.75 24.82 24.08 23.30 23.56 23.15 22.84 22.66 23.20 23.86 25.22 25.61 25.95 26.98 26.93 28.43 28.51 27.80 24.79 23.19 29.82 33.37 28.97 30.01 30.30 29.90 30.93 30.50 29.50 31.58
22.12 21.64 22.26 22.76 23.12 23.53 23.99 23.91 24.04 24.18 24.16 23.78 23.37 23.21 22.71 22.17 22.23 23.14 24.46 24.29 25.20 26.32 26.72 28.08 28.79 28.95 26.89 25.82 26.21 29.50 32.10 29.95 29.79 29.40 30.11 31.91 33.11 34.77
21.66 21.73 22.67 22.83 23.35 23.86 23.93 23.88 23.29 22.75 23.15 22.75 23.05 22.56 22.88 22.67 22.21 23.04 23.93 25.26 25.82 25.64 24.49 26.04 29.46 32.61 31.24 30.57 26.73 27.75 31.72 33.06 32.60 30.96 31.25 29.98 29.26 30.12
21.61 21.77 22.40 22.83 23.10 23.35 23.44 23.12 22.65 22.82 23.08 23.31 23.26 23.54 23.71 23.56 22.53 22.67 23.11 23.31 23.22 24.20 24.31 27.28 29.66 30.27 30.03 28.16 27.76 28.49 29.33 31.14 33.15 33.63 33.74 32.88 29.89 27.22
21.94 22.11 22.34 22.65 22.86 22.73 22.45 22.03 21.66 22.06 22.36 23.01 23.16 23.39 24.13 22.88 23.65 23.68 23.07 23.17 23.27 24.13 25.32 25.95 28.78 30.00 30.79 30.35 29.79 29.30 28.63 28.99 29.64 29.29 30.75 34.26 34.22 34.03

GFSNE_sfc_wetblb_039.txt.gz
Wetbulb
53.26 51.84 50.64 49.04 46.02 42.20 42.79 42.48 42.13 34.27 36.27 37.52 35.81 38.98 39.46 39.04 39.73 38.87 38.80 40.64 41.55 41.68 41.91 41.93 41.71 41.73 41.82 42.41 42.95 43.61 44.05 44.38 44.89 45.66 46.33 46.82 47.47 47.92
52.56 51.59 48.09 42.73 40.99 39.38 38.38 38.17 38.56 37.88 34.28 35.15 34.76 35.02 37.10 37.76 38.25 37.62 37.01 39.18 40.16 41.02 41.27 40.95 40.73 40.87 41.01 41.24 41.64 42.46 43.24 43.69 44.42 45.24 46.09 46.34 46.82 47.19
47.61 45.49 41.23 40.17 38.76 38.29 36.96 36.76 35.50 36.20 33.61 32.13 33.50 33.82 34.06 34.77 35.71 36.40 36.88 36.29 36.69 39.53 40.20 40.38 40.42 40.36 40.12 40.50 41.17 41.82 42.35 42.94 43.44 44.17 44.78 45.43 45.96 46.01
43.50 41.40 39.09 39.30 36.18 36.76 36.53 34.37 34.13 34.37 34.23 31.90 32.73 32.53 32.67 32.87 33.36 33.77 35.12 36.26 35.72 37.66 39.15 39.60 39.52 39.60 39.65 40.12 40.34 40.70 41.00 41.46 41.92 42.46 43.03 43.63 44.25 44.83
41.17 39.44 36.75 36.36 35.46 34.80 34.49 33.57 33.48 34.03 33.14 32.93 32.02 32.77 32.92 34.06 33.61 34.36 34.28 34.95 36.24 37.87 38.94 38.72 38.69 38.90 39.36 39.61 39.94 40.20 40.46 40.65 40.82 40.89 41.15 41.58 42.25 43.01
38.06 37.50 37.16 36.44 35.12 34.12 33.90 33.05 32.73 32.12 32.01 31.65 31.98 32.49 32.89 34.24 33.70 31.80 31.50 34.00 33.20 35.24 36.29 36.86 38.19 38.63 38.75 38.99 39.10 38.90 38.86 39.10 39.50 39.84 40.00 40.10 40.32 40.99
35.99 35.88 35.60 36.24 37.03 35.95 34.11 32.86 32.83 32.43 32.36 31.95 31.75 31.72 31.66 31.57 30.78 32.42 30.90 31.20 31.64 32.77 32.01 32.69 33.12 33.25 34.25 36.87 37.08 37.79 38.14 38.35 38.56 38.94 39.51 39.87 40.07 40.52
33.33 33.62 34.90 36.12 37.09 37.71 37.13 36.53 35.41 33.27 32.84 32.75 31.89 29.68 30.44 31.20 31.82 30.64 29.97 28.37 25.87 32.29 29.89 29.86 32.70 31.68 32.74 33.53 37.23 37.94 38.20 38.32 38.45 38.56 38.92 39.29 39.39 39.67
32.31 32.13 32.37 34.36 33.62 32.98 34.83 35.09 36.18 36.38 35.55 33.41 31.23 30.91 30.28 31.27 30.92 29.39 28.57 28.06 27.12 29.87 29.76 27.54 31.26 30.13 32.60 34.15 37.22 37.80 37.97 38.07 38.12 38.17 38.29 38.53 38.81 39.00
32.00 31.95 31.84 31.55 31.68 31.24 31.14 31.71 32.13 32.43 32.80 33.31 32.15 31.74 31.77 32.22 31.39 30.85 29.91 29.54 30.09 30.57 31.26 26.48 30.35 29.41 31.77 32.51 36.86 37.44 37.58 37.67 37.65 37.54 37.71 37.96 38.16 38.29
31.49 31.64 31.33 30.94 31.89 32.26 31.62 31.84 30.73 30.92 34.53 33.72 33.48 33.61 33.59 33.83 33.48 30.37 27.49 25.95 25.09 26.91 29.87 27.39 27.53 27.81 29.65 30.02 31.66 36.14 36.97 36.94 37.00 37.19 37.30 37.21 37.14 37.36
31.04 31.22 30.76 31.01 31.31 32.09 31.61 31.34 29.45 29.36 29.68 29.19 29.05 30.40 31.45 30.54 32.48 29.35 27.59 24.50 26.06 24.83 28.01 25.63 25.55 26.28 25.15 28.59 29.59 30.34 30.48 34.90 36.08 36.43 36.33 36.50 36.55 33.63
29.26 28.89 29.98 30.84 32.00 32.52 32.14 30.04 28.91 29.90 28.87 27.49 27.21 27.06 27.19 27.84 28.39 28.91 28.86 26.80 26.09 24.81 28.43 28.30 24.54 25.31 25.99 25.18 27.61 28.97 28.95 29.16 30.08 31.50 34.71 35.07 35.34 34.69
28.70 29.47 30.23 31.12 30.78 30.41 29.62 30.17 29.81 29.43 27.04 26.06 24.81 24.80 26.03 27.64 28.98 30.16 30.18 29.90 29.83 28.26 28.53 29.05 25.89 24.79 23.61 22.56 21.95 25.45 26.68 27.96 28.21 27.96 29.20 32.35 34.18 35.04
30.23 30.58 30.00 29.17 28.86 28.11 28.22 27.73 27.96 25.58 24.72 23.70 24.16 25.97 27.79 28.36 27.00 26.79 28.66 29.18 28.80 28.87 29.00 27.61 27.09 26.24 24.86 22.38 22.08 23.25 24.40 25.58 27.02 26.56 27.40 28.30 29.03 30.71
30.18 30.26 28.13 27.51 27.06 26.07 25.74 25.68 25.01 24.81 24.59 24.56 24.78 25.58 26.15 25.78 25.83 27.68 26.95 26.91 26.55 26.66 28.86 30.13 29.40 28.28 25.83 25.67 25.02 23.75 25.39 23.80 26.39 26.51 26.98 27.98 28.93 29.57
28.17 27.25 25.27 24.29 23.69 24.13 24.22 24.50 24.84 25.17 24.42 25.16 25.22 24.78 24.96 25.04 25.30 26.94 26.49 25.97 24.07 23.61 25.13 28.72 31.29 31.24 29.96 27.96 25.31 25.79 25.82 26.30 27.79 27.67 27.80 27.42 28.73 29.19
25.13 23.87 22.98 23.25 22.73 22.89 23.00 23.68 24.76 25.49 25.11 25.43 24.47 23.96 23.53 23.47 23.15 23.92 24.48 24.27 24.09 25.00 25.31 27.10 27.74 27.15 27.67 29.23 31.63 26.65 26.99 26.86 28.21 29.06 29.71 28.17 28.44 31.20
22.98 22.60 21.96 22.31 22.44 22.90 23.37 24.51 23.95 24.98 25.83 23.80 23.58 23.52 23.52 22.57 22.61 22.40 23.00 23.59 23.77 24.28 25.19 26.97 26.89 25.68 23.40 22.08 27.12 34.09 27.65 27.90 27.95 27.60 28.18 28.27 27.97 29.41
22.62 21.43 21.46 22.36 22.55 22.77 24.04 23.87 24.04 24.16 24.20 24.11 23.42 22.87 22.84 22.95 22.42 22.06 22.42 22.29 22.45 23.16 23.64 25.48 25.91 25.58 24.69 24.29 25.55 28.72 32.68 28.48 27.14 26.82 27.45 30.04 31.50 34.28
21.93 21.46 21.93 22.17 22.42 23.11 24.15 23.92 23.95 22.97 23.34 23.17 22.65 22.37 22.58 22.68 21.86 22.23 22.43 24.53 24.73 23.62 22.16 22.89 24.76 30.77 28.86 28.25 25.26 25.55 28.50 32.72 31.92 29.20 29.12 28.22 27.48 28.35
21.82 21.37 21.93 22.28 22.33 22.44 22.77 23.51 22.84 22.49 22.31 22.25 22.98 23.16 23.35 23.47 22.47 21.99 21.88 21.38 21.63 22.31 22.59 24.31 25.79 26.29 26.30 25.92 24.83 25.68 27.89 30.73 33.14 34.37 34.24 32.98 28.68 25.21
21.48 21.78 21.98 22.19 22.41 22.26 21.98 21.76 21.42 21.33 21.52 21.29 21.23 21.56 22.79 21.90 22.84 23.25 22.76 22.33 22.12 22.56 23.03 23.05 24.58 26.03 26.22 26.28 27.76 28.26 28.67 29.09 29.28 28.89 30.23 34.30 34.33 33.86

GFSNE_sfc_wetblb_042.txt.gz
Wetbulb
55.60 53.78 49.94 49.26 48.71 47.53 46.93 47.25 45.71 36.32 35.38 36.78 37.09 38.80 39.22 38.80 41.47 38.42 36.78 40.18 42.38 42.40 42.71 43.14 43.08 42.92 43.06 43.41 43.73 44.04 44.33 44.71 45.05 45.75 46.38 46.86 47.43 48.15
52.61 51.41 50.20 45.35 44.30 44.27 42.81 42.18 43.42 41.41 35.56 36.32 35.14 36.27 38.04 38.48 39.82 37.82 37.45 38.86 39.97 41.70 42.30 42.48 42.55 42.30 42.19 42.56 42.76 42.73 43.15 43.76 44.42 45.31 46.06 46.52 47.09 47.39
49.06 48.61 43.14 42.15 40.91 39.83 39.28 38.89 38.45 39.42 36.44 32.48 33.68 34.49 34.36 35.22 36.58 37.02 37.47 37.05 37.26 40.24 41.05 41.36 41.53 41.54 41.57 41.75 41.78 42.03 42.57 43.19 43.66 44.19 44.89 45.48 45.96 45.96
43.74 42.17 40.42 40.10 38.99 38.49 37.21 36.16 36.52 37.43 37.02 32.66 32.88 32.76 33.67 34.64 34.82 34.25 35.57 36.68 35.96 37.83 39.56 40.24 40.69 41.05 41.01 40.85 40.67 41.28 41.59 41.73 42.19 42.58 43.20 43.85 44.27 44.63
41.72 40.15 39.27 37.89 36.28 36.06 36.18 35.67 35.90 35.83 35.06 35.09 32.51 32.71 32.48 33.48 33.67 34.24 34.07 34.23 35.40 37.63 39.36 39.88 39.33 39.27 39.64 40.15 40.71 40.80 40.82 41.01 41.40 41.52 41.72 42.05 42.45 42.94
38.15 37.91 37.44 36.88 35.87 35.61 35.76 33.84 33.65 33.24 33.22 33.13 32.54 32.43 32.99 33.83 33.42 32.04 30.61 32.83 31.72 35.08 35.61 36.40 37.72 38.19 39.11 39.40 39.37 39.24 39.06 39.35 39.91 40.34 40.53 40.57 40.74 41.36
36.15 36.51 36.49 37.58 37.63 36.60 34.78 33.35 33.37 32.47 32.40 31.87 31.66 31.66 31.57 30.24 29.17 30.43 29.35 29.20 29.00 30.14 28.20 28.37 29.13 29.88 31.40 35.63 36.38 37.22 37.61 38.52 39.25 39.65 40.05 40.42 40.53 40.77
32.82 32.91 34.21 36.61 38.69 39.14 38.12 37.04 35.13 33.03 32.14 31.68 31.06 27.78 27.84 28.15 28.51 27.05 25.63 23.71 21.89 28.33 25.97 27.43 28.46 28.95 29.18 29.87 35.88 37.50 38.30 38.89 39.16 39.42 39.68 39.98 39.96 40.18
32.19 32.19 32.80 34.49 33.71 33.08 36.89 37.05 36.76 36.89 35.50 32.07 28.81 28.11 27.08 27.11 27.19 25.33 25.51 23.29 23.32 26.65 25.82 25.81 26.94 27.13 28.71 32.20 36.17 37.15 37.88 38.45 38.83 39.03 39.15 39.34 39.46 39.73
31.76 31.70 31.34 31.34 31.84 31.52 31.43 31.64 31.42 30.93 31.21 31.98 28.82 28.51 28.55 29.19 28.25 26.38 26.17 25.44 26.49 26.72 26.75 22.60 25.08 26.15 27.99 27.66 35.19 36.38 36.91 37.55 38.18 38.38 38.47 38.58 38.63 38.72
31.58 31.97 31.55 31.33 32.95 33.10 30.09 28.33 28.01 28.10 33.94 34.57 33.64 33.98 34.10 33.88 33.03 26.77 21.20 18.70 20.83 23.53 25.99 24.04 24.21 24.23 25.47 27.32 27.69 34.68 36.01 36.34 36.46 36.90 37.54 37.84 38.00 38.14
29.14 29.26 31.52 30.00 31.99 32.52 29.48 27.29 26.15 25.27 26.23 26.40 26.06 27.37 28.99 27.48 32.61 27.11 22.35 13.60 14.63 17.19 24.71 20.52 22.84 23.63 19.93 25.83 25.72 27.82 27.77 32.61 34.38 34.54 35.28 36.00 36.47 33.77
25.32 25.46 27.20 31.92 32.43 32.59 32.09 25.66 26.24 27.42 26.82 23.72 23.51 23.28 23.31 23.26 23.86 24.47 25.36 18.01 12.70 21.44 27.29 27.39 14.10 18.61 24.68 24.30 25.80 25.85 26.20 25.88 26.26 28.16 31.75 32.84 33.73 33.81
25.31 25.57 27.41 31.37 30.59 30.53 28.80 30.05 30.02 28.78 23.30 22.49 21.45 20.76 20.56 20.65 22.26 23.80 27.29 26.50 27.19 26.06 27.10 28.74 25.14 22.55 23.79 22.72 22.19 24.61 25.08 25.99 25.92 25.63 26.56 29.69 32.33 33.63
26.41 28.99 29.89 29.70 29.38 26.05 28.11 28.77 28.36 21.37 21.18 20.21 21.01 19.53 19.45 19.82 19.38 19.87 21.95 28.19 28.56 28.72 29.62 29.02 26.85 25.60 25.50 23.53 23.17 24.20 25.43 25.98 26.81 25.75 24.77 25.57 25.88 26.81
28.24 25.14 27.92 28.17 27.67 26.04 24.82 23.65 22.17 21.10 20.99 20.43 20.87 22.52 22.88 18.38 19.21 20.41 19.58 26.37 25.88 26.49 29.84 29.93 26.48 25.36 25.21 26.06 25.70 24.31 25.37 24.21 24.86 26.77 26.71 26.76 27.06 27.56
26.39 23.13 21.66 20.54 19.52 20.82 21.03 21.25 21.27 21.84 20.72 20.94 22.03 23.02 24.01 23.80 23.97 25.36 25.08 25.20 23.94 23.74 24.45 26.72 29.15 30.03 30.18 29.01 26.35 26.13 25.67 25.53 26.45 26.10 26.39 26.43 27.73 28.48
22.84 20.09 17.94 17.97 18.48 19.93 20.61 21.12 22.01 24.65 24.34 24.20 24.03 23.18 22.64 23.00 23.02 23.65 24.29 23.39 22.21 22.94 23.83 25.56 26.42 26.57 27.30 28.30 31.29 26.84 26.97 27.31 27.91 27.89 27.80 26.94 27.49 29.33
19.68 17.47 16.89 17.55 17.96 18.35 17.52 16.36 22.59 23.98 24.72 24.03 22.88 22.76 23.32 23.02 22.91 22.12 22.15 22.09 21.46 22.51 23.75 25.18 24.83 23.94 21.27 20.19 25.55 32.70 26.90 27.29 27.32 28.02 28.06 27.39 26.91 27.91
20.16 18.43 15.67 17.38 17.42 15.84 15.18 17.06 23.12 23.60 23.35 23.45 23.13 22.97 22.63 22.15 21.88 21.55 21.67 21.04 20.68 20.57 20.69 21.90 23.68 23.90 22.61 21.87 22.76 26.07 31.64 27.10 26.15 25.63 26.27 27.81 29.30 32.99
19.33 16.72 17.16 16.22 15.52 14.64 14.97 13.84 21.81 22.79 23.10 22.88 22.90 22.48 22.20 21.97 21.45 21.36 20.54 23.89 24.39 22.49 20.12 19.89 21.86 28.64 27.00 26.67 22.54 23.23 26.19 31.13 30.81 27.46 27.75 27.39 27.26 28.73
19.20 16.94 17.30 16.31 14.71 10.36 11.45 12.65 14.78 18.11 18.05 16.08 17.37 18.03 19.92 19.95 20.60 20.70 20.86 20.35 20.41 20.43 20.71 22.31 24.45 24.89 23.95 22.49 21.43 22.70 24.00 27.00 30.65 32.87 33.67 33.00 28.92 26.10
16.52 17.23 15.51 14.01 11.07 11.42 10.96 13.47 15.44 17.69 17.55 16.53 17.42 17.90 18.35 18.27 20.35 21.27 21.40 21.44 21.20 20.92 21.46 21.91 23.07 24.32 23.32 23.14 23.90 23.69 24.65 25.42 27.45 28.32 30.03 34.23 34.54 34.14

GFSNE_sfc_wetblb_045.txt.gz
Wetbulb
54.96 54.85 52.79 51.21 50.12 48.65 48.93 48.55 46.69 42.99 38.02 38.05 38.72 39.98 40.06 41.50 43.52 40.08 40.22 42.15 42.71 43.72 44.25 45.18 44.51 44.44 44.66 44.84 44.96 45.07 45.15 45.16 45.23 45.85 46.42 47.06 47.62 48.36
53.76 53.20 50.34 48.52 48.47 47.12 46.17 45.70 46.11 44.69 39.96 38.23 37.15 38.16 40.51 41.53 42.70 39.32 38.94 40.72 41.98 42.99 43.47 43.97 44.18 44.00 44.20 43.98 43.86 44.00 44.06 43.99 44.43 45.30 46.18 46.83 47.22 47.63
50.00 50.30 46.12 45.05 42.74 41.61 41.37 41.68 42.22 42.93 41.17 33.83 34.87 35.74 35.69 37.84 39.29 38.07 38.50 38.12 38.17 41.12 42.77 44.13 43.91 42.95 42.67 42.81 42.72 43.02 43.06 43.34 43.74 44.45 45.13 45.70 46.18 46.43
45.11 43.24 41.15 41.27 39.42 39.25 38.94 38.10 38.62 38.81 37.54 33.99 33.49 33.36 34.48 35.71 36.22 35.69 36.95 38.42 37.87 39.40 41.01 41.22 41.27 41.47 42.04 42.06 41.63 41.50 41.41 42.03 42.39 42.92 43.40 43.97 44.53 44.98
41.70 41.07 39.62 38.72 37.36 37.12 37.16 37.03 37.11 37.62 35.99 35.44 32.67 32.72 32.06 33.36 33.59 34.93 34.92 35.03 35.88 37.63 39.53 40.22 40.74 40.10 40.06 40.09 40.55 41.06 41.24 41.22 41.41 41.61 41.69 42.25 42.58 43.33
38.14 38.05 37.78 37.58 36.72 36.22 35.60 34.50 34.15 34.25 34.14 34.13 32.73 32.41 33.21 33.94 34.07 32.72 32.19 33.35 32.58 35.24 36.48 36.19 37.46 38.00 38.40 38.85 39.40 38.78 38.74 39.13 39.68 40.21 40.59 40.85 41.12 41.63
36.26 36.90 37.24 38.11 38.38 37.32 35.31 33.87 33.79 33.15 33.30 32.73 32.14 32.08 31.98 31.88 31.11 31.79 30.63 29.76 28.72 29.46 27.97 28.10 28.23 28.97 30.02 34.26 35.41 36.51 36.87 37.79 38.91 39.79 40.42 40.74 40.87 41.16
33.31 33.80 34.97 36.00 38.42 39.69 38.47 37.27 35.78 33.48 32.43 32.03 31.48 30.30 30.43 29.82 29.21 28.80 26.63 23.12 21.69 27.14 26.01 26.58 27.42 26.92 27.75 28.25 35.01 36.66 37.67 38.45 38.85 39.47 39.82 40.25 40.39 40.40
32.33 32.33 32.53 33.86 33.23 32.17 35.97 36.92 36.68 37.34 35.59 33.10 29.61 29.06 27.54 26.80 25.21 24.19 25.90 23.11 23.06 26.02 26.01 25.02 26.64 26.34 27.87 30.79 35.49 36.40 37.20 37.89 38.48 38.84 39.17 39.59 39.83 39.98
30.63 28.90 30.56 30.31 31.79 31.80 31.43 31.29 31.03 30.65 30.61 31.68 30.62 28.34 27.12 27.79 27.81 26.26 25.85 25.06 26.06 26.41 26.46 20.04 24.37 24.88 27.00 26.73 34.36 35.48 35.97 36.85 37.72 37.76 37.81 38.07 38.38 38.79
27.84 29.19 29.36 29.34 32.80 32.79 29.88 28.54 28.13 27.98 32.47 35.26 33.76 34.00 34.13 34.43 32.76 26.08 20.63 17.77 19.98 22.94 25.22 23.50 23.41 23.53 24.66 24.55 26.28 33.31 34.19 34.72 35.13 35.60 36.14 36.32 36.47 37.14
26.30 26.52 32.24 29.53 33.04 33.35 27.30 24.97 24.26 23.93 25.34 25.43 24.62 25.87 27.47 26.19 31.99 26.42 21.68 13.06 12.59 13.74 23.93 20.11 22.21 23.10 19.11 24.37 25.16 25.95 25.84 30.98 32.76 33.26 33.67 34.11 34.44 31.03
24.02 24.53 26.77 32.28 32.29 32.26 31.64 24.67 25.71 26.92 26.06 22.97 22.70 22.30 22.09 22.08 23.03 23.57 24.54 15.57 9.26 14.42 25.31 26.00 20.21 24.41 25.10 20.84 24.46 24.78 24.66 24.77 24.89 26.94 30.99 32.20 32.79 32.80
25.16 25.96 26.48 31.28 30.58 30.59 28.63 29.71 29.58 27.96 22.57 22.01 20.97 20.09 19.76 19.06 20.76 22.11 25.85 22.45 21.83 23.56 26.32 28.83 25.17 23.83 23.21 22.15 22.38 24.48 24.75 26.09 24.76 25.23 24.29 29.02 32.19 33.38
25.77 28.91 30.23 29.96 29.42 26.37 27.63 28.54 27.86 20.83 20.59 19.57 20.64 18.54 17.84 18.16 17.40 18.26 20.25 23.59 22.64 25.67 29.58 28.10 27.10 26.66 25.25 23.21 23.04 23.53 24.71 24.56 25.93 25.78 25.13 23.04 24.35 25.91
28.08 23.80 27.44 28.65 27.85 25.99 24.14 23.28 21.76 20.74 20.28 19.78 20.32 21.96 22.50 17.43 18.37 19.34 16.79 20.60 20.58 21.97 26.42 29.71 28.76 27.62 24.95 24.39 24.73 23.77 24.89 23.56 25.00 26.75 26.28 26.62 26.99 27.27
26.19 22.11 21.00 20.07 19.04 20.35 20.75 20.96 21.24 21.82 20.21 20.13 20.80 21.97 23.67 23.90 23.69 25.09 24.66 23.43 21.46 20.79 21.82 25.46 28.39 28.45 27.62 26.23 24.65 26.23 25.79 25.94 27.71 27.18 26.22 26.00 28.10 28.83
23.23 19.82 17.69 17.37 17.83 19.30 19.82 20.26 20.98 21.75 23.34 24.23 24.04 23.10 21.97 22.35 22.32 23.72 24.21 22.81 20.87 20.28 20.59 21.77 23.44 24.43 25.04 26.12 30.35 26.35 26.58 26.43 27.67 27.48 27.77 26.59 26.74 29.48
20.41 17.29 15.98 16.35 16.84 17.30 16.02 14.10 14.34 20.72 24.29 23.93 23.45 22.97 22.99 23.02 22.49 21.01 21.20 21.58 20.12 20.26 20.59 21.07 20.08 20.60 18.43 17.10 23.08 30.28 24.20 25.25 25.21 25.73 27.58 26.79 25.47 27.12
19.36 17.68 14.67 16.01 15.93 14.57 13.25 13.15 15.16 17.77 22.79 22.82 22.76 22.41 22.29 21.86 21.04 20.90 20.93 19.55 19.04 19.16 18.86 19.64 19.31 20.05 19.42 18.92 20.49 23.49 29.37 24.85 24.54 23.98 24.19 25.99 27.64 31.65
18.53 16.05 16.25 15.34 14.40 13.51 13.85 10.70 9.42 14.03 16.18 18.15 17.96 14.99 15.85 13.12 19.28 19.58 19.97 23.04 23.69 22.18 20.02 19.37 21.38 27.16 24.95 24.73 20.79 20.64 23.68 28.79 28.54 24.87 24.93 25.05 24.74 25.98
18.38 16.06 16.31 15.02 13.04 9.59 9.73 10.24 11.21 14.60 15.08 15.60 14.63 14.72 14.74 14.72 17.42 18.11 19.37 19.43 19.93 20.32 20.21 21.52 22.41 21.58 21.11 20.54 19.11 20.14 22.05 24.77 28.23 30.03 31.25 30.20 26.00 23.46
15.84 16.08 14.75 12.62 8.99 7.81 7.23 9.75 12.28 14.64 14.94 15.54 15.32 16.04 15.34 15.86 18.15 19.26 19.62 20.14 20.35 19.78 19.86 19.66 21.07 22.34 22.05 22.09 22.57 22.09 22.11 22.42 23.73 23.92 26.16 31.44 32.68 33.01

GFSNE_sfc_wetblb_048.txt.gz
Wetbulb
54.16 55.50 53.07 52.94 51.77 51.27 50.55 49.68 48.53 43.97 40.67 40.46 39.44 40.72 41.66 43.86 45.96 44.03 44.65 47.20 47.18 46.61 46.33 45.83 46.03 46.70 46.57 46.55 46.89 47.08 47.16 46.72 46.45 46.52 46.97 47.50 48.12 48.72
53.98 53.74 52.94 49.89 49.23 48.61 47.87 47.56 47.22 47.00 42.76 39.56 38.62 39.06 41.09 42.74 45.24 42.00 42.21 45.21 45.64 45.69 46.03 45.89 45.74 45.57 45.50 46.06 46.57 46.26 45.59 45.48 45.65 45.92 46.59 47.22 47.70 48.24
47.99 49.11 47.04 46.10 44.87 44.15 43.68 43.36 43.16 43.31 42.48 37.22 36.32 36.64 37.28 39.84 41.60 39.28 40.85 40.37 40.61 44.70 45.24 44.82 44.40 44.72 45.64 45.64 44.43 44.31 44.31 44.43 44.70 44.91 45.65 46.24 46.68 47.03
43.78 43.00 41.21 41.83 40.03 39.87 39.77 39.49 39.78 40.23 39.30 35.95 34.22 34.26 35.01 36.99 36.97 36.80 38.01 39.01 38.26 40.00 42.30 42.87 43.72 44.03 43.28 43.05 43.10 43.29 42.68 42.48 42.60 43.16 43.84 44.36 44.96 45.35
40.27 40.19 39.53 39.34 38.32 37.94 37.73 37.49 37.14 37.98 36.14 35.97 33.05 33.30 32.82 34.09 33.02 34.86 35.11 36.36 37.69 39.13 41.06 41.79 41.96 42.20 42.65 41.91 41.14 41.00 41.26 41.73 42.11 42.01 42.22 42.49 43.02 43.68
37.72 37.62 37.48 37.24 36.77 36.33 35.51 34.56 34.53 34.73 34.58 34.55 33.61 33.02 33.17 33.24 33.89 33.40 32.92 34.75 34.33 36.18 37.07 38.03 38.21 38.22 38.94 39.19 39.07 39.42 39.41 39.09 39.67 40.37 40.57 40.99 41.34 41.99
35.81 37.05 38.40 39.30 39.77 38.44 35.81 34.16 33.96 33.36 32.98 32.88 32.71 32.58 32.48 32.21 31.48 33.20 31.83 31.55 31.11 31.55 29.74 28.57 28.58 28.95 29.55 34.02 34.88 36.51 37.39 37.67 38.26 39.16 40.16 40.89 41.23 41.43
33.36 33.41 34.83 36.01 37.29 40.42 39.46 38.60 37.00 33.89 32.60 32.17 31.55 30.50 30.79 31.15 30.96 30.06 28.26 25.21 22.51 27.05 25.67 25.59 27.38 27.38 28.04 28.01 33.86 36.12 37.13 37.95 38.96 39.26 39.72 40.21 40.49 40.62
31.02 29.06 31.08 33.05 32.63 32.52 35.26 36.23 36.33 37.89 36.65 32.52 29.87 28.18 27.05 26.67 26.15 22.88 24.30 20.67 21.97 24.98 25.33 24.68 26.04 26.21 27.27 29.74 34.88 35.85 36.83 37.63 38.27 38.71 39.08 39.45 39.82 40.05
23.05 21.80 22.59 26.50 31.49 31.83 27.83 28.06 28.43 28.32 29.00 30.73 29.50 27.69 27.30 27.08 26.63 24.34 24.53 23.52 25.52 25.98 26.17 19.34 23.45 23.85 25.68 26.01 33.35 35.09 36.16 36.76 37.27 37.77 38.05 37.96 38.10 38.50
25.77 26.66 26.87 26.77 32.58 33.69 27.41 25.71 25.61 25.74 31.21 34.54 33.06 33.26 33.65 33.73 32.00 25.61 19.97 16.44 19.34 22.57 24.61 23.10 22.95 23.22 24.39 24.13 25.92 33.76 34.45 34.27 34.60 35.22 35.94 36.15 36.29 36.72
24.12 24.98 32.69 30.36 33.61 33.77 26.23 24.53 23.36 23.89 25.04 25.43 24.48 25.30 26.55 25.51 30.91 25.99 21.16 11.64 11.88 14.02 23.14 19.76 21.94 22.75 17.64 23.47 25.03 25.45 25.42 30.94 32.93 33.87 34.32 34.67 34.80 30.51
24.16 24.88 26.63 32.64 32.30 31.83 31.39 24.49 25.49 26.61 25.70 22.45 22.07 21.55 21.48 21.49 22.74 23.45 23.94 14.35 7.35 11.61 24.05 23.97 20.84 25.49 24.47 21.64 24.02 24.75 24.26 25.09 25.23 27.45 31.82 33.56 33.94 33.13
25.42 25.93 26.04 31.26 30.95 30.70 27.96 29.72 29.95 28.15 21.84 21.14 20.53 19.64 19.26 18.18 20.31 21.42 24.89 21.71 20.48 20.01 23.27 24.17 25.13 24.32 22.93 22.49 22.31 24.03 24.03 24.14 24.65 25.39 25.32 29.00 32.59 34.08
25.72 28.79 30.97 30.95 30.34 26.75 27.73 28.83 26.42 20.62 20.10 18.78 19.78 17.68 16.98 17.20 16.08 17.33 19.45 22.19 20.43 22.23 26.79 27.39 26.88 26.34 25.58 23.57 22.97 24.00 24.79 22.96 24.35 24.89 25.10 23.85 24.63 24.44
28.08 23.33 26.57 27.35 27.09 25.39 23.53 22.81 21.54 20.54 19.78 18.64 19.57 21.47 22.12 15.86 18.27 21.64 22.52 24.12 16.54 21.14 23.83 23.38 28.03 27.60 25.33 25.56 25.10 22.80 23.21 22.24 21.12 22.98 23.32 26.23 26.57 26.60
26.56 22.20 20.17 19.32 18.77 19.76 20.31 20.74 21.02 22.00 19.79 19.72 20.16 21.68 23.44 23.54 23.19 20.77 24.02 23.84 19.42 17.91 19.70 21.16 23.98 24.34 25.68 24.34 23.29 23.95 23.63 24.28 26.46 27.32 27.52 26.44 28.03 29.17
23.93 19.76 17.09 16.70 17.07 18.52 19.00 19.26 19.73 20.89 20.10 23.43 23.43 23.57 22.77 22.50 22.63 23.65 23.14 19.07 19.30 19.21 18.81 18.66 15.74 17.00 19.91 22.87 28.53 24.45 25.25 25.68 26.80 27.18 26.88 25.68 25.70 27.62
19.78 17.41 15.49 15.47 15.76 16.35 15.21 12.80 12.57 15.80 14.44 20.23 23.18 22.72 22.70 22.62 22.07 20.71 19.18 19.75 19.50 19.18 19.18 19.39 9.19 11.94 16.40 15.06 20.63 29.05 22.33 22.99 23.42 23.20 24.59 24.69 24.23 25.90
18.80 17.14 14.25 15.26 15.22 13.89 12.33 11.59 12.64 14.62 14.65 16.29 14.32 21.23 21.97 21.50 20.73 18.70 18.26 16.74 17.36 17.95 18.06 19.32 18.85 18.36 17.09 16.74 18.37 22.14 28.00 22.98 22.43 22.05 22.58 24.59 26.12 29.98
18.54 15.74 15.87 14.92 14.07 13.14 12.77 9.37 7.30 10.50 11.23 8.55 8.76 11.38 11.37 10.10 14.72 16.12 17.04 21.61 21.73 19.73 18.66 18.84 21.64 27.22 24.24 23.45 19.64 19.61 22.79 27.81 27.16 23.55 22.77 22.46 22.74 24.11
17.84 15.75 15.93 14.64 12.96 9.61 8.67 8.15 8.96 12.39 12.29 11.05 11.14 10.75 11.44 10.10 13.44 14.74 15.99 15.83 17.01 17.82 18.39 19.86 20.96 20.79 20.52 19.55 17.84 18.18 20.02 23.26 27.03 28.94 29.68 28.58 24.14 21.17
15.66 15.71 14.49 12.43 9.85 7.62 6.00 7.67 9.94 11.98 12.09 12.49 12.64 13.12 10.97 12.27 15.07 16.40 17.19 17.85 18.08 17.98 18.39 18.44 19.95 21.27 20.54 20.27 21.17 20.67 20.65 21.33 22.60 22.32 23.90 29.15 29.98 30.94

GFSNE_sfc_wetblb_051.txt.gz
Wetbulb
55.89 55.23 53.28 51.33 50.61 51.40 51.23 50.57 48.71 44.24 42.66 43.23 41.09 40.92 41.46 41.46 44.98 46.77 46.63 49.45 50.85 50.93 50.45 49.97 48.82 48.88 48.73 48.83 48.80 48.93 49.08 49.36 49.57 49.35 49.20 48.75 48.70 49.25
51.44 52.16 52.02 49.63 49.55 49.09 48.45 48.24 47.95 47.51 43.24 42.45 39.69 39.09 40.92 42.91 45.29 44.36 45.22 48.62 49.85 49.53 48.86 47.98 47.42 47.12 47.34 47.78 47.46 47.34 48.00 48.30 47.83 48.18 48.56 48.59 48.46 48.79
45.72 45.63 43.53 44.00 43.33 42.74 42.88 42.72 42.84 43.14 41.56 39.46 37.67 37.54 38.27 40.52 40.99 40.54 42.96 41.56 44.21 47.53 47.55 47.08 47.14 46.59 46.17 45.95 46.43 47.39 47.17 46.57 46.64 46.78 47.18 47.19 47.52 47.60
42.34 42.42 40.97 41.99 40.33 40.03 39.98 39.39 39.40 40.09 38.99 37.48 35.08 35.20 35.47 37.25 37.68 38.23 39.74 40.46 39.68 41.06 44.18 44.66 44.90 44.57 44.69 45.54 45.25 44.76 44.43 44.91 44.58 44.16 44.33 44.87 45.47 45.91
38.06 37.35 37.60 38.41 37.86 37.87 37.65 37.09 36.85 37.48 36.28 36.26 34.22 34.04 33.62 34.96 34.00 35.18 36.15 36.80 38.61 39.35 41.17 42.96 43.63 43.75 43.64 44.16 44.30 44.12 42.75 42.07 42.24 42.52 43.24 43.42 43.72 44.20
36.98 36.77 36.57 36.91 36.57 35.86 34.91 34.75 34.72 34.75 34.83 34.83 34.03 33.38 33.87 33.48 34.14 33.77 33.19 34.82 35.07 37.75 38.61 39.46 39.20 39.32 40.43 40.32 40.17 39.91 39.83 40.47 40.71 41.05 41.27 41.42 41.48 42.10
35.73 36.32 37.85 40.12 40.72 39.05 35.83 34.31 34.33 33.74 33.76 33.44 33.33 33.42 33.12 32.70 31.87 33.33 32.16 32.80 32.80 33.38 30.99 30.22 29.61 29.44 29.33 33.42 34.72 36.31 37.23 38.27 39.22 39.59 39.86 40.44 40.88 41.55
32.79 32.69 34.65 35.82 36.26 40.06 40.03 39.69 37.54 32.66 32.48 32.18 31.59 30.52 30.66 31.13 31.62 30.97 29.49 26.70 23.36 27.03 25.42 25.92 27.29 27.08 27.21 27.75 33.53 35.61 36.65 37.44 38.16 39.06 39.97 40.55 40.67 41.08
25.78 25.35 30.58 31.94 31.66 28.27 32.92 34.26 34.07 35.62 35.47 29.82 26.71 25.95 25.51 25.26 23.64 21.52 23.69 20.23 21.69 24.67 24.90 23.50 25.34 25.11 25.98 28.54 34.09 35.83 36.84 37.66 38.45 38.90 39.26 39.66 39.86 40.12
23.93 18.78 19.32 21.40 26.46 27.87 26.07 26.45 26.73 26.49 29.14 29.67 27.33 26.59 26.26 26.32 25.89 23.15 23.76 22.45 25.10 25.79 25.60 18.14 22.59 23.27 24.89 25.37 32.83 35.01 36.25 37.16 37.77 38.25 38.72 38.71 38.63 38.67
24.64 24.63 25.60 26.20 33.73 33.87 27.04 25.37 24.92 25.37 30.60 33.25 32.79 32.93 33.22 33.40 31.41 25.09 23.00 16.40 18.94 22.46 24.12 22.50 22.41 22.97 24.27 24.04 25.70 33.01 35.56 35.13 34.75 35.28 35.91 36.42 36.59 36.94
23.47 24.82 31.72 30.88 33.46 33.24 26.04 24.28 23.07 23.81 24.87 24.97 24.04 24.68 25.67 24.67 29.40 25.42 20.87 11.13 11.15 12.88 22.45 19.42 21.40 22.24 17.58 23.03 24.54 25.11 25.27 30.67 32.96 34.08 34.85 34.90 35.45 30.87
24.47 25.39 26.61 32.35 32.39 31.96 31.36 24.03 25.03 26.22 25.03 21.96 21.50 21.00 21.02 21.60 22.86 24.15 23.38 12.90 6.41 10.39 23.15 20.73 12.02 25.19 24.64 22.08 23.91 24.49 24.31 25.20 24.90 26.78 31.24 32.87 34.09 33.70
25.54 25.58 25.83 31.56 31.49 31.04 27.73 29.91 30.17 26.82 21.08 20.21 19.65 19.26 19.12 17.87 19.47 20.27 23.19 20.52 19.31 18.40 21.56 17.00 17.73 19.03 22.79 22.65 22.41 23.73 23.38 23.87 22.99 25.14 25.44 29.02 32.31 33.55
26.03 28.44 30.24 30.14 30.74 26.98 27.89 29.00 26.12 20.07 19.55 18.08 18.80 16.78 16.23 16.50 15.67 16.88 19.26 21.74 18.91 21.42 25.86 16.73 19.80 22.77 25.33 22.58 21.63 22.50 24.60 23.30 24.57 24.40 24.01 24.01 23.48 22.92
28.37 23.67 26.75 26.38 26.63 25.28 23.30 22.50 21.34 20.52 19.57 17.98 18.76 21.05 21.66 15.48 18.39 25.04 22.80 24.05 23.25 19.93 22.73 18.90 16.94 21.50 24.06 24.81 24.96 23.07 23.53 20.95 19.66 19.11 20.50 24.48 26.94 27.41
26.99 22.74 20.17 19.11 18.40 19.07 19.67 20.17 20.23 21.13 19.17 19.10 19.08 21.59 23.74 23.94 23.55 24.32 23.65 23.62 20.21 17.48 19.02 20.31 22.66 21.44 21.70 21.84 22.00 23.40 23.40 24.01 25.66 25.23 24.65 26.06 27.80 28.66
24.34 20.78 18.06 16.53 16.43 17.51 18.00 18.32 18.71 19.70 18.85 17.90 18.95 23.44 22.95 22.77 22.67 23.45 24.24 16.55 16.81 17.94 17.91 16.94 14.32 14.31 18.03 20.17 26.29 21.92 23.02 23.95 24.76 24.71 25.00 24.13 24.32 26.62
19.68 17.66 15.91 15.24 15.19 15.58 14.89 12.14 11.57 14.56 10.53 12.20 12.23 13.78 20.37 22.27 22.14 21.10 20.08 16.73 17.86 17.97 18.18 13.97 6.84 11.93 14.60 13.84 19.42 29.07 22.12 22.61 22.33 22.31 23.38 23.03 22.38 24.47
19.03 17.10 14.52 15.18 14.88 13.81 12.26 11.15 11.88 13.16 12.34 12.95 9.01 8.69 10.33 12.73 18.18 17.98 16.86 14.99 15.18 15.83 16.20 16.52 17.85 18.33 16.10 14.75 15.99 21.07 27.57 23.22 21.44 20.49 20.98 23.23 24.80 28.99
19.19 16.43 15.80 14.72 13.88 12.78 12.75 9.90 7.32 9.45 9.84 7.00 4.83 5.17 8.82 5.08 13.50 13.58 14.12 20.01 20.31 17.73 16.51 16.90 19.03 26.05 22.96 21.49 18.55 19.03 22.33 27.50 26.80 22.62 21.92 21.47 21.60 22.76
18.02 15.64 15.85 14.72 13.04 9.79 9.06 8.39 7.82 10.55 10.26 9.78 9.94 8.47 9.63 8.02 11.01 12.17 13.75 13.54 14.90 16.10 16.43 17.95 18.84 14.94 16.01 18.60 17.42 17.85 19.49 22.25 25.87 27.96 28.67 27.74 23.47 20.40
16.50 16.10 14.53 12.64 10.28 8.47 6.29 6.76 8.72 10.29 10.70 10.27 9.16 10.29 8.79 8.98 12.80 14.43 15.75 16.49 16.75 16.71 16.69 16.79 18.31 19.82 19.41 18.95 20.20 19.95 19.76 20.20 21.57 21.37 23.01 28.43 29.40 30.43

GFSNE_sfc_wetblb_054.txt.gz
Wetbulb
54.62 54.88 54.13 52.99 51.52 51.43 50.97 50.50 49.05 44.20 43.96 43.97 42.43 39.21 40.19 41.88 43.70 44.38 44.78 48.40 50.87 52.94 54.39 53.88 52.51 51.75 50.91 50.97 50.91 51.02 50.99 50.20 50.72 50.78 51.07 50.84 50.67 51.04
49.83 48.01 47.04 47.64 47.13 46.63 46.95 47.19 47.24 46.39 43.65 42.42 40.59 39.70 40.75 42.80 44.81 43.31 45.04 47.33 48.63 50.74 52.76 51.93 50.18 49.47 48.91 48.92 49.20 49.46 49.24 48.69 49.39 50.20 49.92 49.86 50.25 50.21
43.61 43.07 43.04 43.52 42.70 42.48 42.96 43.04 42.73 43.07 41.52 40.65 38.57 37.93 38.60 40.05 40.57 41.69 42.56 42.81 44.21 49.49 50.08 48.37 47.76 47.88 48.03 48.55 47.72 47.22 47.23 48.37 49.19 48.48 48.97 49.12 49.11 49.16
39.05 40.66 39.73 41.53 40.00 40.09 40.14 39.45 39.45 39.94 39.33 37.48 35.25 35.70 35.57 37.12 38.19 38.67 40.27 40.87 40.42 42.93 44.97 45.10 45.05 45.19 45.67 46.00 45.65 46.29 46.14 45.85 45.66 46.42 46.61 45.86 45.88 46.27
35.59 35.06 34.95 35.20 34.45 36.06 37.11 36.64 36.66 37.20 36.44 36.44 34.83 34.68 34.24 35.27 34.73 35.66 36.64 36.97 38.78 39.88 40.95 42.12 43.11 44.30 44.97 45.26 45.13 45.13 45.11 44.77 43.61 43.05 43.20 43.41 44.19 44.71
37.84 38.51 37.63 34.94 33.54 32.91 34.49 34.59 33.77 34.66 34.82 34.94 34.23 33.78 34.22 34.31 34.82 34.13 33.51 35.49 35.37 38.00 39.19 40.16 40.88 41.37 41.10 41.49 41.29 40.45 40.06 40.44 41.08 41.69 41.76 41.97 41.97 42.34
35.32 36.46 37.48 39.45 40.81 39.05 36.27 34.85 34.79 34.21 34.19 33.87 33.25 33.37 32.94 32.50 31.98 33.06 32.08 32.54 33.10 33.99 31.80 30.88 29.65 29.78 30.53 33.55 34.34 35.82 36.69 37.55 38.43 39.56 40.47 40.78 40.70 41.09
31.70 31.60 33.91 33.83 34.58 39.11 38.70 38.94 37.43 32.50 30.08 25.03 25.04 26.96 26.83 27.23 27.63 26.77 25.33 22.00 21.26 25.85 24.79 25.25 26.76 26.50 27.39 27.51 33.47 35.35 36.13 37.04 37.81 37.98 38.71 39.51 40.26 41.00
24.05 24.21 28.61 30.49 28.79 25.99 32.00 33.28 33.02 35.00 34.69 28.68 25.31 24.69 24.29 24.56 22.39 20.41 22.88 19.47 21.13 24.67 24.73 23.30 25.19 24.82 25.96 27.70 32.93 34.90 36.30 37.27 37.98 38.58 39.22 39.44 39.69 40.06
19.29 16.50 18.13 20.29 25.77 27.01 25.70 25.92 25.98 25.95 29.23 28.75 26.33 26.00 25.88 26.12 25.62 22.36 23.41 22.01 24.81 25.54 25.02 16.74 22.37 22.92 24.41 25.19 31.86 33.91 35.55 36.86 37.60 38.19 38.54 38.68 39.05 39.36
23.62 25.00 26.04 26.86 34.31 33.44 26.86 24.99 24.19 25.21 30.24 32.72 32.19 32.34 32.36 32.35 30.94 24.77 19.66 15.82 18.68 22.06 23.56 22.18 22.01 22.71 24.01 23.76 25.56 34.13 35.04 35.55 35.85 35.70 36.13 36.72 36.94 37.23
23.48 25.41 31.68 30.70 33.34 32.97 25.63 23.90 22.19 23.27 24.71 24.09 23.32 23.84 24.53 23.76 28.53 24.77 19.94 10.60 11.15 12.54 21.78 18.83 20.69 21.63 17.19 22.90 24.37 25.15 26.28 30.98 32.66 33.44 34.38 35.96 35.54 31.11
24.79 25.33 26.51 32.36 32.21 31.99 30.60 23.23 24.40 25.50 24.56 21.11 20.49 20.10 20.91 22.74 23.44 23.75 22.87 11.98 5.84 9.18 22.57 19.18 8.83 18.88 20.48 19.60 23.71 24.57 24.42 25.26 25.24 26.82 31.42 33.13 34.10 33.56
25.32 25.40 25.90 31.44 32.01 31.65 27.48 29.76 30.00 24.94 20.52 19.56 19.04 19.06 18.76 17.60 18.92 19.60 22.42 20.09 18.79 17.52 20.78 15.60 11.51 12.86 10.34 19.04 21.11 23.28 23.16 23.69 23.46 25.11 24.43 28.79 32.23 33.23
25.93 28.15 30.31 29.60 29.22 25.99 27.85 28.46 25.62 19.70 19.14 17.67 18.51 16.27 15.72 16.24 14.82 16.05 18.53 21.26 19.24 21.04 25.45 14.76 13.36 10.82 18.99 20.80 21.41 21.85 23.90 22.79 23.46 23.13 24.06 22.03 23.35 23.01
28.42 23.53 27.14 26.19 26.24 24.94 22.79 22.18 21.13 20.74 19.84 17.63 17.92 20.62 21.22 14.90 16.65 24.75 23.63 18.44 18.29 18.59 22.06 17.26 12.35 13.99 21.30 22.98 22.98 22.50 23.34 22.27 18.64 18.90 20.76 22.39 24.74 25.76
27.74 23.16 20.86 19.20 18.49 19.12 19.53 20.09 19.77 20.36 18.48 18.60 18.23 19.51 22.62 23.54 23.84 24.75 24.03 23.19 21.62 14.12 18.19 20.37 21.67 20.15 19.10 18.88 18.50 20.67 21.29 21.79 23.03 23.35 24.39 24.61 26.38 26.72
24.39 21.16 18.56 16.87 17.12 17.49 17.68 17.76 18.00 18.80 17.79 16.49 14.64 14.70 16.99 17.65 18.82 21.92 23.88 22.31 16.38 17.21 16.92 16.13 13.00 12.86 15.69 19.52 24.96 19.86 20.62 20.66 22.12 22.95 23.33 23.07 23.70 25.92
20.58 17.26 15.96 15.76 15.91 16.70 15.88 14.18 11.81 13.93 9.49 9.56 7.82 7.74 11.56 11.64 20.71 15.33 18.37 19.15 16.28 16.55 16.75 12.68 5.17 8.65 12.75 12.12 18.74 28.70 20.95 21.24 21.64 22.19 22.67 22.32 21.58 23.59
19.79 17.70 15.02 16.42 16.63 15.45 14.24 13.53 12.30 12.46 11.28 11.63 7.00 5.29 5.23 5.35 11.51 16.19 16.63 11.64 13.48 14.59 14.30 11.11 11.23 15.36 15.02 14.30 15.70 20.26 27.19 21.31 20.81 20.34 20.63 22.60 24.05 28.20
19.49 17.29 16.77 16.61 15.41 14.75 14.87 12.62 8.49 8.80 8.64 5.87 2.95 2.94 5.88 1.39 9.60 11.37 12.53 19.30 19.44 16.50 15.35 15.86 18.01 24.86 22.71 20.89 17.22 18.06 21.39 26.72 26.29 22.06 21.04 20.91 21.15 22.05
18.20 16.55 16.48 16.51 15.84 13.64 9.62 9.08 8.77 9.93 9.40 8.55 8.39 6.64 7.62 5.87 8.19 10.11 11.94 11.64 13.55 15.10 15.40 16.94 17.37 15.05 16.00 16.51 15.38 16.56 18.96 22.05 25.70 27.96 28.54 27.54 23.06 19.92
17.34 16.73 15.44 14.71 13.98 11.37 6.64 8.20 10.40 10.14 9.19 8.73 8.44 8.87 6.85 7.67 11.53 13.47 14.72 15.53 15.88 15.82 15.62 15.54 16.84 17.73 17.65 17.30 19.02 19.08 19.38 19.92 21.26 20.86 22.27 27.72 28.75 29.71

GFSNE_sfc_wetblb_057.txt.gz
Wetbulb
54.32 54.64 54.26 52.19 52.93 52.31 52.65 52.43 50.22 46.73 45.89 47.32 46.45 44.86 43.70 44.66 45.95 46.74 47.45 47.28 48.92 50.07 51.32 52.40 54.03 53.45 54.22 54.93 53.32 51.57 51.25 50.76 50.80 51.38 52.06 52.64 52.71 52.86
50.34 50.26 49.68 49.04 47.44 47.29 48.30 48.64 48.90 48.38 44.75 45.99 42.38 41.75 41.88 43.55 44.91 45.41 46.53 46.69 47.93 49.25 50.02 50.39 52.80 51.64 51.02 49.90 49.63 49.36 49.83 50.12 50.02 50.51 51.17 51.95 51.48 51.20
45.39 45.92 44.61 44.43 43.70 44.40 45.37 45.53 45.74 45.91 44.79 43.12 41.21 40.31 41.58 40.94 41.75 43.20 44.36 43.94 43.97 47.30 49.58 49.66 48.87 48.37 47.94 47.64 48.06 47.79 47.08 47.60 48.03 49.20 50.89 50.02 50.44 50.39
41.78 41.99 41.13 41.98 41.68 42.14 43.07 42.12 41.55 41.30 42.05 40.50 38.37 38.80 38.46 38.87 38.98 40.21 40.49 40.79 41.11 43.29 45.04 45.60 45.71 45.73 45.71 45.60 45.55 45.88 45.99 46.77 46.69 46.64 46.54 47.73 47.93 47.60
39.23 39.21 38.80 39.42 38.97 39.55 39.63 39.53 38.93 39.25 39.99 39.72 37.79 37.85 37.74 36.98 38.11 37.74 37.57 38.15 39.41 40.88 42.01 42.70 43.53 44.11 44.68 44.98 45.67 45.95 45.62 45.53 45.17 44.00 43.79 44.26 45.03 45.39
39.36 40.00 39.16 38.32 38.11 38.30 37.98 37.81 37.69 38.01 38.00 37.90 36.53 36.33 35.90 35.39 36.03 35.36 35.57 36.77 36.37 37.86 38.52 39.56 40.84 40.80 41.43 41.38 41.42 40.65 39.72 40.24 41.17 42.05 42.72 42.77 42.75 43.22
36.57 37.50 37.90 40.25 40.44 39.70 38.04 36.99 36.86 36.43 36.56 36.37 35.53 35.58 35.15 35.00 32.57 34.86 34.35 35.00 35.70 33.34 33.44 34.46 34.63 35.50 36.89 36.04 35.38 35.60 36.49 37.58 38.41 39.37 40.15 41.20 41.52 41.67
34.25 34.03 34.50 33.67 35.51 38.27 38.24 38.72 37.56 35.16 32.56 32.62 33.05 32.31 31.49 31.72 32.10 31.52 31.49 30.91 30.51 32.42 31.63 32.41 33.66 33.31 34.25 34.52 34.27 35.50 36.34 36.90 37.55 38.23 38.65 39.19 39.99 40.42
30.96 32.13 31.91 31.86 31.00 30.58 33.32 33.10 34.22 35.15 34.83 33.24 31.21 30.94 30.53 30.85 30.28 30.15 30.02 29.94 29.55 31.64 30.66 29.13 31.99 30.30 32.47 32.11 32.96 34.72 35.82 36.79 37.63 38.11 38.75 39.29 39.80 40.39
27.92 27.34 30.55 30.63 32.60 30.63 30.28 30.02 30.06 32.20 32.43 31.82 32.05 31.79 32.01 32.06 31.66 30.95 30.62 30.14 30.48 31.17 30.91 26.61 30.03 29.27 31.86 32.33 31.45 34.21 35.19 36.40 37.33 38.00 38.60 38.78 39.19 39.59
29.09 30.52 31.90 32.24 34.33 32.56 29.83 28.04 27.89 29.20 31.47 32.21 31.78 31.69 31.64 31.54 32.47 31.49 29.40 27.82 25.96 27.63 29.44 27.62 28.66 28.14 29.82 30.54 31.96 32.86 33.99 35.44 36.63 37.19 37.11 37.46 37.90 38.11
28.52 29.41 32.21 32.85 32.95 32.85 29.64 27.98 26.67 27.92 28.88 27.87 27.46 27.15 26.80 27.45 29.07 28.75 28.74 26.30 26.02 25.58 28.02 27.01 27.20 27.41 26.85 30.24 30.83 31.85 32.06 32.17 33.16 34.08 35.07 35.18 36.40 36.72
28.20 28.55 29.84 32.38 32.15 31.80 29.96 28.01 27.89 29.17 26.94 25.61 25.37 25.83 27.10 27.86 28.44 28.46 27.62 26.90 25.43 25.66 28.18 28.82 27.16 27.42 27.40 26.89 29.16 30.40 30.64 31.16 31.52 31.77 32.04 33.03 33.94 34.31
28.00 28.80 29.56 31.02 30.94 31.83 29.16 29.72 29.98 26.11 25.16 23.99 23.61 24.57 25.51 26.53 27.35 27.40 27.05 27.74 27.02 26.30 28.11 26.17 26.13 25.88 25.36 23.96 24.69 28.99 29.89 30.54 30.60 30.19 31.14 31.28 32.09 33.25
29.18 29.46 30.51 29.37 28.49 26.75 28.01 28.33 25.62 24.45 23.37 22.67 23.08 24.30 25.56 26.22 24.98 25.74 26.91 26.94 27.13 27.01 28.23 26.43 25.68 25.57 24.25 23.43 24.22 25.54 26.18 29.02 29.99 29.58 30.13 30.19 29.96 30.40
29.68 28.85 29.01 27.58 26.47 26.37 24.77 24.43 24.46 24.62 24.31 23.86 23.56 24.72 25.52 25.27 25.55 26.45 25.18 25.69 25.02 25.79 27.41 27.22 25.00 23.40 23.86 24.51 24.59 23.43 26.03 24.95 29.02 29.27 29.09 29.05 29.61 29.75
29.70 27.01 25.58 24.14 23.22 22.90 22.96 23.25 23.71 23.87 23.22 24.23 23.44 23.36 23.89 24.75 25.01 26.41 25.43 24.86 23.24 23.85 24.29 25.75 26.28 26.01 25.18 23.63 22.26 24.05 24.60 26.18 28.27 27.88 27.18 26.86 28.82 30.04
27.55 25.34 24.36 22.80 21.95 21.77 21.25 21.50 22.03 22.37 22.54 22.83 22.53 22.39 22.67 23.02 23.19 24.14 24.88 24.40 22.50 22.57 22.31 23.51 22.89 21.79 22.84 25.14 26.58 24.21 25.69 25.75 27.15 27.35 26.93 25.00 25.36 29.35
26.19 24.75 22.61 21.75 21.48 21.20 21.03 20.84 20.49 21.42 20.32 20.16 20.45 20.69 20.43 20.29 21.41 21.78 22.12 22.20 21.54 22.06 22.24 22.67 20.81 18.72 17.65 17.81 25.04 28.84 25.66 26.35 26.59 26.13 26.99 26.58 26.51 28.40
24.78 23.76 22.84 22.16 21.60 21.28 21.08 20.44 20.66 20.58 19.50 19.57 19.46 18.79 17.99 17.73 18.74 19.54 20.36 19.65 20.00 19.93 19.86 20.69 19.51 19.08 17.97 19.47 21.44 24.84 27.37 26.01 25.91 25.34 26.15 27.87 28.81 29.57
22.84 22.77 22.43 22.00 21.42 21.21 21.04 20.72 19.56 19.21 19.07 18.02 17.65 17.02 17.39 16.56 16.73 17.45 17.73 20.17 21.17 20.78 19.68 20.42 23.30 25.34 24.04 23.79 19.79 20.75 25.01 27.13 27.02 25.99 26.00 24.37 22.92 24.28
21.89 21.93 22.11 22.03 21.58 20.98 20.63 19.19 17.91 17.63 17.94 17.74 17.29 16.85 17.08 16.29 15.35 15.78 16.63 16.81 17.67 18.41 19.20 21.49 22.38 21.57 20.47 19.01 18.80 20.36 22.35 25.19 27.36 28.06 28.51 28.00 24.98 21.83
22.89 22.36 22.16 21.73 20.93 20.09 19.06 17.60 17.05 18.14 18.06 17.10 17.08 17.29 16.53 15.09 16.06 16.66 17.33 17.96 18.19 18.46 18.88 19.00 20.71 21.29 20.02 19.66 20.56 20.59 21.43 22.49 24.30 24.68 26.23 28.56 28.76 29.34

GFSNE_sfc_wetblb_060.txt.gz
Wetbulb
54.53 54.09 52.77 51.45 53.07 53.86 54.98 54.06 52.29 48.61 50.09 51.82 51.49 47.64 48.18 48.43 47.12 49.07 50.25 47.73 48.81 49.62 50.58 50.50 50.58 51.67 53.81 54.98 55.40 54.08 53.01 52.18 51.26 50.76 50.88 51.69 52.41 53.12
52.76 51.17 50.27 50.13 50.32 50.66 51.87 52.61 50.91 50.50 47.49 48.91 47.21 44.98 44.95 46.21 45.31 46.79 46.66 46.90 47.87 49.11 51.10 50.97 50.89 52.47 52.18 51.55 50.78 50.34 50.09 50.23 50.15 49.84 50.55 51.39 51.76 51.99
48.23 47.98 47.33 48.98 49.05 48.85 49.77 48.26 48.17 49.21 46.70 43.07 43.36 43.95 45.30 45.18 44.86 45.05 44.98 45.07 45.28 46.73 47.55 48.12 48.42 48.85 49.10 48.97 48.75 48.78 48.29 47.93 47.80 48.38 49.63 50.21 51.01 51.13
46.43 46.67 45.41 45.94 46.44 47.00 47.42 46.79 46.45 46.27 46.82 44.80 42.34 43.09 42.01 42.24 42.34 42.09 42.07 42.40 43.47 43.39 44.86 45.29 45.73 45.92 45.96 45.88 45.69 45.76 45.58 45.79 46.52 47.07 47.35 47.36 48.25 48.50
43.91 43.68 42.94 44.05 43.94 44.30 44.27 43.90 43.87 43.12 43.44 42.31 40.40 40.77 40.20 39.21 38.87 40.68 40.77 40.85 41.29 40.58 41.77 42.22 43.24 43.34 43.43 43.73 44.24 44.20 44.98 44.77 44.91 44.17 43.89 44.41 45.29 46.17
41.78 41.79 41.74 41.88 41.52 41.30 41.02 40.92 40.92 41.64 41.14 41.00 39.07 38.87 37.74 37.38 37.42 36.44 39.49 40.34 39.31 39.77 39.02 38.52 38.85 38.90 40.23 40.65 40.58 39.27 39.25 40.00 41.17 42.32 43.10 43.53 43.84 44.12
39.34 39.41 39.77 40.98 40.68 40.57 40.31 39.73 39.92 39.93 38.89 39.22 38.49 38.54 37.59 36.56 35.28 37.12 37.22 37.61 38.56 36.77 37.12 38.09 37.76 38.63 39.17 38.00 36.92 35.94 36.45 37.52 38.58 39.76 40.83 41.47 41.75 42.69
37.58 37.25 37.60 36.79 38.61 38.77 38.68 38.29 37.99 37.82 35.42 36.60 37.69 36.91 35.75 35.68 36.01 34.79 33.96 33.05 32.76 36.32 33.90 34.34 36.37 35.38 36.68 37.22 35.56 35.36 36.32 37.21 37.81 38.22 38.80 39.20 39.51 40.40
35.11 35.40 34.39 34.16 33.73 33.91 34.29 34.07 35.19 35.74 35.31 35.89 34.28 34.34 33.78 33.87 33.35 32.74 32.67 32.38 31.93 33.73 32.22 31.26 34.48 32.65 35.11 34.87 33.79 34.59 35.73 36.57 37.19 37.76 38.14 38.69 39.55 39.77
32.81 33.55 34.72 34.50 34.48 32.92 32.82 32.78 33.43 34.65 34.57 34.49 35.10 34.84 35.09 35.28 34.60 33.51 32.76 32.26 33.05 33.51 32.63 28.75 33.35 32.40 34.92 35.51 32.28 34.67 35.79 36.47 36.80 37.73 38.33 38.90 39.24 39.42
32.79 33.91 34.63 35.10 34.63 32.47 32.20 30.21 30.98 32.17 32.91 32.08 31.80 31.75 31.78 31.74 32.91 33.50 31.44 29.46 28.56 30.18 32.29 29.97 31.83 30.99 33.09 33.62 34.83 32.62 33.63 34.71 36.15 37.41 37.88 37.87 38.29 38.88
31.58 32.65 32.95 34.07 33.29 33.45 32.54 30.99 29.12 30.80 31.55 30.94 30.82 29.90 29.30 29.96 29.67 30.68 30.89 28.28 28.36 28.79 31.02 28.99 29.74 29.77 29.52 34.16 33.85 34.66 34.61 33.03 33.80 34.46 35.35 36.20 36.52 36.06
31.05 31.04 32.04 32.68 32.59 32.19 31.79 30.88 30.24 31.80 30.02 28.90 28.84 29.42 29.92 30.52 31.18 31.09 30.58 30.45 28.92 28.76 30.76 30.60 28.66 29.42 29.46 29.44 31.91 33.49 33.53 33.63 33.91 34.03 33.90 34.76 35.41 35.42
30.16 30.93 31.63 31.38 30.97 32.06 32.02 30.11 30.53 28.34 28.71 27.68 27.13 27.68 28.21 29.16 30.16 30.33 29.66 30.28 30.73 29.24 30.89 29.60 27.68 27.43 26.45 25.25 27.17 32.06 33.05 33.68 33.44 32.74 33.53 33.82 34.09 34.50
31.51 30.83 31.39 30.12 28.85 28.68 28.79 29.23 27.92 28.03 27.00 25.90 26.31 27.45 28.81 29.93 28.94 28.97 29.55 29.29 29.10 29.53 29.44 29.39 28.22 27.65 26.09 24.56 26.06 27.61 28.06 31.56 32.64 32.29 32.51 32.87 32.74 33.33
31.09 31.69 30.94 29.71 27.57 28.26 27.48 27.29 27.40 27.68 27.03 27.06 26.81 27.70 28.45 28.29 27.91 29.12 27.62 27.98 26.99 28.07 30.32 30.18 29.02 27.59 25.71 26.52 26.85 25.59 28.11 26.92 31.78 31.95 32.32 32.26 32.15 32.49
30.99 30.25 29.61 28.61 27.93 27.04 26.63 26.64 26.99 26.83 26.00 26.88 26.45 26.32 26.19 26.89 27.28 28.62 27.92 27.36 25.86 26.37 27.54 29.33 29.43 28.59 27.94 26.70 24.52 26.04 26.80 28.26 31.23 31.67 29.95 29.20 30.81 32.08
31.00 29.12 28.55 28.36 26.69 26.36 25.67 25.60 26.09 25.53 26.22 26.24 26.16 25.96 25.35 25.74 26.04 26.73 26.95 26.23 25.76 26.20 26.14 27.27 27.01 25.58 25.63 27.96 28.76 25.70 27.59 28.85 30.60 30.68 29.32 26.75 27.32 31.45
29.15 29.61 28.33 27.67 26.77 26.21 25.92 25.78 25.39 26.15 26.42 25.08 25.16 25.12 24.95 24.45 23.97 24.07 24.94 24.84 24.49 25.17 25.83 26.71 25.55 23.36 20.42 20.52 28.23 30.53 27.40 28.26 28.82 28.46 29.89 29.64 28.95 30.74
28.84 28.02 28.48 28.37 27.28 26.52 26.31 25.74 25.74 25.53 24.90 24.41 24.34 24.09 23.45 22.94 22.42 22.81 23.77 23.14 23.45 23.76 23.82 25.09 24.55 23.67 21.46 21.97 23.55 27.52 29.50 27.43 27.40 27.29 28.18 30.12 31.16 32.15
27.50 27.43 28.03 27.42 26.70 26.53 26.28 25.99 25.44 25.11 25.05 24.34 23.86 22.98 22.89 22.58 22.04 22.47 22.68 23.25 23.50 23.19 23.16 24.40 27.42 29.03 27.85 26.22 21.39 22.39 27.14 28.89 27.96 26.49 27.04 26.30 24.62 25.54
28.38 27.33 26.98 26.58 26.42 26.52 26.11 25.27 24.57 23.95 23.63 23.71 23.73 23.78 23.56 23.27 22.16 21.83 22.20 22.07 22.58 22.91 23.19 25.30 26.07 25.14 23.11 20.69 20.04 21.81 24.26 27.86 29.89 29.68 29.55 28.44 25.40 23.26
27.41 26.64 27.05 26.69 26.62 26.19 25.45 24.60 23.53 23.67 24.30 24.13 23.96 24.15 23.47 22.07 22.50 21.97 21.81 21.69 21.70 21.75 22.08 22.33 23.70 24.48 23.08 22.51 21.76 21.10 21.89 23.63 25.69 26.40 28.24 30.43 30.04 30.27

GFSNE_sfc_wetblb_063.txt.gz
Wetbulb
54.38 53.79 52.52 51.40 51.71 52.77 54.06 54.09 52.74 48.58 50.09 51.31 49.84 48.71 48.02 48.45 46.07 48.41 47.86 47.95 49.14 50.17 51.04 51.76 51.24 50.82 52.88 54.85 56.37 55.06 54.10 54.74 54.21 53.91 53.25 52.27 51.80 51.97
52.93 51.78 50.52 50.40 50.63 51.40 51.18 51.56 51.35 50.82 48.43 49.42 46.58 46.24 46.66 46.89 46.05 46.41 45.54 46.60 46.89 48.98 49.22 49.60 51.02 52.55 52.95 53.13 52.62 52.39 52.15 52.04 51.95 51.53 51.11 51.00 51.39 51.89
49.08 48.72 48.16 50.03 50.05 49.94 50.51 50.31 50.10 50.18 48.10 44.26 44.61 44.92 45.65 44.15 44.13 44.34 44.51 43.76 44.99 45.79 47.23 47.67 47.83 48.00 48.88 49.48 49.83 49.89 49.59 49.44 49.24 49.36 49.99 50.00 50.11 50.59
48.03 48.18 47.04 47.58 47.44 48.00 48.37 47.59 47.25 46.56 46.39 44.60 42.83 43.04 41.75 41.80 42.33 41.76 41.93 42.67 42.99 42.95 44.47 45.08 45.67 46.19 46.78 46.74 46.56 46.24 45.96 45.95 46.22 46.89 47.42 47.65 47.74 48.80
45.21 44.54 44.31 45.37 44.30 44.63 44.69 44.42 43.84 43.27 43.25 41.98 39.54 41.41 40.60 39.05 38.46 39.95 40.53 40.41 41.75 40.78 41.20 41.99 42.40 43.50 44.08 44.22 44.18 43.65 44.70 45.30 45.34 45.28 45.06 44.97 45.35 46.22
42.38 42.56 42.08 42.01 41.74 41.64 41.33 41.20 41.40 41.21 41.26 41.17 39.80 39.09 38.05 38.01 38.08 36.77 38.40 39.89 38.55 39.21 39.50 38.42 38.94 39.10 40.27 40.69 40.31 39.21 39.65 40.33 41.40 42.47 43.16 43.64 44.01 44.59
40.10 39.55 40.40 41.06 41.01 40.98 40.08 39.51 39.43 38.68 38.17 38.90 38.79 38.59 37.02 36.48 35.03 36.29 34.45 35.15 36.65 35.15 33.97 35.50 34.97 35.93 36.74 37.72 37.45 36.83 37.55 38.16 38.93 39.77 40.72 41.70 42.30 42.79
37.76 37.85 37.80 38.36 38.71 38.81 38.62 37.96 36.68 36.58 34.87 35.19 35.81 35.36 35.39 34.05 34.10 32.00 31.22 30.28 29.88 33.37 30.36 30.22 32.73 31.26 32.71 32.79 35.43 35.33 35.98 36.68 37.40 38.33 38.90 39.26 39.70 39.89
34.97 35.56 34.53 33.98 34.07 33.38 34.54 34.62 36.16 35.82 35.52 34.70 32.12 31.91 31.33 31.91 31.42 31.10 30.62 29.95 29.14 31.12 29.39 27.48 30.72 29.00 31.42 33.89 35.06 34.95 36.14 36.72 37.09 37.50 38.03 38.44 38.71 39.33
33.16 33.06 34.09 34.13 33.47 32.88 32.47 32.07 32.48 33.81 34.07 34.35 33.65 33.11 33.01 33.49 32.56 31.78 30.35 29.80 30.68 30.70 29.47 25.49 29.54 28.71 31.12 31.82 33.90 34.66 35.53 36.04 37.21 37.22 37.98 38.53 38.91 39.29
32.98 33.87 34.56 34.94 34.70 33.23 32.05 29.74 29.91 31.30 33.26 32.42 31.77 31.65 31.73 31.94 32.11 30.60 29.56 27.73 26.37 26.45 28.68 26.56 28.18 27.49 29.27 29.56 31.03 34.05 34.38 34.84 35.82 37.09 37.99 38.19 38.06 38.66
31.30 32.67 33.54 34.02 33.73 33.74 31.67 29.77 27.61 28.87 29.91 29.80 29.24 28.99 29.15 29.02 30.01 28.29 28.51 24.99 26.52 26.36 27.46 25.99 27.15 27.03 25.47 30.09 29.68 30.71 30.40 35.24 34.25 35.01 35.98 36.42 36.98 34.96
29.61 29.78 31.05 33.20 33.05 32.72 32.82 29.58 29.13 30.44 29.77 27.41 26.67 26.65 27.03 27.90 28.23 28.48 28.22 27.51 25.43 25.81 28.30 27.49 27.09 25.88 25.81 25.95 28.38 29.61 29.54 29.54 29.97 31.18 35.13 35.24 35.90 35.74
29.23 29.93 30.56 31.75 31.68 32.35 32.66 32.38 30.98 29.80 27.22 25.94 25.28 25.35 25.82 27.20 28.21 28.43 28.17 28.34 28.79 26.38 28.55 27.15 22.49 25.77 25.35 24.21 23.56 27.94 28.58 29.05 29.02 28.55 28.86 33.13 35.33 35.78
30.07 30.80 31.56 31.34 30.35 29.87 30.73 30.88 30.45 27.00 25.57 24.43 24.53 25.81 27.33 28.21 26.52 26.36 27.63 28.09 28.60 27.66 28.67 24.78 27.02 26.80 26.60 23.91 23.28 23.97 25.32 26.54 28.47 27.54 27.40 27.12 28.14 28.12
31.98 30.56 31.40 31.35 30.48 29.26 27.63 27.79 26.82 26.09 25.33 25.01 25.08 25.80 26.39 26.50 25.95 27.23 25.67 26.13 26.35 25.78 30.00 27.57 28.18 26.63 23.89 23.92 23.94 23.97 24.85 22.76 25.68 25.96 26.80 27.25 28.97 29.49
30.75 29.25 28.52 28.14 27.09 26.49 25.87 25.73 25.70 25.57 24.44 25.15 24.60 24.66 25.25 25.41 25.87 26.73 26.22 25.11 23.30 23.60 24.80 27.44 28.02 26.70 26.24 23.63 22.20 23.22 23.52 24.30 26.08 26.37 26.06 28.14 29.14 28.64
29.70 28.15 27.70 27.67 26.97 25.99 25.16 24.70 24.93 25.46 24.78 25.54 25.17 24.87 24.08 24.10 24.36 25.20 24.97 23.62 22.97 23.73 23.14 24.18 24.05 23.62 23.30 25.07 28.67 22.86 23.49 24.05 25.79 28.56 29.12 26.83 26.43 28.26
29.21 28.08 27.77 27.69 26.67 25.64 25.10 24.90 24.45 25.37 24.41 24.57 23.77 23.17 23.07 22.65 23.37 22.36 22.61 22.91 22.51 22.59 22.61 22.46 20.29 20.75 19.21 16.96 23.07 32.01 23.62 24.22 24.16 25.54 26.13 26.00 25.37 27.18
28.84 27.82 27.97 27.93 27.41 26.29 25.82 25.26 25.13 24.85 24.21 23.61 22.89 22.07 20.95 21.20 20.69 20.94 21.46 20.28 21.05 21.23 21.30 19.50 19.43 20.44 20.83 19.23 19.64 23.81 30.53 25.36 24.51 23.48 23.78 26.06 27.86 31.74
27.95 27.98 28.13 27.79 27.25 26.80 26.29 25.95 24.98 24.91 24.45 23.26 22.37 21.17 21.99 21.99 20.89 20.75 20.88 23.88 23.77 21.79 20.61 21.23 23.34 29.48 27.25 26.49 22.00 21.28 23.53 28.59 27.37 23.25 22.47 23.19 23.11 23.62
28.04 27.51 27.68 27.71 27.08 27.20 26.90 26.32 25.20 24.73 23.60 22.62 22.75 23.26 23.37 22.59 21.14 20.76 21.79 21.63 22.21 22.79 22.75 24.13 25.38 24.91 23.77 21.73 19.52 20.41 21.36 23.70 27.39 29.41 30.31 29.47 24.53 20.69
29.09 28.68 28.28 27.81 27.66 27.57 26.96 26.13 25.13 24.54 24.00 23.59 24.12 24.31 23.89 23.22 23.34 23.08 22.48 21.89 21.97 21.62 21.70 21.50 22.85 24.06 23.13 22.74 22.47 21.74 22.08 21.64 22.65 22.45 24.43 29.91 30.90 31.25

GFSNE_sfc_wetblb_066.txt.gz
Wetbulb
53.49 52.92 52.41 51.36 51.94 53.14 54.13 53.79 52.40 48.10 48.16 48.66 44.05 43.66 44.51 44.22 45.87 44.92 45.04 47.59 48.95 49.46 49.74 51.16 52.70 51.30 53.33 54.65 55.80 55.36 55.99 56.55 57.80 58.45 57.88 57.60 56.71 54.62
51.47 50.95 50.12 50.29 50.27 50.90 51.11 51.51 51.34 50.50 47.67 46.82 43.44 42.84 44.12 45.09 45.10 44.14 44.62 45.82 46.71 48.20 48.86 49.29 50.03 51.20 52.22 52.95 53.56 53.74 53.42 53.58 54.27 54.21 53.83 53.19 52.73 52.65
48.29 47.98 47.48 49.03 48.65 47.96 47.43 47.48 46.23 47.90 46.70 43.18 43.79 43.56 42.61 41.64 41.56 42.86 43.34 42.93 44.02 45.35 46.64 47.47 47.85 48.36 48.60 48.84 49.61 50.20 50.50 50.80 50.72 50.69 50.54 50.73 51.28 51.36
47.30 46.84 45.76 47.29 45.43 45.06 44.43 42.62 42.72 40.88 41.19 42.90 41.34 40.95 40.09 38.12 37.20 40.48 41.38 42.21 41.75 42.11 43.82 45.12 45.53 45.83 46.50 47.14 47.30 47.19 46.87 46.78 46.96 47.59 48.69 49.25 48.84 49.17
41.50 41.14 40.82 41.43 39.72 39.86 40.86 41.37 39.63 41.34 39.99 39.73 37.54 39.26 38.43 36.63 37.50 39.10 39.41 36.23 40.08 41.10 41.17 41.98 42.00 42.48 44.64 45.09 44.54 43.75 44.08 45.05 45.87 45.90 45.84 45.73 45.96 46.33
40.45 39.26 39.01 39.03 40.82 40.57 40.47 39.98 40.36 39.32 39.15 39.15 37.94 36.63 36.80 36.15 36.98 34.42 32.63 35.16 33.36 36.20 37.66 38.29 39.33 39.68 40.41 40.43 40.31 39.49 39.75 40.49 41.55 42.66 43.35 43.59 44.08 44.84
39.05 39.59 39.71 40.24 41.62 41.08 39.02 38.32 38.24 36.59 36.27 36.30 35.87 36.22 35.72 34.61 31.82 31.67 28.99 29.07 30.42 30.30 28.44 29.12 30.21 30.86 32.93 36.86 37.55 37.39 37.36 38.11 38.77 39.69 40.67 41.53 42.06 42.64
36.51 35.18 35.87 36.97 38.06 39.35 38.76 38.00 36.68 34.85 33.73 33.91 34.52 33.08 31.09 29.03 28.45 26.82 26.20 22.69 23.01 27.83 25.57 25.53 27.65 26.58 28.02 28.24 35.36 35.92 36.13 36.56 37.14 37.60 38.60 39.44 39.73 40.18
34.02 31.63 32.40 33.81 32.62 30.49 34.39 36.36 35.76 36.17 35.43 30.47 27.08 26.39 26.58 27.47 26.80 25.95 25.85 23.48 24.73 26.86 25.46 23.35 25.93 25.76 27.56 31.98 35.67 35.08 36.17 37.09 37.75 37.43 37.59 38.12 38.60 39.01
31.43 31.09 29.21 28.88 30.39 30.90 29.72 29.25 29.56 30.55 31.47 31.90 28.94 28.21 28.31 28.76 28.36 27.90 26.74 26.07 26.77 26.61 25.70 19.40 24.75 25.26 26.96 27.80 35.26 34.99 35.04 35.49 36.47 37.64 37.63 38.19 38.52 38.88
29.65 31.16 32.57 31.93 34.68 33.79 29.72 27.42 26.57 28.77 33.61 33.04 32.16 32.08 32.08 32.07 30.96 26.48 22.95 20.37 21.52 22.82 25.23 24.07 24.60 24.77 25.88 26.82 28.72 34.86 35.33 36.18 35.29 36.06 37.51 38.23 37.94 38.36
28.58 30.65 34.09 33.05 34.59 34.20 28.95 25.65 24.50 25.35 26.87 26.77 26.04 27.26 28.04 27.10 30.33 25.44 22.37 15.13 18.27 19.00 24.57 21.62 24.18 24.54 20.01 26.94 27.45 28.02 28.14 34.51 35.36 35.59 35.59 36.41 36.90 32.22
26.42 26.92 29.02 33.65 33.44 33.06 32.80 27.01 27.25 27.53 28.47 25.37 23.50 23.17 23.40 24.23 24.28 25.23 25.77 18.19 14.91 15.71 26.94 21.97 15.07 19.63 17.85 20.90 25.47 26.82 26.48 27.42 27.85 29.49 34.37 35.11 35.92 34.71
26.91 27.36 28.19 32.97 32.54 32.47 31.83 32.78 31.24 30.41 25.35 23.66 22.83 22.24 21.42 21.34 22.58 23.50 25.93 24.60 23.69 21.04 24.06 22.37 13.17 14.21 13.95 21.76 21.21 25.15 25.18 26.36 25.10 25.52 25.51 31.77 34.53 35.09
27.13 29.73 32.17 32.67 31.56 29.81 31.40 32.33 31.40 26.46 23.94 22.40 21.90 21.05 20.64 21.27 20.46 21.01 22.96 24.37 23.16 24.86 27.25 18.92 17.93 16.81 23.00 23.68 22.77 23.79 23.89 23.94 26.38 23.18 23.41 23.40 24.09 24.88
32.50 27.95 30.30 31.15 31.40 28.90 27.89 27.40 25.87 24.63 22.98 21.43 21.74 23.13 23.45 19.50 20.91 21.83 19.07 20.77 18.33 21.60 26.31 24.84 21.17 20.03 24.19 24.55 24.09 22.54 21.58 19.88 21.11 22.86 24.52 25.95 26.60 27.80
29.76 27.25 26.75 26.52 25.85 25.15 24.31 24.16 23.99 23.76 21.88 21.71 21.51 22.11 23.67 22.75 23.63 21.26 21.46 18.46 16.24 16.30 20.02 23.05 25.82 23.83 23.02 17.13 18.40 21.93 21.98 21.93 23.20 23.62 21.86 24.37 28.28 30.01
28.76 26.25 25.78 25.82 25.61 25.34 24.52 23.95 23.39 24.25 21.82 21.14 19.67 19.51 19.59 18.74 19.38 19.98 18.77 16.43 15.67 18.25 18.58 19.00 18.51 24.44 21.18 22.10 27.48 22.50 22.56 21.41 22.59 22.96 25.03 26.97 26.83 27.77
27.90 27.32 27.03 26.85 26.68 26.14 24.39 22.71 20.92 21.91 17.32 17.12 15.50 14.11 14.10 14.93 21.37 16.91 16.85 16.71 15.83 16.15 16.01 15.28 11.97 10.62 15.06 18.19 20.52 28.48 21.67 17.69 20.69 23.60 22.23 23.28 23.42 25.40
29.08 27.95 26.69 27.04 26.55 25.52 24.46 23.48 22.23 20.64 19.68 18.03 14.60 13.76 14.16 13.10 13.21 15.25 15.83 13.95 13.59 13.14 13.26 9.88 9.74 9.44 17.01 18.98 17.26 20.70 28.95 16.72 17.01 21.99 22.94 24.42 25.56 29.68
28.04 26.53 27.27 26.54 26.22 26.06 25.20 23.91 22.64 21.55 18.42 17.55 17.70 16.52 15.33 13.53 16.15 16.29 15.57 23.20 22.02 15.41 18.95 19.58 21.53 27.15 25.16 25.33 21.28 20.92 23.25 28.15 27.40 22.83 18.97 21.32 21.89 23.33
27.75 27.39 27.61 27.74 27.36 26.61 25.52 24.34 23.48 24.66 21.77 19.19 18.70 18.43 20.40 18.89 19.59 17.46 17.14 16.29 19.33 20.96 22.14 23.94 25.05 24.84 23.50 21.66 19.85 20.43 21.18 23.54 26.61 28.30 28.77 27.82 23.92 21.22
28.56 27.15 27.34 27.77 27.74 27.27 26.71 26.18 25.52 25.11 24.28 23.57 22.00 21.67 21.49 20.80 21.58 22.68 22.89 22.78 22.23 21.71 21.63 21.24 22.39 23.26 22.41 22.03 21.95 21.50 21.87 21.43 22.51 22.06 23.84 28.87 29.33 29.68

GFSNE_sfc_wetblb_069.txt.gz
Wetbulb
52.63 50.76 52.43 51.77 51.19 52.91 54.49 54.37 52.76 47.83 49.30 46.77 44.66 44.47 44.60 44.83 46.10 45.12 45.40 47.47 49.20 49.42 49.47 50.62 51.67 53.58 55.07 55.56 55.74 56.02 56.32 56.87 57.48 58.85 59.21 59.14 58.91 58.47
49.68 50.40 49.92 50.31 50.42 50.53 50.94 51.56 51.65 51.23 48.25 46.40 43.30 44.19 45.01 44.31 45.02 43.93 44.62 45.16 46.70 47.49 48.32 48.87 49.63 50.34 51.72 52.88 53.83 54.32 54.73 55.27 55.98 56.57 56.80 56.48 55.30 54.29
46.31 47.66 48.17 49.00 48.54 47.95 47.68 47.72 46.93 47.13 46.72 42.92 43.45 43.30 41.10 41.27 41.57 42.59 43.11 42.66 43.52 44.64 45.98 46.95 47.31 48.71 49.06 49.15 49.36 49.78 50.33 50.86 51.48 51.81 51.94 52.07 52.12 52.21
46.75 47.00 45.92 47.07 44.94 44.83 45.24 43.49 42.14 39.86 42.89 42.25 41.63 40.68 39.53 38.77 37.04 40.16 41.37 42.20 40.97 41.69 43.32 44.63 44.70 45.46 46.04 46.67 47.02 47.69 47.65 47.69 47.96 48.49 49.64 50.06 49.44 49.11
42.22 42.23 42.53 42.78 40.59 39.95 40.27 41.64 41.16 40.05 37.41 36.47 37.49 39.14 37.81 37.32 37.56 38.43 39.18 35.61 38.96 40.39 40.68 41.17 41.66 42.70 43.68 44.56 43.94 43.56 43.89 45.13 45.66 46.09 46.16 46.37 46.67 46.92
38.93 38.71 38.59 38.99 38.87 39.53 40.27 40.16 40.51 39.47 39.53 38.41 37.91 36.52 36.70 36.38 36.45 31.71 31.85 32.47 31.46 34.03 35.57 38.12 39.22 40.20 40.24 41.06 40.02 39.75 39.90 40.46 41.28 42.55 43.34 43.37 43.91 44.56
39.64 39.72 39.29 40.42 41.98 41.17 39.15 38.41 38.38 36.91 36.40 36.26 35.76 36.33 35.78 34.69 30.22 30.17 27.94 27.56 28.54 27.78 26.87 27.28 28.20 28.75 31.49 37.89 37.36 36.89 37.01 37.27 38.03 39.15 40.31 41.34 42.03 42.49
36.95 36.49 36.93 37.84 39.15 40.06 39.40 39.11 37.48 36.38 35.09 34.42 32.00 31.88 29.75 28.62 27.84 26.60 25.75 22.40 22.90 27.09 24.94 24.66 26.12 25.42 26.46 26.78 35.62 35.99 36.32 36.87 36.89 37.20 37.81 38.79 39.62 39.99
33.63 31.88 32.26 34.19 32.31 30.44 35.83 36.25 36.03 37.64 35.66 31.89 27.62 26.80 26.90 27.56 26.83 25.76 25.52 22.62 24.20 26.17 24.64 22.26 24.77 25.14 26.91 30.47 35.81 35.47 36.18 36.45 37.88 37.71 37.40 37.61 38.16 38.61
31.36 28.43 27.19 27.82 29.31 29.83 29.22 29.34 29.69 30.07 30.95 31.58 28.85 28.36 28.60 28.48 28.61 27.95 26.56 25.28 25.85 25.84 24.64 19.19 23.72 24.82 25.89 26.80 35.86 35.28 35.18 35.65 35.93 37.32 37.60 37.75 38.29 38.48
29.26 31.17 32.10 30.62 34.30 34.29 29.12 27.58 27.40 29.38 33.54 33.94 33.07 33.11 33.09 32.86 30.89 26.58 23.56 20.50 20.83 22.38 24.60 23.55 23.74 24.49 25.24 26.50 27.46 35.42 35.79 36.13 35.80 35.64 36.36 37.53 37.82 38.02
28.32 29.66 35.42 33.33 36.21 34.42 28.23 26.19 24.59 25.32 27.04 26.40 25.81 27.19 27.84 27.55 30.85 25.77 23.45 14.33 17.00 18.08 24.12 21.09 23.56 23.62 19.45 25.61 27.03 27.21 27.31 34.02 35.45 35.42 35.80 36.22 36.33 31.22
26.92 27.63 29.09 35.44 35.11 34.31 32.90 25.96 26.58 27.14 29.02 24.86 23.38 22.92 23.73 24.67 24.64 25.33 25.74 18.14 13.02 14.41 26.24 20.62 12.76 18.18 16.27 19.16 24.21 25.74 25.76 26.37 26.69 28.01 32.68 34.46 35.38 34.48
26.48 26.88 28.16 34.52 34.13 33.95 32.34 32.91 32.17 30.59 24.78 23.43 23.00 22.94 22.34 22.58 23.63 23.98 25.63 23.82 23.12 20.94 24.01 19.00 12.27 13.49 9.69 12.53 19.25 24.01 23.92 24.62 23.92 24.71 24.28 29.59 33.01 34.49
27.08 29.50 32.46 33.96 33.12 31.16 32.09 32.83 33.12 26.62 24.35 22.75 22.80 22.41 23.32 24.05 21.78 20.35 22.15 23.66 21.96 23.87 26.63 16.81 16.03 10.84 13.23 11.63 14.55 19.20 23.35 23.06 24.69 19.96 21.28 21.76 23.10 24.15
32.41 29.52 30.92 31.67 31.37 29.00 28.57 27.96 26.23 25.68 24.16 22.68 22.67 24.21 24.53 20.43 22.34 21.54 18.27 20.01 17.26 20.82 25.46 23.07 18.22 16.44 12.10 18.66 21.16 22.88 23.11 18.64 19.21 20.49 22.25 24.43 24.82 26.04
30.90 27.70 27.14 26.92 26.41 26.09 25.44 24.89 24.67 24.70 23.47 23.56 23.55 23.31 23.87 24.15 23.81 20.76 20.54 17.38 15.62 15.33 18.82 22.45 24.76 22.65 21.09 15.63 19.60 21.47 21.26 20.61 21.01 21.44 19.81 20.85 24.07 25.43
30.47 26.19 25.66 26.18 26.02 26.16 25.55 24.77 24.23 25.38 24.29 23.75 22.76 22.13 22.16 20.51 20.41 19.46 17.31 15.19 13.97 15.98 15.67 17.61 18.39 24.30 24.47 24.14 27.02 23.17 22.57 20.75 20.52 20.84 21.42 16.66 23.60 25.11
28.18 26.14 26.23 26.52 26.64 26.79 25.59 24.46 23.65 24.17 24.67 22.98 22.01 20.11 17.98 16.10 21.70 16.76 15.99 15.77 14.20 14.01 14.14 13.34 8.93 8.39 8.44 17.04 21.18 29.71 21.50 14.28 16.67 20.98 21.13 20.74 21.71 23.95
27.88 27.05 26.58 27.18 27.47 26.29 25.30 25.12 24.65 23.24 23.17 22.90 19.97 17.93 16.94 17.69 17.05 12.64 12.87 10.15 10.01 11.25 13.14 8.42 7.04 6.74 13.54 16.37 14.82 21.23 28.04 14.49 14.48 20.27 20.79 22.37 24.11 28.35
27.43 27.96 28.69 27.24 26.53 27.49 27.52 26.37 24.78 23.84 23.26 21.54 21.12 19.93 17.84 16.39 18.01 17.35 15.09 22.93 20.78 15.02 16.70 15.48 16.25 26.24 22.02 22.57 19.91 20.27 22.74 27.73 26.91 22.08 18.36 20.73 21.70 22.36
28.42 27.97 28.17 28.20 27.77 28.27 28.06 26.49 25.31 25.62 25.50 23.00 22.74 22.03 20.70 19.13 20.14 19.54 18.70 17.23 17.04 17.86 18.98 20.41 23.40 24.35 23.16 21.44 19.32 20.19 20.79 23.01 26.19 28.14 28.77 27.57 22.91 19.75
28.53 28.38 27.96 27.65 27.81 25.28 24.04 23.81 24.61 25.08 24.49 23.88 23.14 22.01 21.92 21.92 22.26 21.96 20.53 20.71 21.40 21.84 22.23 21.56 21.80 21.28 20.35 20.72 21.30 20.90 19.95 20.22 21.68 21.19 22.85 28.09 28.96 29.35

GFSNE_sfc_wetblb_072.txt.gz
Wetbulb
50.72 51.58 52.39 50.04 50.27 51.97 53.38 53.14 52.81 48.25 48.70 46.03 43.83 44.14 44.77 45.92 45.88 45.52 45.78 48.09 48.73 49.46 49.40 50.22 50.84 52.70 54.40 55.59 55.62 55.94 56.28 57.35 58.24 58.87 60.69 60.41 60.14 60.13
48.64 47.90 47.45 47.61 48.19 49.94 51.03 51.66 51.81 51.54 48.12 46.17 43.82 44.26 44.64 44.37 45.01 44.24 44.68 45.15 46.60 47.31 48.09 48.35 49.85 50.41 51.18 51.78 52.53 53.09 53.79 54.59 55.78 57.40 58.52 58.44 57.83 56.35
45.43 45.55 46.46 47.27 48.35 47.72 48.11 48.22 47.52 47.22 47.74 42.68 43.18 42.60 41.27 41.44 41.81 42.77 42.83 42.65 42.91 44.95 46.17 46.82 46.70 48.03 49.18 49.49 49.55 49.70 50.13 51.10 52.13 52.85 53.42 53.95 54.24 54.00
45.48 44.82 44.75 46.36 45.48 45.23 45.59 44.43 43.07 42.66 44.66 42.11 41.56 40.42 39.48 38.99 39.04 40.13 41.31 41.76 40.07 41.41 43.45 44.13 44.55 45.34 46.33 46.72 46.70 47.77 47.89 48.28 48.64 49.44 50.32 50.63 50.51 50.61
42.06 43.67 43.02 43.73 41.77 41.69 42.43 42.14 41.71 41.20 40.35 40.32 37.59 39.14 37.75 37.89 37.88 38.20 38.99 35.46 37.96 39.31 40.32 40.93 41.57 42.54 42.85 43.70 43.67 43.78 43.94 45.17 45.89 46.29 46.81 47.25 47.63 48.08
38.63 38.78 39.73 40.77 40.70 40.43 40.84 40.74 40.75 39.85 40.01 38.54 37.94 36.79 36.77 36.61 36.19 32.35 34.60 31.41 30.91 32.82 34.40 36.78 38.66 40.25 40.44 40.81 40.44 39.79 39.91 40.60 41.61 42.78 43.70 43.77 44.36 44.81
39.83 39.41 39.07 40.11 41.96 41.33 39.78 39.01 39.20 37.78 36.87 36.50 36.07 36.24 35.89 34.55 30.89 31.20 28.58 27.75 28.14 27.12 27.16 27.00 27.31 27.06 31.25 36.87 36.18 36.93 37.01 37.40 37.95 38.98 40.13 41.17 41.66 42.24
37.69 37.06 37.65 38.28 40.11 40.60 40.19 39.42 38.52 37.14 35.72 35.53 34.49 33.63 30.32 29.61 28.31 27.04 26.25 23.07 23.94 27.20 24.99 24.60 25.53 24.71 25.79 26.30 35.54 36.27 36.70 37.83 37.81 37.29 37.45 38.18 39.07 39.71
35.27 33.99 34.29 34.69 33.06 30.81 36.72 36.42 36.95 38.23 36.33 33.86 30.67 29.41 28.03 28.38 27.34 26.31 25.60 23.78 24.40 26.14 25.19 22.42 24.77 24.81 26.28 29.44 35.69 35.82 36.39 36.41 37.63 37.93 37.31 37.30 37.81 38.23
33.11 32.01 26.45 26.54 29.69 30.02 29.47 29.37 29.04 29.62 30.19 31.30 29.45 28.93 28.82 28.63 29.00 28.05 26.68 25.53 25.89 25.88 24.82 20.14 23.59 24.55 25.42 26.15 35.34 35.43 35.48 36.06 36.06 36.74 37.83 37.65 38.14 38.23
31.58 29.71 29.31 28.64 33.31 34.61 28.96 28.47 28.55 29.84 34.11 34.58 34.08 34.76 34.86 34.18 30.88 27.16 24.66 22.29 22.28 23.07 24.79 23.82 23.53 24.21 25.11 26.13 26.83 35.36 35.69 36.22 35.89 35.88 35.92 36.94 37.61 37.76
29.50 30.71 36.19 32.03 36.05 35.19 28.35 27.04 25.48 26.78 27.58 27.20 26.77 27.47 27.42 28.22 31.71 26.29 25.37 19.99 21.65 20.25 24.54 22.38 23.51 22.96 18.60 24.95 26.45 26.23 26.52 34.09 35.01 35.45 35.75 36.05 36.25 30.10
27.33 28.90 30.06 36.91 36.86 35.65 32.35 26.24 26.76 27.53 29.31 25.80 23.89 22.92 23.35 24.57 25.24 25.71 26.38 21.98 16.82 17.35 26.54 21.59 12.79 17.73 15.68 18.48 23.65 25.16 24.99 25.41 25.67 27.22 31.90 33.42 35.07 34.18
26.47 27.98 29.08 34.77 35.42 34.90 33.09 32.47 33.02 31.09 25.22 23.72 22.84 22.30 22.36 23.27 25.14 26.50 26.86 26.16 25.01 22.58 25.17 19.84 11.71 13.35 8.25 11.92 18.43 23.52 23.53 24.08 23.67 24.19 23.39 28.36 31.73 32.75
26.56 29.04 31.69 34.46 34.75 33.18 33.87 34.03 34.48 26.94 24.60 22.76 22.50 22.14 22.68 23.65 23.76 24.95 25.91 25.38 21.95 23.85 26.08 15.73 15.54 10.08 10.64 10.83 13.17 17.47 22.77 22.62 22.15 18.95 21.14 21.36 21.91 22.93
31.60 29.52 31.78 32.62 32.41 29.71 29.48 28.93 27.22 26.05 24.69 22.90 22.68 23.90 25.23 24.30 24.80 24.86 21.82 21.41 17.55 21.62 25.45 22.38 15.04 13.76 10.04 15.87 15.37 17.76 21.39 18.29 18.60 18.89 20.69 22.61 23.31 24.61
30.62 27.63 26.75 26.85 27.16 26.82 25.96 25.26 24.60 25.35 25.51 24.06 23.65 23.84 24.68 25.91 25.55 24.02 21.81 16.96 16.43 16.24 19.25 22.52 24.52 21.14 19.80 15.89 21.42 22.80 21.44 20.55 20.36 19.55 19.33 19.21 22.53 23.15
31.49 26.69 26.06 25.78 25.69 26.19 25.71 25.24 24.86 25.89 24.60 24.90 24.46 23.93 23.90 24.01 23.34 22.13 18.99 16.22 16.24 16.99 15.58 17.43 17.42 22.20 23.60 22.28 27.22 23.70 23.72 22.94 19.71 19.73 20.62 15.85 20.46 22.80
30.72 26.85 25.92 25.61 25.63 25.92 25.39 24.74 24.18 24.77 25.15 23.74 24.09 22.68 21.85 21.80 23.89 22.01 20.60 20.57 19.28 18.93 15.84 14.72 8.61 10.22 11.28 15.89 22.70 29.88 23.27 14.36 15.38 18.33 19.85 19.96 19.41 22.65
29.82 28.07 26.95 26.77 26.47 26.30 25.77 25.67 25.05 22.92 22.02 22.28 21.42 21.82 20.79 21.15 20.85 20.83 19.10 17.96 19.23 18.47 17.67 13.92 8.69 10.03 13.01 15.18 17.27 21.93 28.61 14.49 13.36 18.33 19.73 21.77 23.04 27.79
28.51 27.93 26.89 26.30 26.56 26.66 26.99 26.46 25.32 23.21 20.52 21.19 22.47 20.27 18.26 16.86 19.17 20.58 17.72 22.83 21.30 19.15 18.57 19.20 17.47 24.55 17.96 21.29 17.90 19.95 22.29 27.90 26.52 16.68 14.51 18.70 21.36 21.50
27.86 27.98 28.73 29.13 28.52 27.53 26.96 26.84 25.80 25.55 24.18 21.75 20.70 20.01 19.85 18.06 18.38 20.31 20.75 20.22 19.72 19.67 19.81 21.69 21.83 20.24 22.75 21.27 18.51 18.62 20.42 22.56 25.74 27.71 28.30 27.19 22.43 19.22
29.28 28.88 28.72 29.02 29.03 28.48 28.06 26.00 24.97 24.50 24.10 23.59 21.27 21.58 19.45 17.76 21.03 22.45 22.57 21.89 21.44 20.56 20.99 21.32 22.83 23.18 21.75 20.44 20.43 19.69 19.23 19.44 20.77 20.48 22.23 27.37 28.44 29.04

GFSNE_sfc_wetblb_075.txt.gz
Wetbulb
49.57 49.52 50.17 49.84 50.29 50.63 51.48 52.22 51.29 47.37 48.66 45.68 43.31 44.85 45.49 45.75 46.19 46.00 46.18 48.24 48.74 49.40 49.42 50.33 50.79 51.50 53.02 54.65 55.55 56.06 56.58 57.39 58.27 58.59 59.45 60.64 60.77 61.26
48.45 47.51 46.61 46.70 46.83 48.90 49.27 51.20 51.78 51.24 47.82 46.33 44.14 44.15 44.66 44.79 45.45 44.30 44.02 45.19 46.55 47.32 47.89 48.08 48.62 50.17 50.87 51.43 51.97 52.73 53.27 54.18 55.68 57.24 59.11 59.44 59.56 58.96
45.18 45.02 45.47 46.18 45.80 46.40 47.35 48.28 48.13 47.24 48.20 42.30 43.13 43.10 42.08 42.35 42.44 42.89 42.85 42.64 42.56 44.97 45.79 46.43 46.30 46.92 48.54 49.23 49.94 49.99 50.38 51.42 53.06 54.88 55.63 56.07 56.45 56.16
44.63 44.61 44.82 45.87 44.18 43.83 45.40 45.05 44.10 43.29 45.17 41.91 41.24 40.50 39.59 39.61 39.72 40.43 41.51 40.99 39.43 41.67 43.78 43.96 44.41 45.90 46.95 46.62 46.45 47.20 47.76 48.31 49.18 50.65 51.68 51.80 52.16 52.44
40.93 42.62 42.23 42.76 42.61 42.40 42.94 42.74 42.20 41.79 41.21 41.17 37.91 39.16 37.94 38.18 38.28 38.30 38.59 35.36 36.21 38.41 40.34 41.04 42.31 42.53 43.75 43.63 43.14 43.54 43.66 44.44 45.54 46.18 46.88 47.73 48.50 48.97
38.01 38.12 40.54 41.30 41.46 41.02 41.26 41.09 41.07 40.33 40.50 39.75 38.28 37.17 37.00 36.97 37.08 34.04 35.18 32.00 31.01 32.22 34.10 36.06 37.81 39.88 40.98 40.84 39.72 39.20 39.42 40.21 41.60 42.76 43.71 44.32 44.73 45.43
39.61 39.54 39.74 40.73 42.05 41.59 40.42 39.68 39.84 38.71 37.42 36.93 36.22 36.39 36.00 34.99 33.03 31.37 31.16 28.88 28.67 27.62 27.43 26.92 27.20 27.20 31.13 34.44 34.87 36.99 37.50 37.75 37.97 39.03 40.21 41.37 41.88 42.36
38.56 38.24 38.98 40.34 40.88 41.32 40.40 39.94 39.21 37.60 36.34 36.03 35.29 35.10 33.52 31.72 29.48 28.71 27.61 24.87 25.24 27.16 25.21 24.79 25.63 25.21 26.29 26.85 35.31 36.48 37.27 38.16 38.49 37.79 37.53 38.24 38.95 39.64
36.58 35.25 35.26 36.10 33.90 32.08 36.82 36.96 37.92 38.80 37.70 35.43 34.02 30.30 28.98 29.38 27.81 26.22 26.31 25.82 24.55 26.22 25.38 22.59 25.02 25.15 26.58 28.91 35.17 35.97 36.49 36.56 37.52 38.23 37.40 37.32 37.75 38.14
34.19 33.40 33.06 31.06 29.10 29.81 28.80 28.97 28.50 29.23 29.73 30.50 29.19 28.03 28.61 28.47 28.66 28.53 27.67 25.98 26.26 25.92 24.73 20.41 23.96 24.89 26.11 26.86 34.59 35.64 35.73 36.28 36.13 36.65 38.12 37.76 38.20 38.32
32.57 31.94 30.90 27.79 31.76 34.83 29.19 28.86 28.38 29.94 34.52 35.21 35.02 35.61 35.17 34.57 31.82 28.09 25.29 23.57 23.27 23.55 25.04 23.86 24.00 24.78 25.69 26.62 27.24 35.78 35.57 36.09 35.93 36.30 36.24 36.82 37.47 37.88
31.54 31.06 34.80 30.25 34.63 35.68 28.29 27.39 26.56 27.15 28.03 27.37 26.78 28.00 27.05 29.37 33.47 26.55 25.85 19.25 21.59 20.71 24.92 23.00 24.32 23.91 20.99 25.38 26.60 26.12 26.35 34.12 34.51 35.15 35.24 35.70 36.09 29.89
28.92 27.76 28.97 36.89 36.73 36.14 33.31 26.66 27.14 27.94 29.63 26.26 24.09 23.05 23.85 25.10 25.27 25.49 25.77 21.74 19.21 20.30 26.96 24.23 19.59 21.98 19.19 20.63 23.68 24.86 24.81 25.17 25.38 26.89 30.65 31.92 34.34 33.49
26.24 26.99 28.12 35.22 36.98 36.26 34.22 32.22 32.64 30.63 26.38 24.45 23.29 22.84 22.86 23.94 25.32 25.90 26.56 26.17 26.02 24.76 27.92 24.38 17.30 16.69 11.21 15.66 18.55 23.28 23.19 23.74 23.70 23.97 23.32 27.81 29.85 30.88
25.51 28.37 31.84 33.66 35.63 34.49 35.31 34.87 34.35 27.35 25.20 23.52 23.14 23.00 23.63 24.49 25.35 25.61 26.01 26.45 25.67 26.52 27.37 22.04 19.57 11.83 13.51 14.82 15.08 17.87 21.83 22.63 21.86 18.96 21.07 21.18 21.51 22.66
31.57 27.82 31.14 32.23 34.02 31.24 30.67 30.38 28.45 27.04 25.67 23.74 22.98 23.82 25.16 24.74 25.12 26.21 25.41 25.03 24.09 24.60 27.22 25.09 19.49 16.97 13.81 16.99 16.79 16.30 16.34 15.54 18.64 18.56 20.23 21.14 22.91 23.99
28.77 26.29 26.52 26.86 27.30 27.15 26.24 25.44 24.95 26.00 26.41 24.71 23.51 23.71 24.58 25.74 25.77 24.99 24.76 22.90 20.26 20.71 23.52 24.55 26.07 22.75 20.90 17.61 20.55 21.26 21.79 20.11 20.28 18.53 19.69 18.91 21.57 22.60
30.16 25.69 24.82 25.54 25.51 26.52 26.76 26.15 24.95 26.01 24.37 24.46 23.14 23.07 23.41 23.58 22.92 22.89 22.49 20.30 20.69 20.85 20.32 21.14 21.38 21.08 22.99 23.34 26.20 23.05 23.25 23.12 19.98 19.43 20.75 17.11 19.06 21.24
32.36 30.09 26.54 25.67 26.14 26.64 25.44 24.65 23.86 24.18 23.80 23.78 22.99 21.36 20.92 21.26 24.02 22.96 22.11 22.07 20.70 21.11 20.39 20.04 16.45 16.42 15.17 16.10 23.69 29.64 23.46 15.65 15.42 18.23 19.47 19.29 18.67 22.44
30.85 29.78 28.18 28.01 26.84 26.01 25.51 25.41 25.20 24.09 23.35 23.04 21.96 20.01 19.54 19.21 18.02 19.18 19.41 18.63 18.55 18.55 17.32 16.44 13.98 11.53 13.80 12.99 16.87 23.75 28.85 17.69 15.53 17.25 14.87 21.00 22.50 27.62
29.09 28.86 28.19 27.60 27.21 26.94 26.46 25.35 24.80 24.30 22.73 20.78 20.50 20.90 19.24 17.71 18.60 19.63 18.44 23.05 20.79 17.38 17.86 19.87 21.87 25.32 17.73 17.31 17.75 20.78 24.23 27.83 25.62 15.21 12.77 17.75 20.97 21.36
28.61 28.50 28.32 27.60 27.38 26.03 25.68 26.44 25.73 26.05 25.31 22.55 22.66 21.17 18.36 17.06 18.65 19.15 19.15 17.71 19.03 19.94 20.97 22.43 23.34 20.22 17.08 17.49 18.85 20.60 21.77 23.89 26.23 27.78 28.25 26.45 21.53 18.47
28.64 27.64 27.75 28.27 28.77 28.73 27.74 27.33 27.01 26.63 25.55 25.41 23.55 21.10 20.17 18.71 19.71 21.12 21.59 21.25 21.35 20.64 21.27 20.84 22.08 23.30 22.04 22.11 21.44 20.43 20.98 21.44 21.21 20.24 22.06 26.92 28.12 28.83

GFSNE_sfc_wetblb_078.txt.gz
Wetbulb
47.87 48.32 48.87 49.73 50.46 49.37 50.41 51.17 49.08 45.13 46.81 45.24 45.00 44.79 46.17 45.22 46.46 46.39 46.88 48.86 49.11 49.42 49.13 50.25 50.45 50.47 52.30 53.73 54.65 54.83 55.27 56.18 57.35 58.60 59.17 59.58 60.99 61.70
47.80 47.60 47.21 47.04 46.99 47.19 49.33 49.71 50.06 48.39 45.35 46.25 44.32 44.10 45.12 45.29 45.88 44.72 45.20 45.79 46.70 47.22 47.76 47.93 48.16 49.01 50.67 51.51 52.06 52.43 53.42 54.79 56.11 57.55 59.24 59.34 59.96 60.58
44.70 44.60 45.18 45.36 45.53 45.58 47.84 47.37 46.56 47.66 47.21 42.82 43.44 43.41 42.94 43.29 42.98 43.12 43.34 42.77 42.81 44.90 45.73 46.31 46.30 46.77 48.05 48.64 49.80 50.43 50.89 51.85 53.16 54.18 55.03 56.68 58.31 58.78
43.43 43.40 43.53 45.36 43.25 43.24 43.35 43.38 44.26 44.12 44.91 42.76 41.37 40.64 40.12 40.57 40.69 41.04 41.68 40.87 39.69 41.62 43.98 44.06 44.77 45.99 46.05 45.61 46.18 46.76 47.49 48.17 49.14 50.69 52.01 52.71 54.25 54.80
39.57 40.13 41.30 41.14 40.52 40.97 42.73 43.18 42.68 42.23 41.89 41.66 38.43 39.41 38.35 38.71 38.65 38.87 38.69 37.16 35.32 38.31 40.35 42.12 42.91 43.04 44.24 43.73 42.70 43.00 43.52 44.56 45.58 46.39 47.22 48.55 49.36 49.92
37.49 37.57 39.22 41.65 42.11 41.75 41.64 41.73 41.57 40.40 40.73 40.35 39.01 37.62 37.39 37.49 37.60 35.26 35.56 33.90 31.19 32.19 34.36 35.91 37.47 39.56 41.46 40.76 39.33 38.89 39.36 40.33 42.15 43.34 44.20 44.61 45.43 46.55
39.93 39.71 40.15 41.01 42.30 42.07 40.89 40.35 40.26 39.42 37.88 37.27 36.61 36.75 36.15 35.29 34.58 34.09 32.96 30.16 28.08 28.26 28.36 27.87 28.19 28.16 31.23 33.12 35.22 37.66 38.32 38.92 38.49 39.42 40.91 42.09 42.64 43.29
39.49 38.88 39.99 41.06 41.30 41.89 41.11 40.68 39.81 38.12 36.84 36.28 35.94 35.80 35.47 34.30 31.91 31.05 27.11 23.87 24.95 27.57 26.48 26.11 26.40 25.90 26.84 28.87 35.80 36.93 37.76 38.34 38.84 38.03 37.90 38.84 39.62 40.31
37.39 36.29 36.17 37.14 35.01 34.49 37.37 37.39 38.33 38.40 38.35 36.41 35.10 34.05 32.96 31.69 28.99 26.05 26.41 26.47 25.75 26.93 25.96 24.38 25.61 25.55 27.19 28.86 35.21 36.32 36.76 36.83 37.87 38.32 37.60 37.60 38.12 38.43
34.92 34.43 34.26 32.70 32.25 31.99 28.95 28.44 27.95 29.51 29.19 30.30 30.54 29.87 29.40 29.84 29.47 28.80 27.98 26.68 26.14 26.20 25.67 21.75 24.24 25.18 26.53 27.11 34.55 36.06 36.09 36.56 36.38 37.21 38.22 38.27 38.47 39.14
33.78 33.94 33.42 32.10 33.60 35.62 28.76 27.74 27.60 28.67 34.93 36.16 35.95 35.76 35.36 34.57 31.54 28.00 26.51 23.63 23.91 24.35 25.45 24.15 24.10 24.70 25.63 26.89 28.23 36.17 35.88 36.41 36.16 36.89 36.88 37.12 37.66 37.95
33.12 32.20 35.78 30.99 33.72 36.48 27.02 26.11 25.42 26.34 27.35 27.57 26.83 27.08 28.44 31.31 34.16 27.66 27.71 24.62 23.58 22.63 25.26 24.03 24.75 24.44 22.77 26.28 27.57 27.57 28.09 34.13 34.83 35.26 35.32 35.75 36.02 30.49
31.96 30.98 30.96 36.77 35.80 36.94 33.00 25.32 26.34 27.93 29.88 25.60 23.84 24.00 24.26 25.79 25.46 26.11 27.06 23.64 19.69 20.54 27.19 24.34 22.05 24.42 23.40 24.01 25.21 26.00 26.11 26.49 26.49 27.48 30.48 32.26 34.17 33.02
29.19 28.52 27.84 34.71 37.36 37.68 34.73 32.35 32.63 31.05 26.81 24.64 23.34 22.50 22.23 23.36 25.06 26.29 26.62 26.08 26.03 24.70 27.93 24.58 20.58 22.30 20.64 17.88 20.56 23.89 24.20 24.62 24.63 25.41 25.00 28.21 29.44 30.43
26.10 28.53 31.74 34.26 36.61 36.15 36.35 35.60 34.27 25.88 24.50 23.20 23.07 23.33 24.40 24.52 25.10 25.15 25.89 26.40 26.23 27.42 28.18 26.05 25.02 17.57 16.30 16.30 18.56 19.65 23.17 23.66 24.00 21.52 23.06 23.03 22.82 23.46
32.40 28.51 31.08 31.84 33.48 32.28 32.04 31.95 29.25 27.18 25.71 23.44 22.22 23.22 24.29 23.06 24.64 25.79 24.46 24.53 23.04 24.55 28.22 25.03 21.47 19.77 15.92 17.78 17.95 16.81 19.29 18.57 21.19 21.05 22.47 22.18 23.31 24.30
28.71 26.72 26.47 26.35 27.15 27.04 26.22 26.18 25.20 26.28 26.47 24.31 22.63 22.62 24.15 25.38 25.53 25.20 24.47 22.20 18.71 19.64 22.91 25.15 26.27 23.91 22.89 20.83 19.86 21.41 21.68 20.73 19.94 18.30 20.30 19.08 22.48 23.04
29.04 26.30 25.01 25.68 26.34 26.62 26.39 25.94 25.03 25.95 24.78 25.72 22.87 22.43 22.99 23.49 23.40 23.03 21.79 20.81 19.45 19.43 20.58 22.51 22.99 21.27 22.94 25.03 26.46 23.40 23.83 22.46 19.10 19.49 20.75 18.64 20.26 21.72
31.12 28.38 26.28 25.88 26.17 26.32 25.35 24.53 23.67 24.60 24.23 22.75 22.71 21.52 21.22 20.37 23.38 21.02 19.31 18.94 18.35 18.33 18.03 18.10 15.51 15.66 13.92 16.80 24.42 29.26 21.97 20.65 18.40 20.15 19.86 19.76 18.62 24.16
32.43 31.35 30.16 27.95 26.89 26.22 25.56 25.00 24.44 23.67 23.33 23.50 21.58 19.21 18.88 19.48 16.06 18.16 19.20 15.59 13.90 15.03 14.72 10.09 9.92 7.65 11.85 13.91 13.86 23.13 29.33 19.42 16.62 18.26 19.06 22.00 23.38 27.81
31.28 30.91 30.14 29.41 28.65 27.96 27.16 26.00 25.43 24.64 23.93 21.62 21.44 20.05 18.83 14.57 16.34 17.99 16.75 23.15 20.02 12.01 13.00 14.27 16.65 23.77 15.27 13.33 13.44 19.17 23.25 27.93 26.59 18.16 15.62 17.90 20.70 22.03
30.91 30.36 30.03 29.34 28.54 27.70 26.95 26.56 24.73 25.45 25.13 22.89 22.16 21.39 20.48 18.35 16.01 17.08 18.07 16.83 17.06 17.17 16.18 16.06 22.05 22.93 14.72 15.89 15.69 17.84 21.66 25.00 27.54 28.70 28.74 25.52 19.35 17.45
30.65 29.24 29.21 28.27 27.77 27.24 26.58 25.86 25.58 25.49 25.88 25.47 24.11 22.91 20.29 16.61 19.05 20.64 19.46 19.53 16.93 16.69 16.80 18.12 21.34 22.36 19.00 19.39 19.56 19.07 20.39 21.76 22.98 21.67 22.98 27.21 28.10 28.50

GFSNE_sfc_wetblb_081.txt.gz
Wetbulb
51.86 52.20 52.14 52.77 53.40 54.14 53.88 53.66 50.80 45.91 46.58 50.92 48.84 48.61 50.17 49.58 48.64 47.97 49.53 49.37 49.89 49.78 49.56 49.69 50.06 50.76 51.78 53.18 53.81 54.60 55.49 56.28 57.09 58.40 59.18 59.33 59.59 60.39
50.78 51.16 51.47 52.03 51.97 51.80 52.08 52.26 51.54 49.33 45.64 50.12 47.26 46.90 47.85 46.78 47.24 46.36 46.54 46.65 47.22 48.00 48.10 48.04 48.13 49.00 50.34 51.31 51.91 52.55 53.18 54.40 55.41 56.55 58.80 59.26 59.85 60.40
48.88 48.95 48.86 49.49 49.79 50.06 50.81 50.86 49.97 50.16 46.99 45.74 45.53 45.30 45.04 44.85 44.46 44.29 44.31 43.67 43.70 45.34 45.97 46.38 46.52 47.13 47.92 48.78 49.57 50.05 50.59 52.06 53.71 54.88 56.28 57.62 59.50 60.10
46.76 46.91 47.06 47.11 48.08 48.52 48.88 48.22 47.41 48.14 47.20 46.18 43.72 42.11 41.95 42.39 42.23 42.19 42.13 41.22 40.61 41.69 44.40 44.41 45.42 45.80 45.65 45.52 46.32 46.86 47.40 48.22 49.36 51.04 52.13 53.49 55.62 56.35
43.38 43.88 45.07 45.77 45.81 45.82 46.17 46.23 46.59 45.13 45.08 45.03 42.30 41.97 41.06 40.52 40.00 40.07 39.37 38.22 36.40 39.23 41.08 43.17 43.42 43.93 44.40 43.14 42.33 42.77 43.73 45.09 46.09 46.79 48.03 49.43 50.62 52.02
41.82 42.15 42.82 44.04 44.59 44.41 43.68 43.86 43.57 42.83 42.52 42.35 41.46 39.87 39.31 39.00 39.19 36.98 36.70 36.38 34.53 35.81 36.45 37.09 38.03 40.30 42.18 40.06 39.36 39.38 39.85 40.84 42.97 44.39 44.97 45.59 47.06 48.12
41.89 42.05 42.13 42.16 42.62 43.12 42.58 42.37 42.05 41.44 41.04 40.16 39.12 38.71 37.58 36.41 36.21 36.29 36.06 33.76 32.73 35.28 35.41 35.15 34.97 34.71 37.26 35.36 36.71 38.31 39.40 39.71 39.06 40.57 42.26 43.14 43.95 44.98
41.80 41.39 41.58 42.29 42.44 42.64 42.04 41.56 41.23 39.81 38.79 38.64 38.58 37.59 37.63 37.16 34.85 34.32 32.82 32.14 35.06 33.52 32.98 33.02 32.96 32.81 33.03 35.29 36.53 37.40 37.91 38.95 39.12 38.26 38.73 39.93 40.83 41.67
40.40 39.72 38.21 38.64 37.69 38.18 39.52 39.03 38.99 38.23 38.90 38.86 37.33 37.13 35.71 35.41 33.59 31.11 32.29 33.27 30.87 31.01 31.69 30.63 31.02 31.38 32.45 32.85 35.92 36.77 37.23 37.28 38.57 38.28 37.69 38.03 38.69 39.06
36.95 36.86 36.80 34.98 34.69 34.39 32.94 33.01 32.76 34.16 33.62 34.23 36.48 35.52 35.37 35.31 35.51 35.06 34.16 31.82 30.51 30.38 30.43 28.83 30.18 30.51 32.20 33.35 34.66 36.53 36.55 36.90 36.91 38.53 38.40 38.64 38.79 39.27
37.42 37.30 36.44 34.97 36.18 36.69 32.48 31.38 31.67 33.06 36.14 36.51 35.51 35.43 35.40 34.93 33.99 32.96 30.97 29.18 27.46 28.75 29.59 29.27 28.94 29.54 30.72 31.83 33.63 36.58 36.28 36.80 36.67 37.47 37.72 38.05 38.94 37.78
35.63 35.02 37.42 34.59 36.91 37.80 32.13 31.44 30.07 30.79 31.61 31.77 31.98 31.12 32.83 35.69 34.02 32.42 31.90 30.13 28.99 27.56 28.97 28.90 28.25 28.63 28.27 30.43 31.55 32.16 32.49 34.54 36.03 35.69 35.95 36.26 36.36 36.03
34.91 34.15 33.33 38.30 35.96 36.70 34.31 30.93 30.62 31.68 31.93 29.87 28.94 28.52 29.27 30.52 30.32 29.76 31.00 30.82 28.92 28.64 29.60 29.85 28.69 28.10 28.46 28.50 29.03 29.85 30.67 31.16 31.05 31.51 31.21 32.69 34.43 34.64
34.22 34.85 33.44 36.93 37.69 37.25 36.24 32.89 32.90 32.13 30.94 28.86 27.61 27.16 26.71 27.61 28.81 29.62 29.32 29.61 29.80 29.83 32.00 29.93 28.95 28.48 27.44 26.01 26.31 28.11 29.55 29.99 29.67 30.06 30.41 30.74 30.00 30.61
33.69 33.98 34.15 35.57 36.74 37.73 37.40 36.10 34.40 30.56 29.29 27.53 26.82 26.58 27.38 28.50 29.05 28.60 28.88 29.01 29.23 29.72 30.02 29.29 29.79 26.85 27.82 27.27 27.11 27.31 28.03 28.47 29.13 29.06 28.80 28.97 29.38 29.56
32.81 33.08 33.59 34.02 35.23 35.26 35.51 35.65 32.06 30.56 28.90 28.02 27.00 27.30 26.95 27.02 27.21 28.61 28.08 28.19 28.22 28.15 29.55 29.01 27.42 26.42 26.66 26.85 26.66 27.00 27.40 27.29 28.19 28.07 28.43 28.63 29.11 29.31
31.90 30.34 30.51 30.30 30.38 31.32 31.15 30.86 30.82 31.24 30.25 28.95 27.56 26.13 25.90 26.64 26.68 28.19 28.39 27.70 26.36 26.34 26.63 27.72 28.25 27.63 27.78 27.08 25.47 26.16 26.17 26.03 27.61 27.80 26.44 26.58 27.87 28.72
29.95 28.21 27.91 28.90 29.09 29.36 29.36 28.65 28.40 29.08 29.09 29.68 28.41 27.49 26.54 26.67 27.02 27.13 27.15 26.88 25.96 25.69 26.19 27.31 27.42 26.68 26.54 27.67 28.45 26.29 26.78 26.96 28.21 27.72 26.75 24.78 26.19 29.08
31.00 29.77 29.69 28.64 28.70 28.84 29.67 29.43 28.54 28.58 28.88 28.59 28.61 27.55 27.02 26.45 27.29 26.33 26.39 25.92 25.01 25.37 25.84 26.18 25.55 24.76 22.69 21.41 27.15 29.78 26.56 27.39 27.16 26.83 27.10 26.61 26.47 28.20
33.64 31.42 30.11 29.57 28.89 28.68 29.13 29.09 29.10 28.35 27.51 27.51 26.99 26.68 26.40 26.18 24.87 25.51 25.22 24.20 24.71 24.75 24.46 23.95 23.40 23.49 23.13 22.60 23.37 26.48 29.24 27.97 26.90 26.65 26.58 27.10 27.93 29.21
33.27 32.92 32.18 31.45 30.40 30.17 29.92 29.72 29.55 28.49 28.64 27.52 27.23 26.06 25.64 24.84 24.03 24.97 25.09 25.49 24.44 23.16 22.68 23.32 24.45 25.98 23.32 22.68 21.51 23.19 26.29 28.41 29.13 26.86 25.90 24.48 24.37 25.24
33.39 33.18 32.63 32.49 31.73 31.20 30.92 30.22 29.36 29.53 29.20 27.63 27.25 27.07 26.25 24.08 24.21 23.73 23.50 23.44 24.55 25.18 23.63 24.37 24.84 24.55 22.11 22.01 22.47 23.21 24.37 26.71 28.62 29.38 29.76 27.91 25.60 22.23
33.05 33.19 32.88 32.40 32.19 31.60 31.05 30.18 29.19 29.35 29.32 29.17 28.27 27.04 26.56 24.20 24.09 24.42 24.04 23.30 23.44 22.62 22.64 23.05 24.49 25.31 23.99 22.70 22.66 22.78 22.61 23.58 25.31 25.47 26.13 28.72 29.15 29.83

GFSNE_sfc_wetblb_084.txt.gz
Wetbulb
55.26 54.87 53.78 54.20 54.61 55.16 55.02 54.45 51.83 48.58 49.42 52.20 52.50 53.28 53.73 52.62 51.03 50.42 51.02 50.18 50.30 49.87 50.00 49.57 49.68 50.83 52.02 52.78 53.53 54.28 54.93 55.60 56.23 56.94 58.61 59.26 58.53 59.32
53.22 53.15 53.55 54.29 54.26 54.81 54.57 54.04 53.66 51.94 47.97 51.74 52.58 51.61 50.51 49.09 49.10 48.87 48.30 47.40 47.55 48.24 48.15 47.99 48.07 48.88 49.54 51.13 51.61 52.50 53.40 54.53 55.47 56.56 57.89 59.05 59.65 59.81
51.69 52.44 52.37 52.80 53.01 53.43 53.18 51.73 51.43 52.12 48.64 49.31 48.38 47.84 48.56 47.61 45.87 45.70 45.63 44.74 44.59 45.87 46.15 46.46 46.49 47.72 47.85 48.22 48.88 49.42 50.37 51.42 52.97 53.92 55.19 57.17 58.86 59.79
50.06 50.44 50.53 50.15 50.87 51.85 51.64 50.16 50.54 51.07 49.43 46.74 46.20 44.82 44.76 44.71 43.92 43.06 42.66 41.52 41.10 42.21 44.73 44.53 45.78 46.04 45.69 45.28 45.32 46.45 47.36 48.02 48.69 50.42 51.62 53.11 55.06 57.60
48.89 48.34 48.85 49.07 49.27 49.57 49.77 49.49 49.36 48.02 48.54 47.40 46.59 45.80 44.05 42.82 41.93 41.50 40.25 38.76 37.16 39.92 42.35 43.56 43.95 44.69 44.51 42.72 41.59 42.04 43.39 45.07 46.19 46.71 47.87 49.39 50.93 53.18
46.22 46.85 47.39 47.81 48.81 49.00 48.05 47.83 47.59 46.83 46.62 45.66 45.37 43.05 42.04 41.21 41.02 38.99 37.84 37.78 35.41 36.42 37.70 39.16 39.67 41.38 42.32 39.98 39.18 39.45 40.20 40.75 43.05 44.79 45.53 46.16 47.38 49.00
45.26 45.79 46.36 45.78 44.21 46.36 46.19 46.40 45.35 44.47 43.89 42.98 41.64 40.65 39.76 38.36 37.87 38.25 37.47 35.84 34.59 35.81 37.04 39.69 39.34 39.27 41.01 37.27 37.64 38.42 39.41 39.96 39.74 40.99 43.09 44.03 44.54 45.86
44.45 44.60 44.59 42.41 43.45 44.16 43.72 42.64 43.87 43.21 41.57 40.53 40.47 39.56 39.82 39.24 37.80 36.19 35.22 33.93 34.44 36.73 38.38 38.50 36.67 36.64 36.60 37.82 36.79 37.44 37.74 39.06 39.16 38.28 39.43 40.91 41.74 42.57
44.10 43.63 43.18 42.75 42.06 43.10 41.86 41.58 41.14 40.10 40.43 41.33 39.32 39.42 39.10 38.82 37.00 34.69 34.03 34.85 36.35 34.93 35.90 34.43 33.65 33.33 35.10 34.61 36.30 37.01 37.34 37.47 38.67 38.16 37.81 38.58 39.22 39.76
39.85 40.43 42.22 40.58 39.31 39.14 37.25 36.18 37.71 38.12 37.87 38.75 40.63 40.48 39.15 38.02 37.84 37.50 37.37 38.03 35.80 34.40 33.83 31.58 32.02 32.67 33.97 35.37 34.82 36.88 36.86 36.96 37.20 38.75 38.71 38.78 38.98 39.25
38.86 41.57 42.15 40.47 38.96 38.70 35.64 34.64 35.21 35.73 36.84 36.31 36.00 36.33 36.54 36.86 38.53 37.59 35.48 34.42 32.92 32.23 32.42 31.12 30.47 31.66 32.71 33.92 36.48 37.05 36.49 36.79 37.28 37.80 38.46 39.08 39.41 38.48
40.50 40.94 39.81 39.45 39.21 39.24 35.67 36.21 33.81 34.45 35.24 36.13 35.73 36.17 37.09 36.34 34.53 36.32 36.54 34.80 33.23 30.93 32.10 30.47 30.40 31.25 29.85 33.26 34.31 35.40 36.00 35.72 37.30 36.46 36.63 36.65 36.47 37.11
37.62 38.07 39.04 39.48 39.05 39.86 37.87 35.57 34.24 35.39 34.04 33.78 32.92 32.66 34.09 35.46 34.62 33.46 34.37 34.87 33.15 32.15 32.54 32.94 31.94 31.01 31.67 31.11 32.03 32.91 33.04 32.98 33.49 33.58 32.48 33.07 34.46 35.21
37.56 38.82 39.17 38.95 38.53 37.69 38.01 35.84 34.02 33.84 34.15 32.32 31.46 31.11 30.93 31.34 31.75 32.36 31.71 32.36 32.48 32.49 33.44 32.98 32.18 31.98 31.29 29.95 29.49 30.15 31.20 32.76 32.86 32.66 32.98 32.60 32.07 32.13
39.78 39.27 38.52 38.31 39.51 37.39 38.16 36.03 34.63 33.47 32.24 31.02 30.44 30.90 31.47 32.20 32.17 31.22 31.31 31.16 31.24 32.02 32.05 31.98 32.88 30.94 31.44 30.52 30.25 30.03 30.14 30.98 31.84 32.01 32.02 31.82 32.13 32.60
36.80 36.50 37.26 37.56 37.66 37.82 37.54 37.06 34.89 34.09 32.14 31.42 31.22 31.65 30.81 29.91 29.92 31.24 30.41 30.52 30.51 30.54 31.18 31.41 31.09 30.29 30.12 29.70 29.91 30.04 30.71 29.91 31.11 30.60 30.86 31.09 31.25 31.33
34.08 32.59 32.81 33.47 33.22 34.52 35.88 36.37 35.91 34.04 31.95 31.72 30.69 29.17 28.49 28.98 29.05 30.63 30.49 30.41 29.59 29.30 29.11 29.95 30.23 30.44 30.59 29.65 28.20 29.12 29.36 29.67 30.93 31.14 29.53 29.06 30.75 31.44
31.25 29.16 29.89 30.72 30.67 32.04 32.32 33.46 34.04 33.96 32.98 32.67 31.77 31.03 29.64 28.72 28.95 29.46 30.30 29.65 29.15 29.12 28.91 29.90 29.55 29.16 29.23 30.24 30.86 28.99 29.85 29.67 31.32 30.60 29.39 28.09 29.25 32.35
31.87 30.59 29.15 29.16 30.18 31.95 32.75 33.27 32.40 32.47 32.94 32.72 32.61 32.04 31.29 30.39 29.75 28.84 28.73 28.94 28.61 28.90 29.16 30.06 29.17 27.98 26.22 25.16 29.73 31.01 29.31 30.10 29.96 29.15 29.97 29.67 29.32 31.29
35.30 32.12 31.33 30.69 31.61 32.13 32.65 32.97 32.90 32.34 31.02 31.15 31.54 31.87 31.33 30.63 28.90 29.05 28.79 28.12 28.14 28.27 28.06 28.80 28.07 28.00 26.60 26.47 26.77 29.45 30.20 29.65 29.45 29.25 29.64 30.57 31.61 31.90
35.32 33.13 32.62 32.97 33.58 33.36 33.09 33.20 33.09 32.29 31.72 31.23 31.10 30.62 30.44 30.33 29.28 29.37 29.18 28.37 27.85 27.63 26.30 27.19 29.11 29.74 29.18 26.39 23.47 25.83 29.20 29.24 30.00 29.81 29.23 26.65 26.65 27.74
35.08 34.30 33.62 33.60 34.22 34.39 33.62 32.92 32.38 31.99 31.76 31.33 31.33 31.10 30.62 30.01 29.06 28.54 28.14 27.58 27.69 27.92 27.23 29.43 27.57 27.34 24.71 23.58 24.14 26.82 27.87 29.34 30.13 29.79 30.21 28.95 26.72 24.27
34.68 34.74 34.47 33.95 34.74 34.69 33.80 32.59 32.08 32.50 32.54 32.11 31.55 31.10 30.76 29.27 29.04 29.20 28.80 27.70 27.96 27.22 27.72 26.78 26.82 26.86 25.44 25.37 25.29 25.80 26.24 26.30 26.94 27.31 28.53 30.62 30.27 30.34

GFSNE_sfc_wetblb_087.txt.gz
Wetbulb
58.41 56.79 55.57 55.45 55.80 55.60 55.45 54.68 51.76 47.81 48.75 51.24 51.20 52.88 53.35 52.41 50.59 51.63 50.87 50.85 50.95 50.70 50.44 49.63 49.49 50.09 51.44 52.47 53.26 53.79 54.68 55.42 56.04 56.63 57.46 58.28 59.35 59.01
55.19 53.98 53.33 53.89 53.84 54.58 54.69 54.17 53.57 51.21 48.64 51.05 51.97 51.48 50.87 49.84 48.69 49.80 48.63 48.18 48.47 48.94 48.48 48.09 47.93 48.53 49.25 50.16 50.90 51.27 51.99 53.07 54.12 55.23 56.24 57.16 58.52 59.64
53.11 53.04 52.73 53.25 53.17 53.53 53.58 53.15 52.51 52.36 49.32 50.42 50.13 49.24 49.15 48.94 46.73 46.62 46.26 45.24 45.25 46.10 46.33 46.55 46.68 47.72 47.35 47.40 48.02 48.65 48.91 50.08 51.61 52.86 54.12 55.12 56.38 59.15
51.24 51.88 51.92 51.72 51.76 52.35 52.08 51.18 50.65 50.65 49.34 47.81 48.04 46.05 46.40 46.22 44.87 43.70 42.97 42.00 41.45 43.34 45.00 44.99 45.85 46.28 45.72 45.10 44.87 44.81 46.20 47.42 48.10 49.26 50.96 52.16 53.51 55.92
50.67 50.04 50.19 50.00 49.29 50.15 50.11 50.13 49.54 49.11 49.57 47.92 45.53 46.23 45.15 43.79 42.54 42.31 41.16 39.79 38.42 41.27 43.18 44.01 44.35 45.31 44.67 42.72 41.82 41.44 42.42 44.28 45.87 46.81 47.68 48.86 50.38 52.77
48.51 48.59 48.53 48.48 48.63 49.16 48.64 48.94 48.56 47.80 47.67 46.26 45.52 43.74 43.45 42.61 42.22 39.66 38.45 39.02 36.72 37.21 38.83 39.40 41.04 42.24 42.26 40.39 39.64 39.71 40.77 41.33 42.39 44.66 45.79 46.29 47.38 48.92
46.43 46.65 47.00 46.73 45.45 47.19 48.15 47.70 46.88 45.49 44.89 44.11 43.11 41.92 40.81 38.95 38.46 39.33 37.76 36.48 35.98 35.97 35.55 37.16 37.33 39.13 39.28 37.66 37.70 38.71 39.33 40.31 40.49 41.04 43.34 44.43 44.98 46.35
44.94 45.26 45.15 43.21 43.45 44.38 44.27 43.74 45.74 44.38 42.99 41.63 40.73 39.84 40.06 39.70 38.63 36.56 35.67 33.62 33.64 36.03 34.72 35.64 34.46 34.58 34.52 35.24 37.23 37.65 37.92 39.25 39.76 38.98 40.13 41.66 42.70 43.59
43.97 43.88 43.55 43.63 43.78 43.46 43.30 42.74 42.19 41.90 41.22 42.57 39.90 39.61 38.82 39.28 37.33 35.25 34.63 34.54 34.51 32.73 34.05 33.39 32.00 30.88 31.95 33.84 36.79 37.30 37.44 37.84 39.04 38.57 38.31 39.42 40.23 40.93
41.98 42.02 42.44 40.95 40.82 41.75 40.15 38.31 37.83 38.11 38.32 39.23 40.61 40.90 40.41 39.22 38.17 37.20 35.72 35.21 34.10 33.06 32.21 29.06 29.42 29.11 30.89 32.07 35.42 37.28 37.03 37.16 37.75 38.90 39.13 39.22 39.43 39.79
39.53 40.37 42.02 41.66 41.87 41.89 38.06 35.79 36.28 36.32 36.48 36.36 36.89 38.01 38.23 39.95 39.67 36.77 35.33 33.23 31.28 29.95 30.20 28.42 27.79 28.15 29.05 30.07 33.44 37.53 36.77 36.99 37.50 38.88 39.38 39.90 39.76 39.64
40.00 40.64 42.16 42.07 41.96 41.23 37.05 35.55 33.29 33.10 33.89 34.51 34.82 35.55 36.68 35.99 36.27 34.16 34.50 31.85 31.58 28.59 29.62 28.00 27.18 27.66 25.62 29.56 31.54 33.12 33.83 37.08 38.09 37.34 37.51 37.34 36.90 34.43
38.99 39.25 40.27 41.21 41.18 41.44 39.16 36.32 35.26 34.78 34.68 32.98 31.89 31.96 32.75 33.13 31.59 30.93 32.23 32.71 30.48 29.65 30.20 30.30 28.22 27.46 28.23 27.63 28.63 30.66 30.64 31.03 31.21 32.72 34.51 34.18 34.81 34.93
37.09 38.18 38.72 40.77 40.23 41.00 40.29 37.77 36.13 35.63 32.30 30.59 29.29 28.42 28.42 29.99 29.52 30.04 30.03 30.29 30.37 31.07 30.27 30.26 28.13 27.62 27.72 26.71 26.56 27.72 28.80 29.90 30.13 30.20 30.96 32.80 33.45 33.58
39.11 39.60 40.73 39.90 40.27 39.31 39.39 38.45 35.83 31.45 30.77 29.46 28.47 28.61 29.76 30.66 29.96 28.64 28.69 29.35 29.06 29.98 30.72 27.44 28.32 25.37 26.27 25.50 25.78 26.11 26.82 28.16 29.06 28.01 28.37 28.21 28.36 29.48
40.03 37.96 38.37 38.43 39.55 37.49 36.49 36.64 32.95 32.07 30.12 29.49 28.84 29.50 29.74 28.40 28.22 29.10 27.59 27.62 27.25 26.76 29.69 27.85 25.68 24.83 24.24 25.21 24.95 24.52 26.19 24.19 26.71 27.41 27.82 28.18 28.91 28.83
36.82 34.78 34.90 35.02 35.23 35.07 35.00 34.85 34.03 32.12 30.18 29.39 28.38 27.62 27.35 27.77 28.08 28.98 28.40 27.39 25.77 26.24 25.93 27.17 28.19 27.61 26.54 23.32 22.66 25.19 24.85 24.79 26.07 26.30 25.97 24.76 26.99 28.81
33.39 31.67 32.30 33.36 32.95 33.11 33.35 33.93 33.69 33.82 31.48 30.41 29.32 28.06 26.41 26.78 27.56 27.80 28.11 26.34 25.11 25.59 25.62 26.40 25.36 24.48 25.15 26.83 29.85 24.52 24.91 24.67 25.90 26.25 25.71 21.37 23.77 28.19
32.75 31.65 30.43 29.88 30.35 31.08 32.08 33.17 33.02 33.53 32.35 31.62 30.64 30.01 28.10 27.56 28.09 27.10 27.09 26.74 25.78 25.61 25.28 26.00 24.31 22.05 19.85 19.80 25.89 31.67 22.62 24.39 24.57 24.30 24.86 24.61 22.34 25.77
34.42 33.02 31.24 30.33 30.30 30.56 30.89 31.71 32.59 32.15 31.54 31.59 31.09 30.68 29.43 28.36 27.26 27.18 27.15 25.12 24.76 24.58 23.82 23.70 22.70 22.09 20.02 19.74 20.41 23.95 31.22 22.74 23.30 23.01 23.56 27.47 27.79 33.24
36.13 33.90 33.91 32.75 31.08 30.86 31.40 32.31 32.62 31.53 30.57 30.15 30.26 30.15 29.63 28.97 27.80 27.52 27.62 29.06 28.09 24.89 22.55 24.03 25.70 30.63 22.62 20.91 17.59 21.15 24.67 30.80 28.97 23.72 27.80 26.65 24.26 23.55
36.19 36.00 34.21 33.58 32.92 32.86 32.89 32.35 32.00 31.74 30.67 30.18 30.06 29.70 29.38 29.14 28.07 27.10 27.66 26.89 26.39 25.62 23.35 24.84 22.57 23.28 18.59 17.52 16.25 18.76 23.75 26.48 29.28 30.68 30.56 29.59 23.55 16.80
35.80 35.64 34.64 33.97 33.87 33.86 33.72 32.63 31.36 31.13 31.15 30.93 30.36 30.08 29.85 28.33 28.41 27.99 27.44 27.49 27.36 25.86 25.08 23.84 24.13 22.78 20.61 19.91 19.84 18.78 21.71 26.23 26.71 25.41 27.28 30.91 31.13 31.06

GFSNE_sfc_wetblb_090.txt.gz
Wetbulb
58.10 58.26 56.87 55.68 55.33 55.01 54.60 52.91 49.94 45.82 46.91 48.84 48.83 49.86 49.93 49.46 50.38 50.83 48.73 51.78 51.61 51.42 50.81 50.02 49.68 49.95 50.50 51.90 52.59 52.94 53.46 53.81 54.52 55.25 55.90 56.43 57.18 58.70
56.66 55.44 53.75 53.66 53.79 53.59 53.17 52.55 51.72 49.43 46.01 48.05 48.12 48.45 48.40 48.84 49.26 48.98 47.91 48.51 49.50 49.55 48.98 48.44 48.16 48.63 49.27 49.69 50.35 50.57 50.95 51.39 52.34 53.22 54.08 55.24 56.05 57.49
53.33 53.66 52.46 51.87 51.36 51.47 51.86 51.15 50.16 49.82 47.22 46.41 47.04 46.14 46.61 46.18 46.01 45.88 46.22 45.32 45.62 46.67 46.86 46.94 46.93 47.77 47.51 47.54 47.59 47.87 48.29 48.74 49.73 51.15 52.43 53.47 54.94 55.63
52.37 50.91 50.77 51.74 50.61 51.00 50.53 49.32 48.96 49.03 48.43 46.41 46.66 44.91 44.79 44.63 44.23 43.48 43.24 42.68 42.25 43.84 45.54 45.64 45.73 46.68 46.06 45.04 44.63 44.13 44.42 46.17 47.51 48.56 49.71 51.13 52.69 54.37
50.07 49.98 49.70 49.28 48.34 48.04 48.36 48.05 47.33 47.87 48.21 46.30 42.98 45.30 42.41 42.94 42.14 42.21 41.34 39.97 39.06 42.50 44.08 44.54 44.85 45.39 45.58 43.00 42.01 41.65 41.86 42.70 44.43 46.35 47.22 48.34 49.89 51.60
48.30 48.41 48.35 47.79 47.09 47.11 46.99 46.29 46.31 45.12 46.23 45.74 44.71 42.82 42.31 42.10 41.78 39.29 38.49 39.19 37.73 37.85 40.09 40.45 42.82 43.03 43.59 41.12 39.96 39.94 40.59 41.23 41.89 43.64 45.48 46.10 47.37 49.31
47.82 47.53 47.45 47.10 46.90 47.20 46.47 45.52 44.99 45.18 44.01 42.31 42.17 41.05 40.10 38.27 37.99 39.06 37.88 36.89 36.91 36.50 35.17 36.63 36.97 37.88 40.09 39.42 37.80 39.06 39.11 40.24 40.72 40.80 43.10 44.42 45.24 47.01
45.12 45.08 44.11 43.84 44.73 46.16 45.64 46.12 45.53 44.10 42.51 41.13 39.97 39.89 39.91 39.58 38.91 36.85 35.81 33.73 34.15 35.78 33.91 34.28 35.46 34.57 32.95 32.26 37.77 37.83 38.11 38.98 40.05 39.49 40.22 41.78 43.00 43.94
43.20 43.17 42.62 42.92 42.26 41.24 44.06 43.90 43.38 43.79 43.69 42.02 37.93 37.83 38.14 38.25 37.38 35.11 34.61 34.14 34.61 33.43 33.72 32.81 32.16 28.67 28.60 33.21 37.16 37.44 37.49 37.84 39.29 39.02 38.82 39.90 40.81 41.55
39.02 39.45 39.25 38.31 39.14 40.40 39.13 35.90 35.85 36.60 37.59 38.90 39.42 38.36 38.82 38.91 38.13 37.02 35.51 34.63 32.57 31.87 32.58 30.03 26.16 26.34 27.87 28.16 36.28 37.34 37.23 37.34 38.33 39.11 39.28 39.54 40.06 41.40
39.34 39.95 39.91 38.75 41.99 43.56 38.45 33.96 34.50 34.31 37.16 37.27 38.18 40.08 41.49 41.14 39.46 36.40 33.82 32.95 31.23 28.52 27.77 26.45 25.00 25.47 26.20 26.79 29.58 37.45 37.03 37.17 37.87 39.19 39.66 39.75 39.69 39.30
39.44 39.61 42.16 40.25 42.76 43.05 35.35 34.03 31.93 32.33 32.36 31.79 31.79 34.40 36.52 36.54 40.23 32.47 31.02 32.27 29.47 22.11 26.97 24.53 24.57 25.00 21.22 26.47 29.58 30.34 32.02 37.43 38.55 38.03 38.08 37.82 37.64 33.76
37.61 37.58 39.21 43.29 43.07 42.10 39.76 34.43 32.91 33.41 34.32 30.82 30.18 29.91 30.00 29.45 28.26 28.95 30.43 27.72 22.73 21.45 28.04 27.54 18.91 22.05 23.63 22.21 26.46 28.63 29.00 29.97 29.93 31.15 35.28 34.96 35.14 34.71
36.90 37.59 38.09 42.30 41.85 41.47 40.81 38.71 39.07 36.87 30.24 29.41 27.12 26.74 26.93 25.83 24.54 25.88 28.29 27.26 27.54 26.14 27.48 27.40 22.21 20.03 17.29 18.14 22.06 25.78 26.54 27.85 27.88 27.74 27.59 32.52 34.09 34.41
38.41 38.66 39.42 41.64 41.47 40.45 41.84 39.93 38.13 31.32 29.26 27.26 26.25 24.39 24.33 25.50 25.45 23.98 24.94 26.75 25.78 27.40 28.48 26.16 18.64 17.14 18.23 17.74 20.54 21.66 23.30 26.34 25.60 24.29 25.06 25.90 26.37 27.12
39.70 39.12 39.68 39.74 39.99 38.87 39.55 39.41 32.22 30.46 28.38 27.81 26.26 26.63 26.40 23.79 23.37 23.43 21.47 22.31 20.18 22.46 27.83 23.02 18.91 18.46 17.03 18.96 18.80 19.23 20.60 20.27 22.32 23.02 24.19 24.63 27.22 27.61
38.13 35.49 35.52 35.05 35.17 35.41 34.47 34.21 32.06 30.98 29.08 27.15 26.63 26.14 26.52 26.03 25.90 24.30 23.79 22.03 20.82 22.95 24.76 24.55 26.48 24.36 21.21 19.42 17.87 21.59 22.40 22.02 21.74 21.80 22.91 21.21 24.33 27.21
36.23 34.94 33.88 34.02 34.14 34.60 33.50 33.11 32.52 31.74 29.23 27.91 27.07 26.08 24.70 24.39 24.75 23.96 22.34 20.62 22.31 23.15 23.34 23.33 20.80 19.45 21.47 24.65 27.96 21.52 21.17 21.29 21.32 23.95 23.48 16.93 20.34 25.35
36.63 34.47 34.13 33.60 33.61 33.87 33.67 33.33 32.50 32.69 31.74 30.22 27.30 25.38 23.81 23.41 26.95 25.90 22.65 22.68 23.86 23.07 22.51 21.55 18.51 13.65 13.31 16.06 23.98 31.10 18.57 19.42 20.75 22.05 21.85 21.50 17.80 22.88
37.26 34.09 33.46 33.42 33.19 32.66 32.77 33.21 33.23 32.09 31.22 30.36 29.06 27.88 25.70 25.03 22.87 25.05 25.49 24.20 23.29 24.20 22.59 19.83 21.15 19.46 18.01 17.86 17.23 20.86 30.40 18.88 18.61 18.70 19.40 23.48 26.99 31.65
36.51 33.96 34.13 32.86 31.66 31.84 31.94 32.46 32.84 32.23 32.20 31.40 30.59 29.02 27.10 26.53 26.45 26.14 25.29 27.90 27.11 24.96 24.22 23.81 25.92 29.86 15.60 15.32 15.78 19.39 22.90 31.43 27.49 18.86 18.16 22.78 25.31 24.36
35.75 34.90 34.47 33.66 32.42 32.16 31.94 31.93 32.09 32.55 31.59 30.97 29.82 29.49 28.95 28.91 27.39 26.03 26.29 26.28 27.33 26.44 24.75 23.38 23.55 21.63 14.49 14.79 13.30 14.36 21.13 24.69 29.58 31.44 30.76 28.00 19.77 14.57
35.30 35.91 35.18 34.02 32.98 32.54 32.21 31.89 31.79 31.85 31.09 29.95 29.43 29.13 28.79 28.16 28.32 27.40 27.28 26.90 26.63 25.72 25.13 24.06 23.90 22.10 18.15 17.08 15.41 13.06 17.05 19.82 23.37 25.58 24.97 31.24 31.59 31.62

GFSNE_sfc_wetblb_093.txt.gz
Wetbulb
58.81 58.24 57.93 57.69 57.65 57.31 55.68 53.41 52.27 46.62 47.51 48.59 48.26 48.86 48.63 48.29 49.93 48.59 48.11 52.12 52.13 51.99 51.32 50.36 49.81 49.93 50.62 51.56 51.72 51.91 52.19 52.30 53.01 53.96 54.80 54.65 55.20 55.82
58.20 57.53 57.29 56.81 56.77 55.49 54.39 53.16 52.01 49.13 45.70 47.58 47.44 47.28 48.09 48.29 49.75 48.25 47.46 49.21 50.33 50.10 49.21 48.57 48.21 48.66 49.05 49.27 49.36 49.67 49.82 50.43 51.10 52.01 53.08 53.17 54.17 54.98
57.53 57.05 56.34 54.94 53.99 53.76 53.34 52.28 51.18 50.27 46.90 45.69 46.38 45.97 45.32 45.03 44.90 46.69 45.72 44.46 46.51 47.51 47.42 47.46 47.25 47.78 47.53 47.19 46.72 46.68 47.21 47.86 48.51 49.35 50.63 51.76 52.66 54.43
55.53 55.38 54.64 53.77 52.65 52.72 51.39 50.25 50.03 49.91 48.07 45.59 44.47 43.48 44.54 46.01 45.08 44.41 44.03 43.52 43.36 44.21 46.43 46.83 46.28 47.44 46.62 45.07 44.31 43.98 43.58 43.85 45.75 47.25 48.49 49.78 51.11 52.84
55.56 54.89 54.09 52.74 51.59 50.23 50.26 50.04 49.28 48.54 46.24 44.53 42.70 43.68 43.40 43.12 42.53 42.68 41.80 40.71 40.04 43.21 45.18 45.51 45.63 46.20 46.58 43.64 42.41 41.87 41.84 42.49 43.23 44.69 46.42 47.30 48.96 50.71
52.32 52.84 52.11 51.45 49.97 48.53 48.56 48.29 46.51 45.42 44.38 44.29 43.70 42.99 42.49 42.06 41.84 40.00 39.19 39.84 38.82 38.32 41.67 41.53 44.24 43.75 45.60 42.30 40.33 39.71 40.14 40.91 41.51 42.38 44.53 45.42 46.68 48.35
50.00 50.44 50.19 49.60 48.16 49.31 47.90 46.94 46.04 44.56 41.93 39.90 40.78 41.56 40.52 39.05 39.15 39.35 38.69 37.25 37.91 37.31 35.53 36.82 38.30 38.47 41.19 40.71 38.36 39.13 39.06 39.84 40.77 40.58 42.02 43.88 44.83 46.17
47.04 47.10 47.69 46.74 47.47 48.92 49.08 48.56 47.81 44.61 42.02 39.76 40.43 40.52 40.27 39.52 37.13 36.44 36.46 34.62 34.84 36.40 34.33 34.46 35.96 34.79 36.66 34.65 38.27 38.05 38.21 38.67 39.89 39.67 39.70 41.65 42.86 43.92
44.85 44.68 44.03 44.65 45.12 45.19 47.01 47.13 46.97 47.18 45.54 41.89 40.61 41.05 39.53 38.43 38.29 35.68 35.33 34.59 35.20 34.14 34.11 33.05 32.12 31.94 31.21 33.84 37.79 37.61 37.62 37.74 39.13 39.42 39.16 40.17 40.97 41.83
42.12 42.63 42.14 41.02 40.90 41.85 40.49 38.42 38.85 39.75 41.02 41.33 40.04 39.41 38.45 38.41 37.50 38.04 36.67 34.86 32.05 32.30 33.36 31.42 29.22 27.09 27.63 27.59 36.58 36.99 37.26 37.38 38.70 39.48 40.23 40.27 41.81 41.69
38.64 40.96 41.65 40.85 42.69 43.69 38.81 34.91 34.63 34.99 39.61 40.02 40.34 41.58 42.80 42.61 40.24 36.51 33.06 33.07 31.22 30.90 29.52 29.27 24.77 25.19 25.75 26.21 28.30 36.77 37.40 37.22 38.22 38.98 39.02 39.05 38.98 38.51
40.20 39.39 42.46 39.60 43.32 44.18 37.45 35.23 33.50 32.17 31.98 32.10 33.46 36.93 39.82 39.69 41.75 34.64 32.90 31.36 31.54 27.13 26.97 24.97 24.28 24.80 20.93 25.59 28.68 29.48 30.61 37.15 38.81 38.44 38.20 37.64 37.49 31.76
39.23 38.95 39.75 43.40 43.17 44.02 41.06 35.75 34.66 33.51 34.67 30.66 30.18 30.12 30.36 30.78 29.93 30.43 31.33 28.42 28.70 21.37 27.98 25.08 18.09 21.17 20.34 21.28 25.97 28.14 28.59 29.80 29.92 31.12 35.25 35.26 35.65 34.26
38.62 39.01 39.01 41.75 43.05 43.21 42.36 38.90 39.25 36.48 31.90 29.96 29.09 28.81 28.07 27.04 25.47 26.89 29.09 28.02 27.42 27.16 28.75 24.07 18.53 19.55 15.66 16.19 21.65 25.44 25.92 26.61 26.79 26.82 26.65 32.17 34.36 34.74
40.44 39.82 40.18 41.60 42.95 42.67 42.67 40.41 40.18 32.41 31.47 29.48 28.26 27.85 26.49 27.08 25.77 25.63 25.70 26.96 26.21 27.53 28.34 28.38 19.76 16.79 16.28 15.24 19.13 20.68 23.12 25.60 24.47 23.18 24.05 24.83 25.08 25.06
40.89 39.43 40.24 40.99 41.87 40.57 40.37 40.09 35.44 32.36 31.18 29.59 28.58 26.89 26.45 25.89 24.39 24.45 22.93 22.12 19.93 25.27 27.58 27.00 22.79 18.69 15.58 17.75 18.12 18.28 19.14 19.01 21.35 21.81 23.49 23.85 26.75 27.29
38.64 36.48 36.99 36.53 36.62 36.64 36.60 37.76 33.58 31.75 31.02 29.37 26.49 26.83 26.73 27.18 26.41 24.54 24.20 20.61 17.64 22.35 24.13 24.34 26.81 25.35 21.92 21.36 18.44 20.12 21.79 21.47 20.30 20.87 22.19 20.46 23.69 26.16
38.61 35.55 35.51 35.56 34.77 35.00 34.87 34.61 33.69 33.06 30.66 29.23 27.07 27.14 26.95 26.42 26.00 24.53 22.42 19.32 18.79 20.40 20.98 21.58 22.33 21.70 24.38 25.78 28.01 21.39 20.90 21.06 20.37 23.08 22.71 15.77 19.38 24.01
36.59 35.28 34.79 33.50 33.45 34.29 34.33 34.29 33.41 33.04 31.70 29.71 29.30 28.12 26.93 26.06 27.32 25.58 24.26 22.98 19.70 19.53 20.38 21.40 19.14 18.52 19.41 19.86 25.83 30.87 19.81 18.77 20.04 21.59 21.25 20.70 16.49 22.05
36.70 35.75 34.74 34.02 34.01 32.94 32.94 33.24 33.56 32.30 31.18 31.18 28.87 27.60 26.39 25.45 24.84 24.63 24.96 24.52 18.36 17.29 18.58 18.09 19.53 18.04 22.33 21.90 19.29 22.45 29.79 20.00 18.90 18.46 18.35 22.54 24.66 30.69
35.11 35.55 34.90 34.29 33.55 33.49 33.20 33.51 33.18 32.65 32.27 31.45 29.86 27.85 26.36 25.88 24.49 24.86 24.59 27.67 25.26 21.13 24.05 24.02 25.26 29.94 22.05 20.20 20.22 21.61 23.80 30.88 26.82 18.60 16.04 17.18 20.14 22.91
34.17 34.95 34.83 34.56 33.43 32.49 31.95 31.93 32.01 32.69 32.08 31.67 30.80 29.82 27.78 27.02 25.90 25.34 24.88 25.39 25.91 26.24 24.71 20.74 25.04 23.15 20.55 23.27 19.98 18.27 22.76 24.59 30.01 31.24 30.03 26.91 17.96 12.55
33.76 34.30 35.13 34.24 33.24 32.49 32.02 31.90 32.01 32.40 32.62 32.17 31.66 30.81 29.44 27.66 27.51 26.43 26.00 25.87 26.10 26.24 24.89 23.40 23.73 24.19 25.40 24.70 22.65 19.45 19.16 20.22 22.50 21.78 24.21 31.67 31.96 31.50

GFSNE_sfc_wetblb_096.txt.gz
Wetbulb
59.78 59.63 58.24 57.93 57.50 57.08 56.53 56.50 53.89 48.20 48.46 48.51 47.94 48.95 48.67 49.08 49.84 48.25 48.23 53.00 53.33 52.87 52.05 51.04 50.33 50.24 50.57 51.16 51.67 51.71 51.50 51.38 51.85 52.33 53.11 53.78 54.30 54.54
58.81 58.28 58.53 58.14 57.32 56.57 55.48 54.37 53.80 50.66 47.83 48.27 47.46 47.68 48.05 48.43 49.52 47.42 47.51 49.69 51.23 50.94 50.20 48.95 48.47 48.84 49.11 49.11 49.14 49.07 49.15 49.59 50.14 50.90 51.69 52.60 52.61 53.60
57.94 57.49 57.19 56.86 56.91 56.10 55.03 53.07 51.42 49.73 47.70 45.61 46.66 45.69 46.19 46.03 45.96 45.80 45.81 44.90 45.57 48.48 48.65 48.35 47.80 47.75 47.96 47.38 46.56 46.26 46.32 47.04 47.75 48.54 49.92 50.50 51.10 52.45
57.78 57.00 56.52 55.52 55.77 55.18 54.03 53.08 52.58 50.78 49.05 45.66 45.12 44.94 45.16 44.65 44.38 44.87 44.99 44.29 42.44 45.54 47.20 47.57 47.50 47.31 47.45 45.89 44.51 43.79 43.62 43.84 44.30 45.54 47.31 48.44 49.65 51.02
58.01 56.66 56.78 55.05 54.83 53.99 53.42 52.39 51.07 49.51 47.55 46.43 43.53 43.79 43.58 43.92 43.10 43.27 42.49 41.14 40.72 43.30 46.07 46.61 46.42 47.28 47.18 45.34 43.04 42.02 41.53 41.67 42.76 43.46 44.74 46.17 47.38 49.23
56.44 56.12 56.25 55.00 55.20 53.33 52.35 51.42 48.94 47.80 45.91 45.68 43.46 42.58 41.63 42.31 42.23 40.42 39.82 40.34 40.00 39.66 42.66 43.06 43.40 45.36 46.00 44.69 41.46 39.81 39.85 40.28 41.33 41.79 42.54 44.32 45.35 47.00
51.53 52.34 52.72 51.89 50.54 52.37 51.53 49.37 48.00 47.03 43.34 41.46 40.79 41.16 40.45 39.62 40.04 39.77 39.65 38.82 39.13 39.17 35.54 35.98 38.59 38.92 40.31 42.87 39.38 39.51 39.17 39.32 40.23 40.62 40.72 42.91 43.98 45.12
49.20 49.49 50.00 47.68 48.92 50.09 50.28 49.02 49.23 47.03 44.67 41.62 40.34 40.93 41.24 38.86 38.15 38.13 37.03 35.20 35.24 35.22 33.24 32.98 35.01 35.09 37.11 37.77 38.98 39.06 38.42 38.53 39.23 39.81 39.66 41.03 42.19 43.21
46.45 46.16 45.82 46.58 47.01 47.69 49.17 49.16 48.96 48.91 48.61 46.28 43.30 41.04 38.74 38.54 38.01 35.61 33.37 32.71 34.88 33.90 33.41 33.54 33.00 32.96 32.97 34.32 38.76 38.32 38.04 37.60 38.44 39.44 39.21 39.89 41.37 43.08
43.20 43.97 43.90 42.78 43.36 44.24 43.85 43.14 44.24 45.28 45.34 44.65 44.44 41.60 40.31 40.48 40.24 37.29 36.14 34.61 32.26 33.62 34.38 31.74 27.77 30.31 30.05 29.29 35.38 37.39 37.81 37.39 38.34 39.50 40.25 41.08 40.81 41.18
38.95 41.43 43.58 42.69 43.93 45.01 41.25 38.86 38.88 38.72 41.41 42.81 42.72 43.09 43.40 43.11 40.04 36.23 32.66 34.35 31.64 30.74 30.62 30.86 26.43 25.72 26.14 26.43 28.36 36.63 38.07 37.55 38.13 38.77 38.37 38.41 38.52 37.81
40.23 38.58 43.11 42.79 44.30 45.09 40.25 38.68 36.91 36.30 35.11 35.58 36.24 39.25 41.74 41.48 42.31 36.91 34.65 34.08 31.84 30.43 29.74 28.04 24.79 25.67 22.77 25.83 28.06 29.22 30.62 36.86 38.77 38.77 38.14 37.61 36.94 30.41
40.15 39.91 40.18 43.45 43.88 45.12 42.24 38.65 38.66 34.80 36.01 31.88 31.71 32.08 32.64 33.95 34.93 33.38 33.81 32.12 27.76 26.46 29.04 26.31 21.39 23.05 21.32 22.05 26.10 27.97 28.46 29.59 29.82 31.07 35.19 35.47 36.19 33.59
39.68 40.38 40.60 42.16 43.46 44.08 43.28 40.62 40.29 37.69 32.26 30.37 30.42 30.37 30.51 29.89 28.49 29.55 31.06 29.34 28.90 30.75 30.04 26.03 21.31 23.00 18.89 16.48 21.64 25.24 25.55 26.11 26.46 26.77 26.11 31.52 34.51 34.79
41.93 41.57 41.29 41.41 42.13 43.22 43.80 41.61 41.04 33.63 32.24 29.49 28.94 29.32 28.88 28.46 27.19 26.18 27.23 27.87 28.00 28.58 28.90 24.24 22.53 17.59 18.53 15.66 19.16 20.13 23.32 25.35 24.06 22.47 23.51 24.44 24.89 24.84
40.23 41.03 41.22 40.96 41.75 42.04 42.03 41.29 38.12 33.13 32.71 31.67 29.55 28.26 27.20 25.66 25.33 25.54 24.23 24.93 24.36 26.34 27.78 28.48 20.50 21.78 15.79 15.74 16.29 16.71 18.62 18.80 20.81 21.27 23.18 23.68 26.61 27.13
39.84 35.78 36.44 36.42 36.62 37.39 37.38 38.57 36.45 34.29 32.48 31.04 29.11 26.85 27.97 27.20 26.29 23.73 24.64 22.67 19.66 22.89 25.40 26.13 26.05 24.42 20.62 19.66 16.74 20.76 21.56 21.00 20.01 20.57 21.97 20.09 23.47 25.71
37.06 34.25 34.71 35.61 35.97 36.15 35.58 35.79 35.16 34.88 32.93 30.66 30.21 28.82 27.31 27.32 26.34 23.21 22.43 22.08 18.99 21.34 20.75 23.99 23.44 20.08 20.74 23.09 26.60 21.25 20.53 22.11 20.87 23.04 22.33 15.89 18.83 23.14
35.37 34.95 34.31 34.82 34.99 35.19 34.91 34.14 32.51 33.56 32.63 31.22 30.05 29.21 28.15 26.54 27.25 25.24 24.35 23.25 21.26 21.79 19.49 21.16 19.44 15.13 13.59 15.23 23.16 30.34 21.17 20.62 20.87 21.25 21.18 20.49 16.43 21.69
33.39 34.31 34.09 34.55 34.39 34.12 33.44 33.60 33.29 31.71 31.57 30.99 30.62 29.41 28.79 27.72 26.20 25.48 25.45 24.54 23.68 21.47 19.56 16.88 18.17 15.69 18.81 17.23 20.51 22.97 29.81 21.89 20.35 20.79 19.50 22.38 24.01 30.16
32.24 32.56 34.82 34.74 34.18 33.91 33.15 32.32 32.57 32.04 31.82 31.23 30.49 29.27 28.52 27.84 27.07 26.70 25.89 27.95 26.06 22.89 22.35 23.59 25.23 27.41 16.64 19.60 18.89 21.68 25.18 29.90 26.38 21.31 18.36 17.73 18.98 21.93
31.04 32.55 33.58 34.61 34.47 34.14 33.40 32.79 32.12 32.19 31.72 31.66 30.64 29.33 28.57 28.06 26.69 26.21 25.87 26.01 26.59 25.63 25.96 21.50 21.72 21.28 18.65 21.35 18.58 20.11 22.85 25.57 30.60 30.83 29.20 26.86 19.03 13.58
30.38 31.71 33.12 33.93 34.51 33.38 32.97 32.60 32.45 32.28 32.26 31.86 31.26 29.40 28.10 27.07 27.39 27.21 26.14 26.45 26.75 25.64 23.64 21.90 23.56 24.72 24.64 24.49 22.94 20.65 20.59 22.76 24.86 25.23 25.96 31.79 31.71 31.01

GFSNE_sfc_wetblb_099.txt.gz
Wetbulb
59.68 59.78 59.16 59.19 58.85 58.84 58.28 57.49 55.69 51.81 49.73 49.43 49.11 50.73 50.97 51.04 51.48 49.98 50.13 54.55 55.14 54.69 53.70 52.31 51.36 51.07 51.50 51.55 51.58 50.91 50.88 50.69 50.75 51.14 52.08 52.61 52.92 53.54
59.61 59.13 59.20 59.33 58.24 57.90 57.40 56.69 55.53 54.83 51.12 49.34 48.49 48.70 49.37 49.35 49.88 47.62 48.27 50.92 52.73 52.42 51.42 50.24 49.51 49.67 49.77 49.67 49.43 48.83 48.36 48.62 49.07 49.78 50.64 51.31 51.65 51.90
58.39 58.26 58.13 58.38 57.95 57.43 57.41 55.85 54.19 52.75 49.28 46.28 47.22 47.08 47.19 48.09 47.13 46.63 46.83 46.07 47.37 50.71 50.27 49.72 49.03 48.43 48.61 48.06 47.15 46.34 45.91 46.03 46.57 47.46 48.45 49.42 50.16 50.81
57.87 57.31 57.11 57.05 56.83 56.53 55.43 54.19 53.00 50.55 49.03 45.58 45.21 45.28 45.86 46.24 45.76 44.56 44.82 44.87 43.96 47.51 48.17 48.14 48.15 47.83 48.25 47.09 45.57 44.22 43.69 43.71 44.13 44.84 45.80 47.53 48.56 49.68
58.22 57.61 57.46 56.93 56.10 56.48 55.60 54.93 54.22 51.58 50.59 46.75 43.60 44.65 44.14 45.73 44.09 44.04 42.81 41.23 41.96 44.17 46.56 47.78 47.84 47.22 48.04 47.02 44.41 42.69 41.56 41.51 41.97 42.74 43.32 45.17 46.60 47.84
56.42 57.41 57.40 56.79 56.06 55.66 54.95 54.69 53.43 51.76 50.38 48.05 44.18 43.22 42.60 42.98 43.76 41.62 40.50 40.71 39.60 39.91 43.51 43.99 45.52 45.64 47.01 47.50 44.06 40.90 40.09 40.07 40.91 41.69 41.46 43.22 44.54 46.07
52.62 53.11 53.95 54.00 52.11 54.94 54.45 53.97 52.33 50.74 48.16 46.26 42.60 41.60 40.63 40.78 42.02 40.76 40.94 38.75 38.62 40.07 38.43 39.11 39.78 39.30 39.45 45.90 41.45 40.43 39.64 39.36 39.59 40.44 40.47 41.46 43.14 44.29
48.27 50.00 51.04 48.76 49.75 50.80 51.47 51.29 51.73 50.32 47.94 46.21 42.40 43.39 41.33 40.58 40.85 39.79 37.81 36.29 35.85 39.07 37.02 35.59 35.45 34.74 36.93 39.00 40.91 40.36 39.14 38.60 38.69 39.73 39.72 40.48 41.66 42.97
45.38 46.14 46.83 47.53 47.62 48.70 49.97 49.88 49.48 50.25 50.56 47.95 44.52 43.59 41.57 40.78 40.00 36.12 35.38 34.83 35.83 34.55 35.26 32.68 33.15 32.96 34.93 37.05 41.19 40.20 38.85 37.94 38.10 39.19 39.32 39.87 42.25 42.66
40.73 42.19 44.05 44.62 44.51 45.69 45.99 44.76 46.28 47.56 47.29 46.92 46.61 44.40 44.43 42.94 42.57 39.81 38.09 34.35 33.10 33.46 34.29 31.33 29.17 30.46 29.24 30.13 37.98 38.89 38.47 37.84 38.17 39.63 40.20 39.84 39.87 40.82
41.77 41.52 42.36 43.57 45.07 46.38 43.50 41.46 42.12 41.41 44.99 46.36 45.92 45.52 45.36 44.97 42.26 38.61 35.13 35.99 32.45 31.21 31.89 32.55 26.72 26.61 26.93 27.13 28.65 37.46 38.19 38.10 38.35 39.37 38.33 37.97 38.13 37.13
42.37 41.32 42.56 42.75 44.42 45.63 43.11 41.38 39.46 39.26 38.30 38.67 40.40 42.45 43.72 43.28 43.14 40.86 37.45 36.51 32.37 31.47 31.60 30.32 25.32 26.14 23.78 26.09 27.38 29.31 31.16 37.92 38.50 39.42 37.99 37.56 36.43 29.82
41.05 41.12 41.07 42.93 43.99 44.59 45.54 41.19 40.85 37.89 39.01 36.62 36.92 34.92 37.17 37.96 38.13 34.87 36.75 37.12 32.63 32.54 30.47 27.55 23.66 24.36 23.22 23.04 26.43 28.75 29.28 30.54 31.43 34.45 36.56 35.70 36.75 32.59
38.64 40.40 41.43 42.72 43.00 43.76 44.64 42.87 43.07 39.65 35.02 33.59 33.44 33.51 34.26 34.80 34.54 31.74 31.99 30.56 32.09 32.86 31.85 27.54 23.77 23.69 19.96 17.99 22.48 25.96 25.84 26.25 27.83 27.68 26.26 32.05 35.36 35.36
38.04 40.25 41.24 42.33 42.85 43.17 43.78 43.61 42.09 34.86 33.78 32.49 32.75 32.60 32.33 30.54 29.61 28.91 28.32 28.75 28.49 29.21 29.66 26.29 24.00 18.89 20.61 17.39 19.64 20.27 24.29 25.80 24.35 22.76 22.91 24.30 24.85 24.64
35.48 36.04 38.32 40.80 42.28 41.76 41.85 43.00 39.37 35.15 34.15 33.54 32.57 30.69 29.16 26.39 25.95 26.35 27.47 25.57 24.95 26.13 28.88 25.66 19.35 21.86 15.78 16.09 18.54 18.22 18.91 18.82 20.98 21.03 23.18 23.99 26.56 27.01
34.38 33.59 34.80 35.49 36.34 37.08 37.18 38.85 37.72 35.19 34.28 33.24 30.27 28.81 28.55 27.84 27.58 25.68 24.96 23.48 21.73 25.88 25.48 25.99 25.32 24.27 20.45 20.93 18.51 20.41 21.26 20.23 20.07 20.66 22.75 21.46 23.95 25.93
32.49 31.47 33.03 34.78 34.76 35.70 35.52 36.13 35.74 35.65 34.01 32.33 31.34 30.11 29.11 28.15 27.14 25.44 23.72 22.78 22.39 22.37 24.01 25.42 24.89 20.51 22.03 24.16 26.34 22.56 19.77 22.18 19.89 22.60 22.76 18.55 20.43 23.65
30.67 31.96 32.28 33.82 34.27 34.99 35.67 35.43 34.85 35.14 33.90 31.78 31.31 30.18 29.62 29.16 28.60 26.11 25.39 24.79 21.72 21.43 18.15 21.41 17.98 17.88 15.34 16.97 22.93 29.25 20.45 19.52 20.83 21.27 22.16 23.18 20.38 22.71
30.64 30.54 31.44 32.35 34.21 34.14 34.05 34.10 33.64 31.80 31.86 31.71 31.25 30.36 29.13 28.79 27.56 26.01 25.26 24.44 23.36 18.63 17.00 15.92 20.97 17.07 18.44 17.70 19.77 21.65 28.93 19.67 20.63 21.79 22.30 23.99 25.96 29.59
29.53 30.20 31.11 31.94 32.48 34.12 33.09 32.33 32.57 32.08 32.06 31.61 31.35 30.43 29.54 28.90 27.89 26.92 26.36 27.53 25.50 20.19 20.96 21.26 23.83 26.74 13.23 19.42 21.58 22.42 26.65 29.39 26.33 21.46 22.07 22.65 23.32 23.44
29.44 29.61 29.69 31.00 32.22 33.08 33.75 32.43 31.95 32.50 32.28 31.83 31.70 30.70 29.91 29.84 28.19 27.34 27.02 26.76 26.21 24.02 25.22 25.57 23.10 19.19 18.77 22.57 19.48 18.61 22.31 26.23 29.80 30.57 29.44 28.34 24.22 20.59
29.17 28.49 29.49 30.64 32.18 32.69 33.60 32.43 31.93 32.11 32.15 32.20 31.55 30.68 29.80 28.81 28.85 28.11 27.60 27.65 27.34 25.63 24.21 22.35 22.82 23.03 24.36 23.99 20.49 19.65 21.19 21.66 25.07 27.32 27.25 31.40 30.71 30.21

GFSNE_sfc_wetblb_102.txt.gz
Wetbulb
59.27 59.24 59.10 59.08 58.91 59.05 58.53 58.11 56.04 52.71 53.08 49.36 49.54 51.39 51.82 52.87 53.44 53.15 53.27 55.81 57.78 58.65 57.52 55.38 53.72 53.40 53.72 53.56 53.30 52.57 51.31 50.30 50.14 50.37 51.26 51.79 52.16 52.79
58.82 58.43 58.82 59.23 59.07 58.97 58.63 58.31 57.92 56.21 53.54 51.73 49.83 49.77 51.50 51.15 51.97 50.94 50.96 52.81 54.71 54.55 53.25 51.88 51.47 51.63 51.79 51.56 51.18 50.35 48.83 48.19 48.55 49.23 49.68 50.33 51.11 51.46
58.34 58.25 58.23 58.90 58.71 58.30 58.05 57.76 56.87 56.35 54.02 46.67 47.69 47.96 48.52 49.44 48.55 48.46 49.37 48.82 50.82 52.93 51.99 51.06 50.54 50.25 50.03 49.76 49.02 48.12 46.89 46.23 46.24 46.71 47.51 48.35 49.49 50.12
57.88 57.67 57.58 57.88 57.71 58.06 57.44 56.60 56.08 55.49 51.98 45.97 45.24 45.78 46.76 49.02 47.96 47.20 46.69 46.60 46.64 50.60 50.84 50.33 49.81 49.48 49.29 48.54 47.24 46.23 45.06 44.32 43.98 44.36 45.01 46.15 47.79 48.85
56.37 57.30 57.45 57.30 56.63 56.74 56.37 55.56 54.37 52.46 51.70 47.11 44.19 45.24 44.70 46.80 45.77 45.51 44.94 43.58 43.90 47.30 49.45 49.36 49.26 48.82 48.91 48.01 46.31 44.94 43.50 42.59 42.14 42.13 42.45 43.52 45.52 46.96
50.16 52.49 53.97 56.10 56.76 56.44 56.06 55.79 54.98 53.09 51.81 48.69 44.56 44.61 43.38 44.99 45.63 43.48 41.59 41.65 40.43 41.52 45.15 46.24 48.12 48.33 48.59 48.44 46.16 43.57 41.76 41.05 41.07 41.42 41.47 41.39 43.37 44.98
46.24 48.27 50.79 50.88 49.17 51.56 54.88 55.22 54.80 53.79 52.13 50.00 43.74 42.07 42.58 42.53 43.36 43.26 42.94 41.31 41.16 39.03 38.26 40.23 42.20 42.49 44.19 46.23 44.55 42.19 41.39 40.62 40.14 40.19 40.47 40.51 42.12 43.39
43.75 45.12 46.45 47.04 48.74 50.17 50.58 50.49 52.93 53.05 50.68 49.58 46.68 44.82 43.72 44.56 44.42 42.31 38.77 37.44 36.90 40.60 38.68 37.39 39.63 38.46 39.45 40.16 42.76 42.24 41.03 39.99 39.32 39.59 39.57 39.93 41.23 43.18
41.76 42.22 43.19 44.94 45.57 46.70 48.29 49.23 49.86 50.54 51.24 50.38 48.69 47.70 44.92 44.62 43.62 40.89 37.99 37.24 37.27 35.56 36.80 35.70 35.36 35.77 35.28 38.32 43.13 42.41 40.85 39.76 38.80 39.49 39.33 39.92 41.74 41.64
39.60 40.46 41.65 42.69 43.86 44.62 44.82 44.78 46.53 48.62 49.71 49.58 50.27 49.64 48.28 45.40 43.91 43.87 41.83 38.49 33.88 35.25 35.71 34.27 31.03 32.34 31.24 32.39 42.11 42.24 40.45 39.36 38.76 39.83 40.54 39.55 39.25 40.05
39.67 40.51 40.62 41.02 43.84 45.42 44.04 42.39 43.41 44.20 45.58 47.70 47.63 47.20 46.44 46.27 45.25 40.79 37.54 37.37 33.12 32.95 34.09 33.26 28.69 28.33 28.70 28.25 30.19 40.08 39.64 39.27 39.08 40.42 39.37 38.27 38.21 37.07
39.00 39.40 41.99 42.04 44.25 44.80 43.16 42.94 41.13 41.55 40.52 40.86 42.65 45.14 45.88 45.49 44.40 44.02 39.29 38.04 32.51 31.71 32.59 31.97 27.33 27.70 26.33 26.69 27.79 29.44 32.35 39.01 39.04 39.69 38.53 38.30 36.77 30.41
34.60 37.60 39.41 41.78 42.58 43.39 44.61 43.19 42.18 41.73 41.00 38.09 38.15 38.83 39.41 41.76 41.50 39.43 40.64 40.56 33.59 32.50 32.63 30.42 27.66 26.61 25.50 24.41 26.96 29.01 30.60 32.10 32.42 36.22 38.45 36.89 36.97 32.52
32.54 34.48 37.30 39.22 40.12 41.54 42.70 44.12 44.62 42.44 37.21 35.85 35.40 36.04 37.09 37.25 35.56 34.67 34.09 32.68 32.64 34.02 33.66 28.61 24.72 24.61 22.14 20.94 23.69 26.99 27.07 27.95 28.82 29.10 27.44 32.60 36.38 36.28
32.52 33.86 35.53 36.68 37.85 39.02 41.55 43.21 44.06 37.81 35.78 34.55 34.97 35.14 34.47 35.22 32.96 31.01 30.49 30.73 30.44 31.91 32.35 29.45 26.17 21.77 23.48 23.51 22.73 22.38 24.84 26.22 24.47 24.02 23.40 24.87 25.62 24.96
33.30 32.72 34.25 35.53 36.70 37.60 39.75 41.43 41.20 36.81 35.86 35.86 35.56 33.20 31.70 32.24 31.73 30.73 29.34 29.79 28.91 27.28 28.52 26.14 23.52 23.21 16.72 17.38 18.96 19.96 18.68 20.52 21.75 21.28 24.20 24.32 26.78 27.36
33.15 31.92 31.38 30.65 30.62 34.46 36.18 37.38 38.75 36.29 35.73 34.56 31.92 30.83 31.53 31.24 30.67 29.68 30.33 29.05 28.39 25.97 25.63 26.47 25.01 23.77 21.28 20.11 16.99 19.73 20.50 19.29 20.24 21.16 23.17 21.09 24.30 26.16
31.06 30.06 29.75 30.71 31.86 32.53 34.09 34.74 36.23 36.21 35.05 33.61 32.40 32.00 31.26 30.65 29.24 27.97 28.13 30.18 27.09 27.31 25.88 25.71 24.98 19.18 21.61 24.06 26.40 21.39 19.34 20.04 19.75 23.50 23.11 18.04 19.67 23.29
28.04 27.85 29.02 29.17 30.77 31.80 33.03 33.95 33.91 34.97 34.14 33.43 32.40 31.50 30.72 30.18 29.85 27.74 28.12 28.41 26.58 25.96 26.56 26.03 23.32 18.20 15.74 18.06 22.09 28.82 18.97 19.25 22.27 21.81 22.15 21.18 18.94 21.53
27.79 27.72 28.32 28.91 29.34 30.63 31.54 33.12 33.32 33.24 32.51 31.83 31.79 31.37 30.47 29.60 28.00 27.61 27.38 27.28 26.23 23.04 21.53 20.99 23.78 18.78 21.09 18.17 17.50 19.60 28.66 20.26 21.72 22.32 21.64 23.01 24.72 30.66
27.65 27.45 28.88 29.08 27.94 29.19 31.53 32.51 32.45 31.88 31.96 31.84 31.82 31.25 30.57 30.10 28.47 28.20 27.65 29.16 27.30 23.75 21.68 22.43 25.14 27.52 10.70 17.52 20.17 24.06 25.83 28.68 26.55 22.06 21.92 21.26 21.61 22.12
27.26 27.43 28.68 27.90 26.20 29.19 31.56 32.00 32.40 32.17 31.79 31.75 31.76 31.31 30.57 30.69 29.16 28.05 27.74 27.63 27.09 25.28 24.14 24.92 22.21 17.74 15.30 19.93 17.35 20.10 24.72 26.15 29.54 30.04 29.55 27.52 22.04 18.34
26.10 27.26 25.21 24.98 24.52 29.09 30.63 31.78 31.99 32.06 31.93 31.83 31.73 31.31 30.58 29.60 29.71 28.91 28.51 28.71 26.63 25.51 24.87 22.48 21.84 20.30 23.15 23.29 19.65 20.10 22.86 25.23 26.78 26.61 27.27 31.10 31.13 31.24

GFSNE_sfc_wetblb_105.txt.gz
Wetbulb
59.76 59.75 59.36 59.87 59.70 59.45 59.11 58.64 57.19 53.10 53.95 54.16 53.53 53.62 55.22 55.46 55.33 55.90 56.18 56.09 58.67 59.70 60.07 58.95 57.32 56.91 57.08 56.95 56.20 55.60 54.09 52.85 51.92 51.72 51.60 51.95 51.86 52.00
59.74 59.65 59.53 59.58 59.65 59.92 59.43 59.46 58.94 56.21 53.64 56.15 53.97 52.72 54.11 54.06 54.44 55.65 54.31 53.82 56.35 58.09 56.75 54.91 54.44 54.82 55.01 54.79 54.07 53.41 52.27 51.19 50.86 50.84 51.00 50.81 50.48 50.81
58.40 58.28 58.28 58.83 58.55 58.97 59.33 58.92 57.91 57.23 54.82 55.74 50.58 50.25 51.56 52.49 51.70 53.60 53.40 54.40 55.25 55.24 54.44 53.44 53.18 53.09 53.19 52.95 52.38 51.43 50.37 49.79 49.31 49.34 49.17 48.94 49.20 49.56
51.54 55.07 57.45 57.54 57.88 58.29 58.10 57.40 57.06 57.60 56.25 54.50 47.65 47.20 49.02 51.41 50.64 49.78 49.31 50.34 51.77 53.12 53.18 52.27 51.83 51.64 51.25 51.05 50.22 49.28 48.18 47.57 46.83 46.70 46.40 46.62 47.31 48.17
48.23 49.27 50.93 52.46 55.69 57.28 57.26 56.79 56.79 56.15 55.99 52.55 45.08 46.36 45.71 48.77 47.34 47.32 47.27 46.87 47.31 50.74 52.35 51.61 51.13 50.74 50.41 49.80 48.77 47.67 46.48 45.51 44.55 43.77 43.63 43.60 44.65 45.94
46.34 47.28 48.44 50.00 50.64 51.22 53.09 56.19 56.17 54.71 53.02 50.59 46.51 45.33 44.75 45.77 47.50 45.14 43.09 44.45 44.00 45.81 48.85 49.54 50.29 49.95 49.97 49.52 48.11 46.31 44.86 43.74 43.31 42.98 42.65 41.72 42.11 43.90
44.01 45.15 46.36 46.41 45.91 48.17 49.31 50.43 53.10 53.80 52.35 50.12 45.69 43.81 43.20 43.90 44.94 45.20 44.68 43.06 41.75 41.60 43.85 46.57 47.94 48.16 48.88 49.41 47.21 45.08 43.50 42.75 42.39 42.01 41.83 41.09 41.33 42.65
40.14 42.24 43.82 44.46 45.97 47.09 47.73 48.10 49.16 49.17 51.50 50.85 48.21 46.46 46.22 46.57 46.66 44.73 42.83 40.06 38.38 41.66 41.69 42.27 45.57 44.88 45.59 45.81 46.48 44.50 43.60 42.76 41.71 41.27 40.93 40.26 40.67 42.74
38.95 39.71 40.80 42.52 43.65 44.20 45.67 46.54 47.44 48.52 49.33 50.99 49.99 48.45 48.60 47.64 46.23 43.55 42.89 43.55 43.86 40.24 41.91 39.66 40.10 40.85 41.32 41.78 45.43 44.44 43.59 42.19 41.26 40.70 40.36 39.53 41.75 41.45
38.94 39.42 40.00 40.16 42.06 42.84 43.10 44.28 45.11 46.43 47.98 49.05 50.23 51.67 51.22 48.96 48.51 46.96 45.99 43.53 36.56 38.84 41.60 37.32 36.55 38.19 37.82 39.35 44.19 44.39 43.25 41.89 40.61 40.33 40.25 41.09 39.84 40.09
36.34 37.20 38.52 40.01 41.10 41.68 41.41 41.80 42.90 44.12 46.02 46.73 47.50 48.77 49.14 48.49 48.57 45.43 40.67 38.82 34.12 34.18 37.20 35.36 32.55 32.43 33.27 34.95 38.45 44.20 42.99 41.43 40.31 40.53 41.37 39.50 39.36 38.52
34.64 35.41 37.40 38.88 40.56 41.31 40.50 40.37 39.70 41.64 43.83 44.01 45.16 46.24 47.47 47.41 46.86 46.02 42.23 41.05 34.36 32.51 35.16 34.17 31.49 31.76 31.89 32.09 34.64 38.00 40.76 40.85 39.94 40.79 40.29 39.25 38.44 36.29
32.78 32.99 34.21 36.19 37.04 38.10 38.96 38.94 39.92 42.18 43.13 42.20 41.58 42.05 43.11 44.15 44.78 45.21 43.22 43.60 38.46 35.85 36.16 34.32 32.24 31.05 31.52 27.65 29.85 32.38 35.61 38.09 38.37 39.73 39.54 38.95 37.94 35.83
31.55 32.30 32.58 34.66 35.42 35.81 36.28 38.33 39.71 41.90 41.20 39.67 37.87 38.06 38.76 40.48 41.84 40.25 41.86 41.63 41.00 36.05 38.28 34.25 32.33 32.57 29.54 27.39 27.94 29.56 31.98 34.73 36.26 36.60 36.74 36.33 38.02 36.92
33.33 33.54 34.38 34.51 34.82 34.81 35.53 36.66 38.19 38.75 38.81 36.70 36.19 37.09 38.28 38.52 34.37 33.23 32.58 32.21 32.71 35.81 37.50 34.09 34.16 32.17 33.34 31.31 28.49 29.56 30.03 32.13 33.87 35.01 34.11 34.17 35.22 34.59
34.06 33.88 34.36 34.41 34.09 33.61 33.88 35.50 37.32 37.80 37.45 37.04 36.90 36.49 32.81 33.22 33.29 32.37 32.28 32.86 31.30 27.84 29.20 32.32 32.81 33.03 30.57 31.24 30.88 29.87 31.46 31.13 32.16 33.62 33.85 33.46 32.81 33.21
34.55 32.88 31.91 31.53 30.17 31.18 33.04 34.20 35.62 35.89 35.71 36.47 34.52 32.31 32.86 33.10 32.26 32.29 31.98 32.41 31.06 27.89 27.49 26.70 27.97 29.89 31.89 29.22 28.73 30.55 28.78 28.06 31.99 32.22 31.52 31.26 31.88 32.96
32.44 30.16 28.68 28.96 29.19 29.83 30.09 31.44 32.65 34.54 34.69 35.40 34.58 33.40 32.66 32.62 32.53 31.88 32.64 32.50 30.13 29.34 27.69 26.20 26.85 28.53 29.18 29.36 30.45 28.13 28.47 28.41 29.17 30.49 31.41 31.17 30.81 31.92
30.56 28.71 27.70 27.96 28.78 29.75 29.95 30.35 30.52 32.95 34.00 34.38 32.88 32.48 32.57 31.94 32.10 30.33 31.19 31.72 30.11 29.75 28.17 27.12 28.06 30.77 28.04 26.29 28.08 29.95 29.05 28.39 28.56 29.11 30.30 30.58 30.86 31.23
28.70 27.88 27.97 28.45 29.00 29.79 29.72 29.08 30.87 31.83 32.46 32.65 32.17 32.08 31.92 31.86 30.84 29.80 30.53 30.63 29.13 27.61 26.43 27.17 28.25 30.08 30.92 29.00 27.08 29.25 29.90 29.11 29.80 29.28 28.49 28.69 30.54 30.61
27.96 27.73 28.29 28.66 29.33 29.84 29.28 29.59 29.92 31.60 32.53 32.13 32.06 31.97 31.88 31.51 30.57 30.61 30.61 31.45 29.07 28.07 25.27 24.76 28.21 29.92 27.16 29.31 26.87 26.07 27.30 29.32 29.75 30.21 28.91 28.95 28.22 27.98
27.33 27.36 27.64 28.19 28.93 28.62 28.49 29.53 29.03 31.10 31.59 32.07 32.07 32.13 32.01 31.95 30.93 30.37 30.64 30.84 30.15 29.88 28.66 27.99 27.56 26.37 27.74 28.40 25.91 25.76 26.05 28.17 30.41 30.65 30.68 31.21 30.20 26.53
26.56 26.91 27.16 27.56 28.04 27.49 27.58 28.84 28.86 29.68 31.26 31.83 32.07 32.15 32.08 31.48 31.57 30.75 30.48 31.21 29.53 26.75 26.00 25.26 25.71 27.11 27.51 26.56 25.60 25.68 25.78 26.62 27.70 28.00 29.09 32.00 31.97 30.92

GFSNE_sfc_wetblb_108.txt.gz
Wetbulb
60.15 60.20 59.90 59.92 59.58 59.21 58.75 58.24 56.14 53.13 55.96 59.29 57.79 58.75 58.76 58.80 57.51 56.44 56.67 55.97 57.56 58.64 60.22 60.72 59.97 60.05 60.94 60.95 60.65 59.91 59.04 56.89 55.16 54.41 53.59 53.36 53.27 53.38
56.05 58.26 59.35 59.44 59.39 59.38 59.08 58.76 58.23 56.17 53.50 57.28 57.03 57.10 55.87 55.99 55.75 56.35 56.60 54.84 55.84 57.64 58.15 57.69 57.08 57.48 57.87 58.00 57.97 57.35 56.28 54.73 53.95 53.65 53.30 52.97 52.61 52.25
50.75 51.47 52.02 56.20 58.77 59.14 59.08 58.80 58.20 57.87 55.23 56.38 58.02 56.49 54.35 54.62 53.79 55.08 56.09 56.07 56.86 56.76 57.90 56.36 55.81 55.66 55.86 55.76 55.69 55.33 54.18 53.36 52.92 52.63 52.34 51.76 51.38 51.08
47.48 48.47 48.97 50.99 51.48 55.60 58.04 57.72 57.51 57.73 56.30 54.62 56.17 53.04 52.43 54.20 54.17 53.27 53.85 54.33 55.80 55.52 56.04 55.21 54.78 54.53 54.39 54.16 53.56 53.28 52.28 51.53 50.99 50.33 49.85 49.50 49.55 49.50
45.26 45.80 46.79 48.31 49.28 50.29 49.96 50.47 55.67 56.79 56.84 55.60 54.79 48.23 49.21 49.77 49.03 50.17 50.00 49.30 51.74 52.64 54.80 54.00 53.64 53.19 52.91 52.60 52.22 51.28 50.17 49.09 48.21 47.22 46.80 46.58 46.58 47.14
43.06 44.19 44.95 45.57 45.64 46.16 47.86 48.73 50.18 50.26 54.78 54.66 51.16 45.48 46.24 46.46 48.74 46.44 44.41 46.11 46.28 49.48 51.66 51.75 52.31 51.93 51.65 51.31 50.48 49.05 47.76 47.22 46.27 45.19 44.38 43.57 43.33 43.57
40.98 41.62 43.02 43.37 43.68 45.59 45.87 46.88 47.77 47.95 48.27 50.69 46.89 44.83 44.96 45.19 45.70 46.80 46.37 45.43 42.86 44.14 47.29 48.45 49.35 49.45 49.94 50.46 48.80 47.26 46.52 45.59 44.94 44.53 43.96 43.47 42.59 42.34
38.17 39.62 40.59 41.30 42.67 43.00 44.26 45.15 45.92 45.71 46.12 46.64 48.72 48.39 47.52 48.11 47.61 45.88 45.02 41.14 39.15 42.57 44.44 44.62 47.60 46.81 48.02 49.58 48.90 47.45 45.90 44.92 44.11 43.59 43.14 42.36 41.51 41.73
37.50 37.76 38.09 39.54 41.47 41.19 42.24 42.80 43.51 45.19 46.57 47.02 45.91 47.69 49.86 49.19 48.06 45.42 45.12 44.45 45.14 42.26 44.91 42.24 44.11 44.15 46.66 47.64 48.28 46.86 45.87 44.97 44.15 43.18 42.25 41.45 40.88 42.69
37.26 37.32 37.23 37.51 39.12 40.20 39.97 39.92 40.38 41.84 43.57 45.51 47.27 48.48 49.61 52.09 49.51 47.94 47.43 45.72 40.45 41.21 45.67 41.27 40.50 41.79 43.26 44.13 47.43 46.68 45.66 44.78 43.70 42.63 41.69 40.98 41.78 41.16
36.45 36.76 36.81 36.84 38.14 38.50 37.33 37.95 37.88 38.86 42.09 43.65 44.73 45.74 46.43 47.63 49.63 48.90 44.87 40.80 35.17 35.62 43.06 36.88 34.67 34.63 36.85 38.96 43.79 46.15 45.33 44.56 43.34 42.19 41.50 41.49 40.96 40.47
35.93 36.28 36.28 36.04 36.34 36.62 35.58 34.96 34.05 35.80 39.01 40.75 42.91 43.58 45.14 47.55 47.31 48.96 45.70 42.21 41.22 34.71 38.02 39.74 32.86 33.01 32.47 33.83 38.28 42.07 43.59 44.30 42.94 41.70 41.43 41.36 40.31 39.36
34.00 33.95 35.04 35.43 35.43 35.72 35.90 33.41 33.25 35.80 37.12 38.78 40.24 41.97 42.54 43.57 45.90 47.54 48.01 45.16 41.62 39.49 38.46 38.87 33.77 32.92 33.96 29.81 32.65 37.02 40.55 40.60 40.04 40.68 41.62 40.97 39.93 38.48
33.16 34.07 34.65 34.92 35.24 35.38 35.09 35.44 35.70 35.60 35.58 36.85 36.96 37.51 38.96 40.22 41.86 44.20 45.37 44.01 46.15 43.70 39.18 42.20 33.90 36.19 31.90 29.75 29.32 32.17 34.73 38.18 39.10 38.71 39.92 39.72 39.52 38.08
34.66 35.27 35.81 35.70 35.54 35.27 34.83 34.39 34.62 33.99 34.98 35.57 34.16 36.05 38.43 40.45 37.80 33.58 32.88 33.96 33.18 35.39 38.10 40.28 36.72 36.47 37.45 33.84 30.96 31.38 31.78 33.91 36.46 37.89 37.40 36.40 37.18 37.09
34.82 35.77 35.45 35.74 34.90 34.43 33.76 34.46 34.82 35.13 33.16 32.79 34.27 36.11 37.87 34.28 34.15 33.61 33.58 34.25 33.32 31.26 30.94 33.45 34.31 36.47 34.97 33.89 33.66 32.53 35.27 32.57 35.41 36.85 36.66 36.34 36.86 36.31
34.77 34.52 33.84 33.14 31.79 31.78 32.11 32.78 33.78 34.19 33.63 33.06 33.42 33.53 34.78 34.54 33.67 33.45 33.90 33.78 33.53 30.81 30.31 29.33 30.54 33.26 34.51 32.76 33.17 33.70 33.88 34.20 34.82 35.23 35.07 33.74 34.16 34.65
32.60 31.78 31.55 31.07 30.12 30.26 30.13 30.99 31.92 31.76 32.46 31.32 32.11 32.59 33.30 33.41 33.30 32.23 32.75 33.25 33.62 31.87 28.97 27.37 28.75 29.18 30.01 29.86 34.84 33.50 33.95 33.04 33.11 33.44 34.60 32.82 32.43 34.43
31.14 30.64 29.75 29.51 29.47 30.33 30.65 30.46 30.31 31.27 31.55 31.88 31.86 32.11 32.43 32.65 32.52 32.11 31.90 32.12 32.47 31.96 30.47 28.64 30.65 31.71 29.85 29.32 29.48 34.64 32.33 31.95 31.12 30.30 33.25 34.10 33.44 33.50
30.52 29.46 29.07 29.47 29.50 29.89 30.45 30.27 30.67 31.06 30.44 30.91 31.16 32.03 32.04 32.02 32.01 32.10 32.14 32.02 31.56 30.45 28.33 29.11 31.32 31.99 32.12 30.30 27.64 29.16 32.42 31.64 31.26 30.85 32.08 32.33 32.21 34.81
28.68 28.62 28.90 29.35 29.40 29.75 29.81 30.50 30.16 29.96 30.20 29.89 31.21 31.73 32.11 32.06 32.21 32.68 32.56 33.47 32.53 30.01 28.03 28.14 31.04 33.77 30.58 31.23 27.36 26.66 28.55 31.80 34.07 32.49 31.36 30.48 29.45 28.34
27.64 27.61 27.87 28.55 28.61 28.82 29.12 29.37 28.98 29.29 29.46 30.11 30.89 31.58 32.01 32.05 32.05 32.46 32.66 32.30 31.39 30.67 30.51 30.58 29.29 30.21 31.58 31.80 27.67 26.65 26.73 28.80 32.23 33.50 33.52 32.85 31.33 27.92
26.61 27.11 27.42 27.85 28.36 28.38 28.39 28.58 28.22 28.33 28.83 29.57 30.88 30.96 31.59 31.80 32.71 33.06 32.26 32.22 31.88 30.93 29.32 27.38 28.19 31.19 30.06 29.14 28.71 27.28 26.72 27.50 28.24 28.75 30.09 32.43 31.46 31.62

GFSNE_sfc_wetblb_111.txt.gz
Wetbulb
53.85 53.13 55.97 59.78 60.41 60.12 59.62 58.49 55.78 52.50 53.26 56.10 57.02 59.47 59.87 61.21 60.20 59.78 59.92 56.54 58.50 59.83 60.92 60.87 59.94 60.12 60.83 62.33 62.70 62.92 62.47 61.11 60.08 58.54 56.77 55.36 54.71 54.61
50.32 50.29 51.58 52.26 53.38 55.50 58.81 59.05 58.36 56.31 53.71 56.43 56.87 56.91 58.05 57.82 57.93 58.80 58.23 55.01 56.34 58.08 58.34 57.68 57.77 58.42 59.29 60.33 60.88 60.82 60.31 58.94 57.88 57.22 56.33 55.33 54.73 54.11
47.40 47.63 48.46 49.77 50.16 51.85 52.14 54.15 57.44 57.26 54.59 55.67 56.64 57.19 54.94 55.56 55.15 56.18 56.57 56.69 57.30 56.09 57.66 57.44 56.89 56.96 58.03 58.81 58.68 58.50 57.94 57.34 56.45 55.80 55.34 54.65 54.08 53.01
43.24 44.67 45.54 47.39 48.12 49.24 48.34 48.40 49.82 50.40 53.64 54.16 55.97 52.89 53.77 54.22 55.48 54.64 54.64 55.48 56.39 55.81 55.88 56.30 56.31 56.24 57.22 56.89 56.49 56.10 55.40 55.19 54.68 54.14 53.67 53.23 52.40 51.62
42.31 42.70 43.70 44.90 44.66 44.14 45.22 46.92 48.06 49.34 49.12 48.99 53.52 52.70 53.20 50.66 51.19 52.21 52.66 53.63 53.70 53.34 55.68 55.84 56.56 56.48 56.19 55.36 54.91 54.22 53.25 52.71 52.16 51.64 51.39 50.69 49.83 49.30
41.05 41.38 41.20 41.98 41.03 42.41 43.55 44.23 45.54 45.46 47.27 47.40 48.23 48.42 47.38 47.15 49.19 47.35 45.81 46.41 49.10 49.65 53.43 54.90 55.66 54.76 54.43 54.06 53.21 51.54 50.38 50.43 50.30 49.29 48.36 47.31 46.20 45.53
38.82 39.09 40.05 40.82 41.40 43.05 41.35 42.31 42.32 41.98 43.19 44.09 45.39 45.74 44.94 44.74 45.47 46.91 47.47 45.94 44.56 45.68 48.54 49.76 51.36 51.52 52.17 52.44 50.66 49.23 49.19 48.98 48.64 47.72 46.66 45.63 44.43 43.80
36.63 37.47 38.32 39.33 40.09 40.91 42.56 42.94 42.26 40.02 40.31 40.56 42.10 43.33 45.69 46.72 46.97 46.06 45.05 40.98 39.76 44.06 46.28 47.00 49.59 48.65 49.64 50.15 49.96 49.01 48.32 47.99 47.31 46.29 45.59 45.06 44.00 42.94
36.83 36.78 36.68 37.45 38.84 37.94 39.60 40.54 41.01 42.10 41.97 40.37 40.19 42.16 44.62 46.76 48.26 44.98 44.58 42.96 44.44 43.55 47.15 45.16 45.43 45.65 47.90 48.59 49.29 48.34 47.70 47.16 46.47 45.52 44.73 43.98 42.97 42.08
36.68 36.19 35.91 36.01 36.83 37.20 36.14 35.75 36.57 37.82 39.01 39.75 39.61 40.65 42.64 44.09 44.28 44.76 46.83 46.47 41.86 41.10 47.01 44.24 43.32 44.66 45.65 46.97 49.06 48.20 47.32 46.75 46.00 45.42 44.34 43.32 42.27 41.86
36.24 36.51 36.29 35.45 36.94 37.05 34.55 33.54 33.92 34.77 37.68 38.83 39.96 41.24 42.08 43.87 44.37 44.14 42.14 42.58 40.57 36.89 42.78 41.30 36.92 38.97 39.82 40.50 46.84 48.02 47.15 46.63 46.05 45.46 44.18 42.89 41.81 42.07
35.00 35.52 37.29 35.76 36.20 36.32 33.96 32.35 30.59 31.66 33.16 34.23 35.04 36.75 39.36 40.59 43.71 43.37 43.35 41.58 42.24 36.22 38.19 39.83 34.06 33.92 33.83 34.90 39.20 45.87 45.62 46.38 45.73 44.78 43.74 42.57 42.17 37.57
32.94 33.43 34.81 36.25 36.09 36.03 36.23 33.60 32.95 34.35 33.96 33.04 32.66 33.84 35.99 37.57 39.46 41.65 42.95 42.15 41.75 41.54 38.99 41.80 35.17 34.25 34.21 31.18 34.71 41.33 43.28 43.52 42.71 42.73 43.31 42.45 42.04 39.29
32.22 33.69 34.45 36.04 36.12 36.35 35.96 36.14 35.94 35.20 32.37 31.28 31.81 32.59 33.64 34.85 36.26 38.30 40.16 41.78 43.79 43.65 40.60 43.04 34.17 39.17 35.31 29.79 30.89 34.87 40.21 41.97 40.73 38.90 38.50 41.45 41.66 40.87
34.02 35.02 36.06 35.94 35.99 35.29 35.88 35.50 34.87 32.15 31.52 30.47 30.26 31.13 32.53 34.42 35.21 36.98 37.76 35.95 35.80 35.50 38.38 41.39 40.34 37.78 38.51 35.39 30.31 32.83 35.58 37.36 38.42 37.26 37.44 37.45 36.21 34.54
34.98 34.52 34.96 35.38 35.66 34.89 34.32 33.29 32.50 31.89 30.58 30.14 30.47 31.77 32.58 32.33 32.82 35.37 35.80 36.82 34.94 36.59 32.49 37.27 38.48 36.92 37.22 36.10 34.70 32.71 36.97 32.72 36.25 36.77 36.60 35.77 34.74 34.49
33.37 32.59 31.87 31.41 31.16 31.66 31.34 31.35 31.29 30.87 30.14 30.19 29.36 29.47 29.83 31.11 31.54 34.61 34.67 34.67 33.43 34.98 30.67 31.26 33.13 35.56 34.93 33.83 33.38 34.26 34.67 32.87 35.62 35.25 34.56 33.17 33.60 33.40
30.67 29.16 29.20 29.74 29.40 29.10 28.72 28.80 29.67 30.13 29.78 29.57 28.59 29.45 29.91 30.59 30.39 32.47 33.23 32.59 32.16 33.28 33.02 29.29 31.70 31.20 31.19 31.54 34.26 33.89 34.21 33.00 34.45 34.23 34.37 32.37 31.05 32.05
29.07 28.77 28.62 29.28 28.79 28.66 28.53 28.33 27.91 29.42 30.03 29.04 28.23 28.25 29.87 31.02 31.46 31.21 32.27 31.72 31.61 32.64 32.75 30.57 31.85 32.95 30.37 29.81 28.58 35.67 33.18 32.82 33.00 32.60 33.22 32.19 30.69 31.18
29.00 28.03 28.15 28.78 28.75 27.80 27.88 27.80 27.89 28.07 28.83 27.62 28.03 27.85 29.53 30.19 30.25 31.02 31.69 31.68 31.71 32.11 29.54 29.99 31.47 32.00 32.75 29.35 25.89 28.16 33.97 32.43 32.43 31.82 31.75 30.34 32.12 35.12
26.36 26.48 27.17 27.10 27.03 27.34 27.50 27.63 26.95 27.52 27.32 27.32 27.41 27.63 28.68 29.88 29.87 31.26 31.74 33.78 33.17 31.28 28.15 28.59 31.59 34.53 31.43 30.81 26.79 26.58 29.20 32.46 33.15 32.45 31.22 29.24 26.66 25.59
25.81 25.86 26.17 26.48 26.73 26.75 26.96 26.97 26.54 26.77 26.62 26.72 26.81 27.40 28.52 29.93 29.05 30.83 31.48 31.34 31.63 31.09 30.64 30.80 31.16 31.44 31.80 30.38 25.98 25.30 27.44 30.36 33.20 34.61 33.96 32.77 27.34 23.64
25.77 25.46 25.36 25.82 26.09 26.19 26.02 25.80 25.70 25.93 26.79 27.43 27.16 27.63 28.82 28.15 29.51 30.81 31.58 31.62 31.72 30.59 29.02 27.82 29.82 31.17 31.12 28.73 26.51 25.84 26.64 28.49 29.10 28.15 28.56 32.23 32.55 34.35

GFSNE_sfc_wetblb_114.txt.gz
Wetbulb
50.63 50.14 50.71 52.05 52.06 52.98 53.19 54.42 55.76 52.54 53.85 56.01 55.30 58.16 58.82 59.76 60.20 60.47 59.91 57.41 59.41 60.80 62.02 62.09 60.77 60.84 61.26 62.16 62.56 63.02 63.20 62.90 62.95 62.10 61.02 58.71 57.41 56.74
48.22 47.69 48.18 49.07 49.80 51.16 51.66 50.86 50.76 50.18 52.47 56.87 57.38 58.00 58.52 58.50 58.80 60.17 59.38 55.77 57.01 59.07 59.33 58.79 58.49 58.57 58.94 59.51 60.07 60.87 61.22 61.39 61.81 61.26 60.17 58.73 57.18 56.11
44.37 44.37 45.11 47.19 47.29 48.61 47.38 47.80 48.43 48.78 47.42 49.61 53.14 56.94 56.23 57.13 56.59 58.24 57.60 57.70 57.71 56.58 58.19 58.11 57.84 57.50 57.60 57.92 58.28 59.05 60.16 61.01 60.90 60.64 59.62 58.25 56.86 55.84
40.90 41.76 42.04 43.97 45.08 44.02 44.58 45.52 46.26 47.72 46.67 45.38 48.35 50.24 54.65 56.06 56.62 56.05 56.11 56.44 56.69 55.87 56.25 56.88 56.56 56.33 56.37 56.53 56.63 57.54 58.31 58.83 58.36 58.19 57.63 56.70 55.92 55.13
39.57 39.87 40.33 41.11 40.75 39.84 42.66 41.86 43.93 44.21 45.26 45.23 45.29 48.32 50.93 50.90 52.09 52.62 53.25 54.54 54.40 53.71 56.12 56.14 56.32 56.40 56.18 55.97 56.15 56.84 56.50 56.10 55.39 54.83 54.86 54.83 54.64 53.67
37.98 38.16 38.35 38.78 38.31 38.31 40.66 40.40 41.39 40.64 41.12 41.86 42.97 44.94 47.17 47.80 48.38 48.08 48.18 48.02 50.32 49.74 52.23 53.73 55.00 55.11 55.62 55.88 55.43 54.91 53.97 53.89 53.73 53.38 52.62 51.88 51.41 51.23
36.28 37.36 37.59 38.62 40.28 39.76 38.14 39.15 39.73 38.57 38.26 38.39 39.19 40.33 42.35 44.38 45.77 47.10 46.65 48.34 45.98 46.95 48.92 50.90 52.42 53.90 54.86 54.91 54.34 52.03 51.98 52.01 51.82 51.70 51.16 49.98 48.78 48.04
34.46 35.33 36.31 37.90 38.06 38.89 39.64 39.94 38.55 36.22 36.72 36.59 36.80 37.05 39.15 42.07 43.92 44.07 44.94 42.17 40.42 45.01 45.78 47.68 50.21 49.85 51.58 53.57 52.16 51.33 50.88 50.75 50.28 49.85 49.45 48.46 46.60 45.62
33.71 34.12 34.63 35.82 36.34 35.27 36.49 36.75 36.89 37.84 38.23 35.79 35.00 35.47 35.76 37.77 39.91 38.93 40.10 41.27 43.37 45.74 44.94 44.67 44.83 45.96 48.84 49.83 50.64 50.09 50.05 49.56 49.08 48.47 47.71 47.06 45.92 45.06
33.37 33.24 32.83 32.52 33.62 34.61 33.18 32.10 32.96 33.72 34.71 35.19 33.67 34.06 35.29 37.26 38.46 39.30 40.13 40.28 42.62 42.52 45.04 41.70 42.14 44.42 44.84 47.19 49.84 49.41 48.95 48.53 47.94 47.29 46.77 46.24 45.29 44.26
32.60 32.28 32.81 32.29 35.80 36.81 32.59 30.81 30.57 31.13 35.24 36.54 36.80 37.27 37.65 38.16 38.17 36.91 35.55 35.78 36.86 38.50 40.77 41.35 38.38 39.47 39.17 42.50 47.37 48.90 48.50 48.03 47.40 46.93 46.40 45.55 44.49 43.22
31.46 32.34 35.54 34.83 37.07 36.65 33.07 30.28 29.50 29.67 31.12 31.68 32.10 33.03 34.18 34.01 37.62 36.24 36.14 34.93 35.42 36.27 38.34 39.02 35.51 35.42 35.33 36.56 39.08 47.10 47.24 47.71 47.03 46.60 46.18 45.21 44.09 39.26
30.47 30.64 31.74 35.88 36.37 36.57 36.69 33.14 32.11 34.45 32.68 29.62 29.30 30.11 31.14 32.59 34.04 35.51 34.62 35.26 34.66 35.09 40.16 39.22 34.94 34.11 34.43 32.92 35.06 40.64 45.66 45.41 44.98 45.25 46.09 45.04 43.88 40.11
30.57 31.17 30.98 35.52 36.35 36.56 35.50 36.06 36.25 35.66 28.73 27.68 27.28 28.35 28.59 29.71 30.77 32.67 34.17 33.62 35.95 36.55 39.19 40.71 34.57 38.66 34.61 31.99 32.66 34.59 41.73 43.95 43.63 42.24 42.25 43.66 43.59 42.39
31.53 33.01 35.34 36.06 36.26 35.03 35.39 35.70 35.88 28.40 27.39 26.78 26.96 26.96 26.95 28.06 29.19 30.05 32.91 33.77 34.53 35.68 37.81 38.33 38.64 38.40 39.97 39.11 35.47 33.27 37.85 39.87 41.69 40.63 39.77 39.64 39.69 39.41
31.98 30.95 33.73 34.12 34.49 33.63 32.96 32.57 29.86 28.28 26.90 26.57 27.27 28.13 27.31 25.22 27.82 30.15 30.20 31.88 31.53 32.84 35.85 36.08 36.50 38.18 37.73 39.48 38.27 33.31 38.52 35.61 39.21 39.10 38.35 38.62 38.55 37.60
31.71 30.68 28.24 27.58 27.73 28.55 29.43 29.04 28.57 27.21 27.03 27.15 27.17 27.34 27.57 27.52 27.72 30.22 30.81 30.84 29.92 30.58 33.27 33.42 33.83 36.04 38.14 37.33 35.94 36.80 37.03 35.24 38.15 37.64 36.63 35.51 35.32 35.52
29.34 27.11 27.26 26.75 26.33 27.06 27.56 26.21 26.19 27.81 26.87 27.25 27.31 26.20 25.99 25.73 26.03 28.21 30.41 30.26 29.36 29.73 32.02 34.11 32.35 31.79 31.18 32.32 36.73 35.37 36.63 36.17 36.31 36.40 36.87 33.94 32.69 34.15
26.47 27.01 26.88 26.89 27.60 28.05 27.26 25.67 25.33 26.14 25.72 23.91 25.39 24.94 24.46 25.68 26.56 26.50 27.73 29.25 30.20 30.97 31.06 32.94 31.68 32.12 31.17 30.61 31.28 35.57 35.37 34.80 34.62 33.70 34.85 34.70 32.80 32.30
25.60 24.86 24.87 25.47 25.79 25.51 24.43 24.60 25.34 24.53 22.32 24.32 22.91 22.98 25.73 25.15 24.94 25.98 27.35 28.12 29.79 31.02 31.63 32.58 31.40 32.08 32.09 32.06 28.40 30.72 34.24 34.15 33.65 33.24 32.62 31.70 33.33 35.40
23.91 23.92 24.22 24.28 24.25 24.40 24.50 24.80 24.95 25.40 25.32 25.31 25.26 25.43 25.55 24.83 24.60 26.23 27.86 29.69 31.01 31.16 30.51 30.70 31.45 35.81 32.84 31.05 28.35 27.74 29.66 35.39 36.23 33.99 32.34 31.07 29.50 29.42
22.87 23.84 25.18 24.94 23.85 23.68 24.52 24.99 24.84 24.92 23.43 22.94 23.89 25.14 25.60 25.26 25.63 26.25 26.77 27.38 28.99 30.58 31.04 31.64 31.86 31.17 30.43 30.78 29.05 26.44 28.02 30.33 33.04 35.08 34.80 31.78 29.53 25.52
22.45 22.52 22.17 22.34 22.80 23.40 22.89 22.55 21.98 21.61 21.88 21.65 22.88 25.27 25.10 25.52 26.73 26.68 27.66 28.63 29.66 30.33 29.77 27.94 29.34 31.14 30.51 29.05 27.96 27.56 27.88 28.86 29.51 29.29 29.10 32.95 32.50 33.12

GFSNE_sfc_wetblb_117.txt.gz
Wetbulb
48.19 48.01 47.86 48.50 49.50 50.26 51.13 49.46 48.46 47.83 51.11 54.79 55.94 57.42 58.10 56.47 58.54 59.79 59.35 58.04 59.12 60.33 61.59 61.34 60.73 60.62 61.79 63.29 63.62 63.67 63.48 63.20 63.27 63.82 64.07 62.75 61.48 61.35
44.95 44.88 46.22 47.18 47.50 48.42 46.17 46.92 47.89 46.66 45.54 50.22 51.13 51.89 53.27 56.62 57.57 58.46 60.29 56.05 57.54 59.17 59.15 58.55 58.71 59.10 59.28 60.06 60.81 61.07 61.37 61.42 62.35 63.52 63.58 62.64 61.29 60.23
41.52 42.61 42.30 43.43 45.71 43.19 43.67 45.90 45.21 45.68 43.69 45.39 47.89 49.88 50.32 50.42 53.00 57.06 58.96 59.33 59.94 56.77 58.72 58.54 58.06 57.88 57.71 57.86 58.47 59.17 59.65 60.32 61.47 62.70 63.12 62.22 60.85 59.38
38.29 40.22 39.88 40.81 41.31 40.18 41.45 41.98 42.37 43.68 42.30 40.83 43.72 45.34 46.77 50.00 51.13 51.92 55.12 57.38 58.14 56.57 56.63 57.01 56.90 56.63 56.74 57.01 56.66 56.96 57.29 58.06 58.93 60.44 61.14 60.80 60.17 58.62
36.62 36.86 37.34 38.12 37.18 37.77 39.70 39.54 40.78 40.80 41.16 40.03 39.78 43.24 45.54 47.67 48.26 50.03 50.41 51.42 53.48 52.41 55.64 56.02 56.40 56.53 56.03 55.98 55.85 55.58 54.95 55.45 56.24 57.20 58.47 58.49 58.22 57.70
36.08 37.19 37.21 36.35 35.81 36.59 37.99 38.31 40.05 39.36 39.13 38.16 38.13 38.90 40.66 42.98 45.35 45.50 45.04 48.11 48.79 50.31 51.59 52.73 54.30 54.79 55.34 55.78 55.28 53.97 53.19 54.02 55.49 56.82 56.45 55.55 54.91 55.29
34.99 35.70 36.08 37.48 39.16 37.87 37.04 36.82 35.88 34.63 35.77 36.17 35.31 36.07 36.85 38.52 38.11 40.22 40.18 41.61 44.36 47.34 47.65 49.00 50.65 51.98 53.03 53.75 53.05 52.08 52.60 53.54 54.52 55.65 55.37 54.43 53.18 53.25
32.88 34.03 35.34 37.15 36.95 37.46 37.77 37.46 35.87 33.46 32.68 32.38 32.94 32.57 33.39 34.87 36.17 36.26 37.10 37.07 37.86 45.67 44.42 45.35 48.93 49.33 51.04 52.73 53.04 52.55 52.54 52.75 53.61 54.05 53.30 52.73 51.68 51.18
32.39 32.64 33.10 34.74 35.57 33.79 35.43 35.31 35.14 35.86 35.43 32.62 31.10 30.60 31.29 32.94 33.74 33.43 34.22 34.71 36.05 39.88 40.71 40.28 45.21 46.60 49.66 50.22 51.01 51.64 52.37 52.00 52.00 51.54 50.89 50.29 49.60 48.99
31.77 31.29 30.72 31.22 32.45 33.91 32.61 31.32 31.58 32.17 33.01 33.57 31.54 32.06 32.91 34.07 34.11 33.76 33.51 34.18 35.92 36.66 39.78 38.61 43.26 43.70 45.54 47.22 49.54 50.31 50.33 50.39 49.97 49.70 49.50 48.72 47.56 46.96
31.55 31.19 32.26 31.55 35.18 37.23 32.00 30.33 30.01 30.69 35.26 36.77 37.12 37.26 36.87 36.72 36.06 33.66 31.83 31.35 30.75 32.73 36.02 38.06 39.46 39.02 39.49 41.93 45.53 49.53 49.67 49.55 49.27 49.03 48.65 47.56 46.50 46.22
32.16 32.30 35.10 34.04 36.06 36.77 32.85 31.24 28.63 29.52 30.06 30.24 30.64 31.12 32.72 32.18 35.65 33.14 32.82 31.53 31.53 30.16 34.32 35.42 36.14 36.42 36.84 38.06 39.53 46.08 48.39 49.02 48.58 48.29 47.79 46.97 45.95 42.68
31.25 30.91 31.45 34.95 35.83 36.45 36.73 33.97 31.66 32.43 32.97 29.94 27.61 27.98 28.86 29.70 31.09 31.62 32.48 31.24 29.86 30.14 33.67 34.90 34.59 35.45 33.90 35.72 35.14 38.44 44.52 46.03 46.51 46.82 47.23 46.40 45.32 41.98
28.49 29.73 30.29 34.18 35.20 35.76 35.60 36.24 36.27 35.50 30.34 27.84 26.36 26.53 26.69 27.10 27.64 28.08 28.87 29.32 30.06 30.42 32.98 33.36 32.05 34.35 34.25 34.66 35.33 35.13 39.62 44.34 44.86 43.48 43.92 45.50 45.35 43.34
30.93 31.84 33.60 33.92 34.45 33.59 34.06 34.36 34.66 28.90 26.94 26.06 26.07 26.12 26.49 27.63 27.46 25.52 27.64 29.13 29.87 31.72 33.50 33.78 34.02 33.75 34.74 34.09 35.11 33.87 35.82 37.86 42.61 42.55 42.38 42.01 41.58 40.45
31.03 29.68 32.13 33.12 33.44 32.43 31.35 30.41 29.81 28.87 26.61 25.53 25.68 26.51 27.30 22.83 24.79 25.31 26.04 27.49 28.72 29.01 30.61 33.57 34.27 34.23 32.64 34.03 35.85 36.78 36.92 36.13 40.11 41.10 40.89 41.05 41.16 40.40
30.99 29.00 27.33 26.35 26.57 27.09 27.76 28.42 29.00 26.91 25.75 25.69 25.67 26.11 27.14 26.82 27.09 25.62 25.68 26.23 26.44 28.13 28.86 30.24 33.28 34.44 35.05 34.61 33.99 36.70 38.33 38.52 38.52 39.91 38.39 37.74 38.69 39.40
28.55 26.28 24.85 25.73 26.91 26.61 26.29 26.73 26.43 27.55 25.78 25.43 24.03 23.26 23.88 25.12 24.14 24.54 25.52 23.91 23.97 25.35 27.26 30.23 31.37 31.83 32.25 33.39 36.65 34.65 37.35 38.09 37.43 38.59 38.13 36.55 35.44 37.13
22.65 22.71 23.29 23.99 24.32 25.03 25.69 25.75 24.47 25.12 25.17 22.26 16.46 18.08 21.62 22.91 24.11 22.84 22.82 24.11 24.59 26.04 26.76 29.47 31.38 30.16 28.23 27.00 33.27 37.87 35.51 36.97 36.13 36.18 36.97 36.84 34.64 34.51
22.68 22.31 22.62 23.54 23.50 23.35 23.76 23.59 23.83 23.22 20.63 20.50 18.84 17.97 19.30 22.54 22.17 21.83 22.50 22.45 23.13 25.06 26.72 28.94 31.14 31.25 29.24 28.34 30.13 32.25 35.33 36.61 35.80 35.56 34.89 32.96 34.03 37.03
22.27 22.05 22.47 22.73 23.74 24.03 23.65 22.42 21.90 21.82 22.41 21.00 17.21 14.84 19.86 21.27 22.63 23.25 23.60 26.43 27.07 25.10 24.48 25.66 29.73 35.23 33.61 32.97 29.97 29.09 32.31 34.46 37.27 35.58 34.21 32.69 30.62 30.22
22.48 22.11 22.31 22.45 22.02 21.13 20.80 21.06 21.68 22.09 20.86 19.02 19.06 19.24 20.71 21.65 23.13 23.61 23.44 24.01 24.33 25.03 25.99 28.50 31.83 32.23 31.29 29.71 29.10 30.32 29.07 31.48 35.71 37.27 36.62 34.88 30.72 27.96
22.86 23.13 22.93 22.38 21.91 21.55 21.03 20.79 20.50 20.30 20.52 19.83 19.41 20.06 20.53 22.42 22.79 23.74 24.30 24.97 25.59 26.36 27.33 28.42 30.37 30.91 30.26 29.64 30.59 28.04 28.88 29.85 30.77 30.24 30.46 34.87 34.66 34.61

GFSNE_sfc_wetblb_120.txt.gz
Wetbulb
45.45 46.39 46.92 47.84 48.90 46.72 46.71 47.24 45.71 44.65 46.57 52.64 52.09 51.61 50.99 52.26 52.18 53.57 55.39 57.25 58.30 58.89 59.80 60.35 60.46 60.33 61.14 62.21 62.65 63.80 64.34 64.28 63.82 63.94 64.03 63.48 63.71 64.13
42.54 42.23 42.49 44.28 45.27 44.24 45.28 46.34 46.62 43.47 42.02 47.93 47.58 47.33 48.40 48.98 49.48 51.95 52.64 52.75 56.81 58.34 58.56 57.97 58.42 58.48 58.87 59.55 60.20 61.14 61.91 62.42 62.68 63.42 63.95 63.60 63.47 63.22
40.34 41.20 40.23 42.21 41.90 41.17 43.41 42.66 43.25 44.31 40.81 42.04 43.43 45.48 45.22 46.18 49.02 50.25 51.30 52.44 54.49 56.55 57.49 58.18 57.92 58.10 58.56 58.15 58.62 59.21 59.61 60.62 61.32 62.30 62.99 62.96 63.40 63.10
34.94 36.26 36.79 39.65 37.94 37.90 40.44 39.74 40.94 41.87 39.32 37.25 39.75 41.34 41.70 45.07 46.02 45.20 49.42 50.71 51.54 52.43 53.55 54.32 56.21 57.04 57.17 57.34 57.44 57.82 57.52 58.15 58.90 59.78 60.88 61.57 62.18 62.31
34.05 34.28 35.02 34.99 33.98 35.07 37.89 36.97 38.60 39.76 39.68 37.17 36.59 39.68 40.77 42.21 41.98 44.67 43.15 45.11 45.67 47.70 50.51 52.30 53.38 54.67 55.80 56.22 56.17 56.04 55.63 55.93 56.36 56.68 57.48 58.74 59.99 60.94
34.66 35.34 35.17 34.43 34.51 35.03 35.73 37.05 36.19 35.22 36.23 35.66 35.47 35.91 37.63 39.09 37.79 36.95 36.36 39.35 39.61 42.81 48.98 50.10 50.89 51.91 53.00 53.80 54.64 53.41 52.67 53.53 54.82 55.48 55.42 55.44 56.47 58.46
32.27 33.40 34.33 36.36 38.18 37.00 37.01 35.26 34.88 34.22 33.57 33.17 33.10 33.20 32.98 33.34 32.98 33.89 33.65 35.47 36.91 44.01 41.54 43.33 44.58 46.36 49.72 51.70 51.70 51.30 51.72 52.59 53.15 54.13 55.03 55.45 55.33 56.36
30.93 31.77 32.98 35.04 35.22 37.77 37.49 36.57 35.49 32.73 31.80 30.82 30.11 30.26 30.63 31.47 32.59 32.93 32.58 30.81 30.31 38.97 35.75 35.99 39.20 41.55 45.51 48.47 50.80 51.23 51.57 51.98 52.23 52.60 53.19 54.19 54.96 54.92
30.39 30.73 31.02 32.91 33.49 32.43 35.70 36.07 34.79 35.61 35.25 32.19 30.40 29.91 29.16 31.33 32.20 31.35 30.70 30.12 30.20 33.84 35.20 33.74 37.78 38.73 44.12 47.31 49.35 49.92 50.29 50.79 51.37 51.71 51.94 52.60 53.77 54.11
30.96 29.97 29.09 29.81 30.92 33.19 31.86 31.07 31.21 31.47 32.42 32.80 31.56 31.40 32.00 33.45 32.34 32.13 31.92 31.70 33.01 33.89 35.47 31.26 35.83 35.97 39.47 43.70 46.80 48.23 49.13 49.91 50.33 50.93 51.47 51.83 51.96 51.49
30.96 31.09 31.06 30.91 34.84 36.54 31.73 30.93 29.86 30.20 34.65 36.80 36.87 37.45 37.08 35.91 35.40 32.25 29.37 28.79 27.52 30.70 33.70 32.43 34.23 34.30 37.09 38.64 41.75 45.74 47.80 49.45 50.01 50.46 50.79 49.87 49.23 48.94
29.01 30.25 34.09 33.26 35.41 35.81 32.26 29.77 28.35 29.65 29.75 30.19 31.13 32.03 31.58 31.13 34.51 31.08 29.46 28.14 27.63 26.29 30.64 28.88 30.66 32.45 33.08 36.06 37.39 40.55 43.69 48.17 49.24 49.54 49.59 48.96 48.20 46.78
28.53 27.93 29.17 33.45 34.13 34.87 35.64 33.32 33.61 35.32 32.97 30.87 29.28 28.29 28.10 28.16 28.71 29.64 29.79 27.20 25.82 25.75 29.77 29.00 28.02 28.54 29.49 31.22 36.16 37.10 39.52 42.25 46.06 48.04 49.00 48.24 47.28 45.78
28.57 28.46 28.17 33.03 34.01 34.23 33.99 35.12 35.01 34.38 30.28 28.07 26.47 25.39 25.46 25.54 25.88 26.52 27.45 27.08 27.98 28.25 29.86 29.76 29.03 28.68 27.72 27.63 28.86 33.27 35.76 38.54 42.16 41.47 43.77 47.09 47.14 46.05
29.35 30.99 33.42 33.38 33.46 32.77 33.37 33.52 33.82 28.17 27.24 26.29 26.57 26.01 24.36 25.30 26.45 24.86 26.91 26.96 26.91 28.12 30.49 30.26 30.71 30.93 30.59 29.14 29.14 30.89 32.34 33.98 38.30 40.00 40.18 42.59 43.14 41.93
30.90 29.24 31.42 32.33 32.17 31.01 29.82 29.12 28.45 28.05 27.23 27.19 27.53 27.24 26.24 22.45 24.96 26.17 24.94 26.07 24.55 25.29 28.18 29.66 29.85 30.43 30.28 31.26 31.87 30.61 32.03 31.67 35.41 39.78 40.39 41.00 42.35 42.21
31.16 28.94 26.60 26.04 25.27 25.93 26.82 27.58 28.04 27.38 26.99 27.35 27.39 25.90 26.25 26.58 25.68 25.00 24.94 24.05 22.61 22.85 23.43 25.93 28.00 29.54 31.67 31.35 29.84 32.13 32.23 32.81 34.98 37.86 37.65 38.64 39.75 40.93
27.75 22.57 21.81 22.43 23.16 23.84 24.44 24.54 25.59 26.61 25.63 25.38 24.17 23.73 23.79 23.29 22.66 24.08 23.62 21.19 21.28 22.75 23.36 25.58 26.24 26.40 28.27 31.30 34.26 31.41 32.49 33.07 34.52 36.22 38.60 37.78 37.33 39.12
22.41 21.62 21.42 21.99 22.62 23.71 23.59 23.23 23.13 24.52 24.81 22.63 21.77 20.06 19.32 18.75 23.36 20.92 21.06 21.10 21.97 22.61 23.48 25.52 25.94 25.31 23.98 23.38 28.70 36.47 32.03 32.73 32.98 34.42 37.43 37.78 37.44 36.84
22.65 21.88 21.32 21.96 22.08 22.00 22.68 23.53 23.65 23.08 22.07 20.95 20.22 17.42 18.79 19.04 19.71 20.69 21.33 21.39 22.10 21.62 21.56 23.28 23.71 24.59 24.93 25.29 27.27 30.57 35.01 33.31 33.54 33.70 35.09 36.67 35.26 39.32
22.29 22.02 22.35 22.09 21.91 22.00 22.20 21.40 20.58 20.25 21.10 21.76 18.01 16.02 14.19 12.93 18.53 20.43 21.05 24.27 24.85 22.89 21.50 21.95 24.17 30.62 30.03 30.89 28.98 29.35 32.54 34.69 35.82 34.79 35.94 34.95 33.57 31.02
22.43 22.09 22.38 22.55 22.20 21.45 20.97 20.63 20.18 20.47 20.20 19.26 18.48 16.83 16.02 15.07 18.60 19.11 20.02 21.28 21.68 22.33 22.88 24.79 26.57 27.47 28.11 28.13 27.81 28.61 29.93 32.36 34.56 35.73 37.28 36.47 31.84 28.54
22.52 22.81 22.93 23.15 23.07 22.27 21.85 21.46 20.91 20.40 20.34 19.55 18.90 18.43 17.81 17.98 18.86 20.52 21.29 21.16 21.47 21.86 22.25 22.55 24.94 26.76 27.80 28.97 29.10 27.86 28.58 29.96 31.47 32.18 33.59 37.91 35.55 35.26